[[{"header":{"parameterUnit":"m.s-1","parameterCategory":1,"la1":31.0,"la2":29.5877,"lo1":-88.7671,"lo2":-86.6584,"dy":0.0162,"dx":0.0185,"nx":115,"ny":88,"refTime":"2025-11-04T00:00:00:Z","depth":0,"parameterNumber":2,"parameterNumberName":"U-component_of_WINDS"},"data":[0.0,0.0,0.0,0.0,0.0,0.0,0.0,0.0,0.0,0.0,0.0,0.0,0.0,0.0,0.0,0.0,0.0,0.0,0.0,0.0,0.0,0.0,0.0,0.0,0.0,0.0,0.0,0.0,0.0,0.0,0.0,0.0,0.0,0.0,0.0,0.0,0.0,0.0,0.0,0.0,0.0,0.0,0.0,0.0,0.0,0.0,0.0,0.0,0.0,0.0,0.0,0.0,0.0,0.0,0.0,0.0,0.0,0.0,0.0,0.0,0.0,0.0,0.0,0.0,0.0,0.0,0.0,0.0,0.0,0.0,0.0,0.0,0.0,0.0,0.0,0.0,0.0,0.0,0.0,0.0,0.0,0.0,0.0,0.0,0.0,0.0,0.0,0.0,0.0,0.0,0.0,0.0,0.0,0.0,0.0,0.0,0.0,0.0,0.0,0.0,0.0,0.0,0.0,0.0,0.0,0.0,0.0,0.0,0.0,0.0,0.0,0.0,0.0,0.0,0.0,0.0,0.0,0.0,0.0,0.0,0.0,0.0,0.0,0.0,0.0,0.0,0.0,0.0,0.0,0.0,0.0,0.0,0.0,0.0,0.0,0.0,0.0,0.0,0.0,0.0,0.0,0.0,0.0,0.0,0.0,0.0,0.0,0.0,0.0,0.0,0.0,0.0,0.0,0.0,0.0,0.0,0.0,0.0,0.0,0.0,0.0,0.0,0.0,0.0,0.0,0.0,0.0,0.0,0.0,0.0,0.0,0.0,0.0,0.0,0.0,0.0,0.0,0.0,0.0,0.0,0.0,0.0,0.0,0.0,0.0,0.0,0.0,0.0,0.0,0.0,0.0,0.0,0.0,0.0,0.0,0.0,0.0,0.0,0.0,0.0,0.0,0.0,0.0,0.0,0.0,0.0,0.0,0.0,0.0,0.0,0.0,0.0,0.0,0.0,0.0,0.0,0.0,0.0,0.0,0.0,0.0,0.0,0.0,0.0,0.0,0.0,0.0,0.0,0.0,0.0,0.0,0.0,0.0,0.0,0.0,0.0,0.0,0.0,0.0,0.0,0.0,0.0,0.0,0.0,0.0,0.0,0.0,0.0,0.0,0.0,0.0,0.0,0.0,0.0,0.0,0.0,0.0,0.0,0.0,0.0,0.0,0.0,0.0,0.0,0.0,0.0,0.0,0.0,0.0,0.0,0.0,0.0,0.0,0.0,0.0,0.0,0.0,0.0,0.0,0.0,0.0,0.0,0.0,0.0,0.0,0.0,0.0,0.0,0.0,0.0,0.0,0.0,0.0,0.0,0.0,0.0,0.0,0.0,0.0,0.0,0.0,0.0,0.0,0.0,0.0,0.0,0.0,0.0,0.0,0.0,0.0,0.0,0.0,0.0,0.0,0.0,0.0,0.0,0.0,0.0,0.0,0.0,0.0,0.0,0.0,0.0,0.0,0.0,0.0,0.0,0.0,0.0,0.0,0.0,0.0,0.0,0.0,0.0,0.0,0.0,0.0,0.0,0.0,0.0,0.0,0.0,0.0,0.0,0.0,0.0,0.0,0.0,0.0,0.0,0.0,0.0,0.0,0.0,0.0,0.0,0.0,0.0,0.0,0.0,0.0,0.0,0.0,0.0,0.0,0.0,0.0,0.0,0.0,0.0,0.0,0.0,0.0,0.0,0.0,0.0,0.0,0.0,0.0,0.0,0.0,0.0,0.0,0.0,0.0,0.0,0.0,0.0,0.0,0.0,0.0,0.0,0.0,0.0,0.0,0.0,0.0,0.0,0.0,0.0,0.0,0.0,0.0,0.0,0.0,0.0,0.0,0.0,0.0,0.0,0.0,0.0,0.0,0.0,0.0,0.0,0.0,0.0,0.0,0.0,0.0,0.0,0.0,0.0,0.0,0.0,0.0,0.0,0.0,0.0,0.0,0.0,0.0,0.0,0.0,0.0,0.0,0.0,0.0,0.0,0.0,0.0,0.0,0.0,0.0,0.0,0.0,0.0,0.0,0.0,0.0,0.0,0.0,0.0,0.0,0.0,0.0,0.0,0.0,0.0,0.0,0.0,0.0,0.0,0.0,0.0,0.0,0.0,0.0,0.0,0.0,0.0,0.0,0.0,0.0,0.0,0.0,0.0,0.0,0.0,0.0,0.0,0.0,0.0,0.0,0.0,0.0,0.0,0.0,0.0,0.0,0.0,0.0,0.0,0.0,0.0,0.0,0.0,0.0,0.0,0.0,0.0,0.0,0.0,0.0,0.0,0.0,0.0,0.0,0.0,0.0,0.0,0.0,0.0,0.0,0.0,0.0,0.0,0.0,0.0,0.0,0.0,0.0,0.0,0.0,0.0,0.0,0.0,0.0,0.0,0.0,0.0,0.0,0.0,0.0,0.0,0.0,0.0,0.0,0.0,0.0,0.0,0.0,0.0,0.0,0.0,0.0,0.0,0.0,0.0,0.0,0.0,0.0,0.0,0.0,0.0,0.0,0.0,0.0,0.0,0.0,0.0,0.0,0.0,0.0,0.0,0.0,0.0,0.0,0.0,0.0,0.0,0.0,0.0,0.0,0.0,0.0,0.0,0.0,0.0,0.0,0.0,0.0,0.0,0.0,0.0,0.0,0.0,0.0,0.0,0.0,0.0,0.0,0.0,0.0,0.0,0.0,0.0,0.0,0.0,0.0,0.0,0.0,0.0,0.0,0.0,0.0,0.0,0.0,0.0,0.0,0.0,0.0,0.0,0.0,0.0,0.0,0.0,0.0,0.0,0.0,0.0,0.0,0.0,0.0,0.0,0.0,0.0,0.0,0.0,0.0,0.0,0.0,0.0,0.0,0.0,0.0,0.0,0.0,0.0,0.0,0.0,0.0,0.0,0.0,0.0,0.0,0.0,0.0,0.0,0.0,0.0,0.0,0.0,0.0,0.0,0.0,0.0,0.0,0.0,0.0,0.0,0.0,0.0,0.0,0.0,0.0,0.0,0.0,0.0,0.0,0.0,0.0,0.0,0.0,0.0,0.0,0.0,0.0,0.0,0.0,0.0,0.0,0.0,0.0,0.0,0.0,0.0,0.0,0.0,0.0,0.0,0.0,0.0,0.0,0.0,0.0,0.0,0.0,0.0,0.0,0.0,0.0,0.0,0.0,0.0,0.0,0.0,0.0,0.0,0.0,0.0,0.0,0.0,0.0,0.0,0.0,0.0,0.0,0.0,0.0,0.0,0.0,0.0,0.0,0.0,0.0,0.0,0.0,0.0,0.0,0.0,0.0,0.0,0.0,0.0,0.0,0.0,0.0,0.0,0.0,0.0,0.0,0.0,0.0,0.0,0.0,0.0,0.0,0.0,0.0,0.0,0.0,0.0,0.0,0.0,0.0,0.0,0.0,0.0,0.0,0.0,0.0,0.0,0.0,0.0,0.0,0.0,0.0,0.0,0.0,0.0,0.0,0.0,0.0,0.0,0.0,0.0,0.0,0.0,0.0,0.0,0.0,0.0,0.0,0.0,0.0,0.0,0.0,0.0,0.0,0.0,0.0,0.0,0.0,0.0,0.0,0.0,0.0,0.0,0.0,0.0,0.0,0.0,0.0,0.0,0.0,0.0,0.0,0.0,0.0,0.0,0.0,0.0,0.0,0.0,0.0,0.0,0.0,0.0,0.0,0.0,0.0,0.0,0.0,0.0,0.0,0.0,0.0,0.0,0.0,0.0,0.0,0.0,0.0,0.0,0.0,0.0,0.0,0.0,0.0,0.0,0.0,0.0,0.0,0.0,0.0,0.0,0.0,0.0,0.0,0.0,0.0,0.0,0.0,0.0,0.0,0.0,0.0,0.0,0.0,0.0,0.0,0.0,0.0,0.0,0.0,0.0,0.0,0.0,0.0,0.0,0.0,0.0,0.0,0.0,0.0,0.0,0.0,0.0,0.0,0.0,0.0,0.0,0.0,0.0,0.0,0.0,0.0,0.0,0.0,0.0,0.0,0.0,0.0,0.0,0.0,0.0,0.0,0.0,0.0,0.0,0.0,0.0,0.0,0.0,0.0,0.0,0.0,0.0,0.0,0.0,0.0,0.0,0.0,0.0,0.0,0.0,0.0,0.0,0.0,0.0,0.0,0.0,0.0,0.0,0.0,0.0,0.0,0.0,0.0,0.0,0.0,0.0,0.0,0.0,0.0,0.0,0.0,0.0,0.0,0.0,0.0,0.0,0.0,0.0,0.0,0.0,0.0,0.0,0.0,0.0,0.0,0.0,0.0,0.0,0.0,0.0,0.0,0.0,0.0,0.0,-1.5188,0.0,0.0,0.0,0.0,0.0,0.0,0.0,0.0,0.0,0.0,0.0,0.0,0.0,0.0,0.0,0.0,0.0,0.0,0.0,0.0,0.0,0.0,0.0,0.0,0.0,0.0,0.0,0.0,0.0,0.0,0.0,0.0,0.0,0.0,0.0,0.0,0.0,0.0,0.0,0.0,0.0,0.0,0.0,0.0,0.0,0.0,0.0,0.0,0.0,0.0,0.0,0.0,0.0,0.0,0.0,0.0,0.0,0.0,0.0,0.0,0.0,0.0,0.0,0.0,0.0,0.0,0.0,0.0,0.0,0.0,0.0,0.0,0.0,0.0,0.0,0.0,0.0,0.0,0.0,0.0,0.0,0.0,0.0,0.0,0.0,0.0,0.0,0.0,0.0,0.0,0.0,0.0,0.0,0.0,0.0,0.0,0.0,0.0,0.0,0.0,0.0,0.0,0.0,0.0,0.0,0.0,0.0,0.0,0.0,0.0,-1.837,-1.757,-1.714,-1.6315,-1.5114,0.0,0.0,0.0,0.0,0.0,0.0,0.0,0.0,0.0,0.0,0.0,0.0,0.0,0.0,0.0,0.0,0.0,0.0,0.0,0.0,0.0,0.0,0.0,0.0,0.0,0.0,0.0,0.0,0.0,0.0,0.0,0.0,0.0,0.0,0.0,0.0,0.0,0.0,0.0,0.0,0.0,0.0,0.0,0.0,0.0,0.0,0.0,0.0,0.0,0.0,0.0,0.0,0.0,0.0,0.0,0.0,0.0,0.0,0.0,0.0,0.0,0.0,0.0,0.0,0.0,0.0,0.0,0.0,0.0,0.0,0.0,0.0,0.0,0.0,0.0,0.0,0.0,0.0,0.0,0.0,0.0,0.0,0.0,0.0,0.0,0.0,0.0,0.0,0.0,0.0,0.0,0.0,0.0,0.0,0.0,0.0,0.0,0.0,0.0,0.0,0.0,0.0,0.0,0.0,0.0,0.0,0.0,0.0,0.0,0.0,0.0,0.0,-1.7306,-1.6455,-1.5616,0.0,0.0,0.0,0.0,0.0,0.0,0.0,0.0,0.0,0.0,0.0,0.0,0.0,0.0,0.0,0.0,0.0,0.0,0.0,0.0,0.0,0.0,0.0,0.0,0.0,0.0,0.0,0.0,0.0,0.0,0.0,0.0,0.0,0.0,0.0,0.0,0.0,0.0,0.0,0.0,0.0,0.0,0.0,0.0,0.0,0.0,0.0,0.0,0.0,0.0,0.0,0.0,0.0,0.0,0.0,0.0,0.0,0.0,0.0,0.0,0.0,0.0,0.0,0.0,0.0,0.0,0.0,0.0,0.0,0.0,0.0,0.0,0.0,0.0,0.0,0.0,0.0,0.0,0.0,0.0,0.0,0.0,0.0,0.0,0.0,0.0,0.0,0.0,0.0,0.0,0.0,0.0,0.0,0.0,0.0,0.0,0.0,0.0,0.0,0.0,0.0,0.0,0.0,0.0,0.0,0.0,0.0,0.0,0.0,0.0,-1.831,-1.9798,-1.9002,0.0,-1.7366,0.0,0.0,0.0,0.0,0.0,0.0,0.0,0.0,0.0,0.0,0.0,0.0,0.0,0.0,0.0,0.0,0.0,0.0,0.0,0.0,0.0,0.0,0.0,0.0,0.0,0.0,0.0,0.0,0.0,0.0,0.0,0.0,0.0,0.0,0.0,0.0,0.0,0.0,0.0,0.0,0.0,0.0,0.0,0.0,0.0,0.0,0.0,0.0,0.0,0.0,0.0,0.0,0.0,0.0,0.0,0.0,0.0,0.0,0.0,0.0,0.0,0.0,0.0,0.0,0.0,0.0,0.0,0.0,0.0,0.0,0.0,0.0,0.0,0.0,0.0,0.0,0.0,0.0,0.0,0.0,0.0,0.0,0.0,0.0,0.0,0.0,0.0,0.0,0.0,0.0,0.0,0.0,0.0,0.0,0.0,0.0,0.0,0.0,0.0,0.0,0.0,0.0,0.0,0.0,0.0,0.0,0.0,0.0,0.0,0.0,-1.8145,-1.9248,-1.845,-1.7876,0.0,0.0,0.0,0.0,0.0,0.0,0.0,0.0,0.0,0.0,0.0,0.0,0.0,0.0,0.0,0.0,0.0,0.0,0.0,0.0,0.0,0.0,0.0,0.0,0.0,0.0,0.0,0.0,0.0,0.0,0.0,0.0,0.0,0.0,0.0,0.0,0.0,0.0,0.0,0.0,0.0,0.0,0.0,0.0,0.0,0.0,0.0,0.0,0.0,0.0,0.0,0.0,0.0,0.0,0.0,0.0,0.0,0.0,0.0,0.0,0.0,0.0,0.0,0.0,0.0,0.0,0.0,0.0,0.0,0.0,0.0,0.0,0.0,0.0,0.0,0.0,0.0,0.0,0.0,0.0,0.0,0.0,0.0,0.0,0.0,0.0,0.0,0.0,0.0,0.0,0.0,0.0,0.0,0.0,0.0,0.0,0.0,0.0,0.0,0.0,0.0,0.0,0.0,0.0,0.0,0.0,0.0,0.0,0.0,0.0,-1.7931,-1.8032,-1.8965,-1.8491,-1.7961,-1.7501,0.0,0.0,0.0,0.0,0.0,0.0,0.0,0.0,0.0,0.0,0.0,0.0,0.0,0.0,0.0,0.0,0.0,0.0,0.0,0.0,0.0,0.0,0.0,0.0,0.0,0.0,0.0,0.0,0.0,0.0,0.0,0.0,0.0,0.0,0.0,0.0,0.0,0.0,0.0,0.0,0.0,0.0,0.0,0.0,0.0,0.0,0.0,0.0,0.0,0.0,0.0,0.0,0.0,0.0,0.0,0.0,0.0,0.0,0.0,0.0,0.0,0.0,0.0,0.0,0.0,0.0,0.0,0.0,0.0,0.0,0.0,0.0,0.0,0.0,0.0,0.0,0.0,0.0,0.0,0.0,0.0,0.0,0.0,0.0,0.0,0.0,0.0,0.0,0.0,0.0,0.0,0.0,0.0,0.0,0.0,0.0,0.0,0.0,0.0,0.0,0.0,0.0,0.0,0.0,0.0,0.0,0.0,0.0,0.0,-1.8726,-1.8293,-1.9893,-1.9893,-1.9135,0.0,0.0,0.0,0.0,0.0,0.0,0.0,0.0,0.0,0.0,0.0,0.0,0.0,0.0,0.0,0.0,0.0,0.0,0.0,0.0,0.0,0.0,0.0,0.0,0.0,0.0,0.0,0.0,0.0,0.0,0.0,0.0,0.0,0.0,0.0,0.0,0.0,0.0,0.0,0.0,0.0,0.0,0.0,0.0,0.0,0.0,0.0,0.0,0.0,0.0,0.0,0.0,0.0,0.0,0.0,0.0,0.0,0.0,0.0,0.0,0.0,0.0,0.0,0.0,0.0,0.0,0.0,0.0,0.0,0.0,0.0,0.0,0.0,0.0,0.0,0.0,0.0,0.0,0.0,0.0,0.0,0.0,0.0,0.0,0.0,0.0,0.0,0.0,0.0,0.0,0.0,0.0,0.0,0.0,0.0,0.0,0.0,0.0,0.0,0.0,0.0,0.0,0.0,0.0,0.0,0.0,0.0,0.0,0.0,-1.7186,-1.7406,-1.8758,-2.1211,-1.946,-1.8294,0.0,0.0,0.0,0.0,0.0,0.0,0.0,0.0,0.0,0.0,0.0,0.0,0.0,0.0,0.0,0.0,0.0,0.0,0.0,0.0,0.0,0.0,0.0,0.0,0.0,0.0,0.0,0.0,0.0,0.0,0.0,0.0,0.0,0.0,0.0,0.0,0.0,0.0,0.0,0.0,0.0,0.0,0.0,0.0,0.0,0.0,0.0,0.0,0.0,0.0,0.0,0.0,0.0,0.0,0.0,0.0,0.0,0.0,0.0,0.0,0.0,0.0,0.0,0.0,0.0,0.0,0.0,0.0,0.0,0.0,0.0,0.0,0.0,0.0,0.0,0.0,0.0,0.0,0.0,0.0,0.0,0.0,0.0,0.0,0.0,0.0,0.0,0.0,0.0,0.0,0.0,0.0,0.0,0.0,0.0,0.0,0.0,0.0,0.0,0.0,0.0,0.0,0.0,0.0,0.0,0.0,0.0,0.0,0.0,-1.6455,0.0,-1.9701,0.0,-1.9317,-1.7909,0.0,0.0,0.0,0.0,0.0,0.0,0.0,0.0,0.0,0.0,0.0,0.0,0.0,0.0,0.0,0.0,0.0,0.0,0.0,0.0,0.0,0.0,0.0,0.0,0.0,0.0,0.0,0.0,0.0,0.0,0.0,0.0,0.0,0.0,0.0,0.0,0.0,0.0,0.0,0.0,0.0,0.0,0.0,0.0,0.0,0.0,0.0,0.0,0.0,0.0,0.0,0.0,0.0,0.0,0.0,0.0,0.0,0.0,0.0,0.0,0.0,0.0,0.0,0.0,0.0,0.0,0.0,0.0,0.0,0.0,0.0,0.0,0.0,0.0,0.0,0.0,0.0,0.0,0.0,0.0,0.0,0.0,0.0,0.0,0.0,0.0,0.0,0.0,0.0,0.0,0.0,0.0,0.0,0.0,0.0,0.0,0.0,0.0,0.0,0.0,0.0,0.0,0.0,0.0,0.0,0.0,0.0,0.0,-1.6269,-1.9295,-2.0904,-2.1016,-1.9641,-1.9593,-1.8126,0.0,0.0,0.0,0.0,0.0,0.0,0.0,0.0,0.0,0.0,0.0,0.0,0.0,0.0,0.0,0.0,0.0,0.0,0.0,0.0,0.0,0.0,0.0,0.0,0.0,0.0,0.0,0.0,0.0,0.0,0.0,0.0,0.0,0.0,0.0,0.0,0.0,0.0,0.0,0.0,0.0,0.0,0.0,0.0,0.0,0.0,0.0,0.0,0.0,0.0,0.0,0.0,0.0,0.0,0.0,0.0,0.0,0.0,0.0,0.0,0.0,0.0,0.0,0.0,0.0,0.0,0.0,0.0,0.0,0.0,0.0,0.0,0.0,0.0,0.0,0.0,0.0,0.0,0.0,0.0,0.0,0.0,0.0,0.0,0.0,0.0,0.0,0.0,0.0,0.0,0.0,0.0,0.0,0.0,0.0,0.0,0.0,0.0,0.0,0.0,0.0,0.0,0.0,0.0,0.0,0.0,0.0,0.0,0.0,-1.7794,-1.9334,-2.0697,-2.1646,-1.9212,-1.7825,0.0,0.0,0.0,0.0,0.0,0.0,0.0,0.0,0.0,0.0,0.0,0.0,0.0,0.0,0.0,0.0,0.0,0.0,0.0,0.0,0.0,0.0,0.0,0.0,0.0,0.0,0.0,0.0,0.0,0.0,0.0,0.0,0.0,0.0,0.0,0.0,0.0,0.0,0.0,0.0,0.0,0.0,0.0,0.0,0.0,0.0,0.0,0.0,0.0,0.0,0.0,0.0,0.0,0.0,0.0,0.0,0.0,0.0,0.0,0.0,0.0,0.0,0.0,0.0,0.0,0.0,0.0,0.0,0.0,0.0,0.0,0.0,0.0,0.0,0.0,0.0,0.0,0.0,0.0,0.0,0.0,0.0,0.0,0.0,0.0,0.0,0.0,0.0,0.0,0.0,0.0,0.0,0.0,0.0,0.0,0.0,0.0,0.0,0.0,0.0,0.0,0.0,0.0,0.0,0.0,0.0,0.0,0.0,0.0,-1.9659,-2.1128,-2.2319,-2.3146,-2.0549,-1.8901,-1.8316,0.0,0.0,0.0,0.0,0.0,0.0,0.0,0.0,0.0,0.0,0.0,0.0,0.0,0.0,0.0,0.0,0.0,0.0,0.0,0.0,0.0,0.0,0.0,0.0,0.0,0.0,0.0,0.0,0.0,0.0,0.0,0.0,0.0,0.0,0.0,0.0,0.0,0.0,0.0,0.0,0.0,0.0,0.0,0.0,0.0,0.0,0.0,0.0,0.0,0.0,0.0,0.0,0.0,0.0,0.0,0.0,0.0,0.0,0.0,0.0,0.0,0.0,0.0,0.0,0.0,0.0,0.0,0.0,0.0,0.0,0.0,0.0,0.0,0.0,0.0,0.0,0.0,0.0,0.0,0.0,0.0,0.0,0.0,0.0,0.0,0.0,0.0,0.0,0.0,0.0,0.0,0.0,0.0,0.0,0.0,0.0,0.0,0.0,0.0,0.0,0.0,0.0,0.0,0.0,0.0,0.0,0.0,0.0,-2.4077,-2.5642,-2.5708,-2.4139,-2.3219,-2.1021,0.0,0.0,0.0,0.0,0.0,0.0,0.0,0.0,0.0,0.0,0.0,0.0,0.0,0.0,0.0,0.0,0.0,0.0,0.0,0.0,0.0,0.0,0.0,0.0,0.0,0.0,0.0,0.0,0.0,0.0,0.0,0.0,0.0,0.0,0.0,0.0,0.0,0.0,0.0,0.0,0.0,0.0,0.0,0.0,0.0,0.0,0.0,0.0,0.0,0.0,0.0,0.0,0.0,0.0,0.0,0.0,0.0,0.0,0.0,0.0,0.0,0.0,0.0,0.0,0.0,0.0,0.0,0.0,0.0,0.0,0.0,0.0,0.0,0.0,0.0,0.0,0.0,0.0,0.0,0.0,0.0,0.0,0.0,0.0,0.0,0.0,0.0,0.0,0.0,0.0,0.0,0.0,0.0,0.0,0.0,0.0,0.0,0.0,0.0,0.0,0.0,0.0,0.0,0.0,0.0,0.0,0.0,0.0,0.0,-2.6439,-2.8612,-2.8974,-2.7351,-2.4371,-2.196,0.0,0.0,0.0,0.0,0.0,0.0,0.0,0.0,0.0,0.0,0.0,0.0,0.0,0.0,0.0,0.0,0.0,0.0,0.0,0.0,0.0,0.0,0.0,0.0,0.0,0.0,0.0,0.0,0.0,0.0,0.0,0.0,0.0,0.0,0.0,0.0,0.0,0.0,0.0,0.0,0.0,0.0,0.0,0.0,0.0,0.0,0.0,0.0,0.0,0.0,0.0,0.0,0.0,0.0,0.0,0.0,0.0,0.0,0.0,0.0,0.0,0.0,0.0,0.0,0.0,0.0,0.0,0.0,0.0,0.0,0.0,0.0,0.0,0.0,0.0,0.0,0.0,0.0,0.0,0.0,0.0,0.0,0.0,0.0,0.0,0.0,0.0,0.0,0.0,0.0,0.0,0.0,0.0,0.0,0.0,0.0,0.0,0.0,0.0,0.0,0.0,0.0,0.0,0.0,0.0,0.0,0.0,0.0,-2.5389,-2.7876,-3.0604,-3.1419,-3.0138,-2.6898,-2.402,0.0,0.0,0.0,0.0,0.0,0.0,0.0,0.0,0.0,0.0,0.0,0.0,0.0,0.0,0.0,0.0,0.0,0.0,0.0,0.0,0.0,0.0,0.0,0.0,0.0,0.0,0.0,0.0,0.0,0.0,0.0,0.0,0.0,0.0,0.0,0.0,0.0,0.0,0.0,0.0,0.0,0.0,0.0,0.0,0.0,0.0,0.0,0.0,0.0,0.0,0.0,0.0,0.0,0.0,0.0,0.0,0.0,0.0,0.0,0.0,0.0,0.0,0.0,0.0,0.0,0.0,0.0,0.0,0.0,0.0,0.0,0.0,0.0,0.0,0.0,0.0,0.0,0.0,0.0,0.0,0.0,0.0,0.0,0.0,0.0,0.0,0.0,0.0,0.0,0.0,0.0,0.0,0.0,0.0,0.0,0.0,0.0,0.0,0.0,0.0,0.0,0.0,0.0,0.0,0.0,0.0,0.0,0.0,-2.7013,-2.8601,-3.1682,-3.2892,-3.2061,-2.9737,-2.6373,0.0,0.0,0.0,0.0,0.0,0.0,0.0,0.0,0.0,0.0,0.0,0.0,0.0,0.0,0.0,0.0,0.0,0.0,0.0,0.0,0.0,0.0,0.0,0.0,0.0,0.0,0.0,0.0,0.0,0.0,0.0,0.0,0.0,0.0,0.0,0.0,0.0,0.0,0.0,0.0,0.0,0.0,0.0,0.0,0.0,0.0,0.0,0.0,0.0,0.0,0.0,0.0,0.0,0.0,0.0,0.0,0.0,0.0,0.0,0.0,0.0,0.0,0.0,0.0,0.0,0.0,0.0,0.0,0.0,0.0,0.0,0.0,0.0,0.0,0.0,0.0,0.0,0.0,0.0,0.0,0.0,0.0,0.0,0.0,0.0,0.0,0.0,0.0,0.0,0.0,0.0,0.0,0.0,0.0,0.0,0.0,0.0,0.0,0.0,0.0,0.0,0.0,0.0,0.0,0.0,0.0,0.0,0.0,-2.7187,-2.8759,-3.1229,-3.2166,-3.1356,-2.8932,-2.6283,0.0,0.0,0.0,0.0,0.0,0.0,0.0,0.0,0.0,0.0,0.0,0.0,0.0,0.0,0.0,0.0,0.0,0.0,0.0,0.0,0.0,0.0,0.0,0.0,0.0,0.0,0.0,0.0,0.0,0.0,0.0,0.0,0.0,0.0,0.0,0.0,0.0,0.0,0.0,0.0,0.0,0.0,0.0,0.0,0.0,0.0,0.0,0.0,-1.3395,0.0,0.0,0.0,0.0,0.0,0.0,0.0,0.0,0.0,0.0,0.0,0.0,0.0,0.0,0.0,0.0,0.0,0.0,0.0,0.0,0.0,0.0,0.0,0.0,0.0,0.0,0.0,0.0,0.0,0.0,0.0,0.0,0.0,0.0,0.0,0.0,0.0,0.0,0.0,0.0,0.0,0.0,0.0,0.0,0.0,0.0,0.0,0.0,0.0,0.0,0.0,0.0,0.0,0.0,0.0,0.0,0.0,0.0,0.0,-2.7251,-2.8792,-3.1072,-3.209,-3.1598,-2.9322,-2.6821,0.0,0.0,0.0,0.0,0.0,0.0,0.0,0.0,0.0,0.0,0.0,0.0,0.0,0.0,0.0,0.0,0.0,0.0,0.0,0.0,0.0,0.0,0.0,0.0,0.0,0.0,0.0,0.0,0.0,0.0,0.0,0.0,0.0,0.0,0.0,0.0,0.0,0.0,0.0,0.0,0.0,0.0,0.0,0.0,0.0,0.0,0.0,0.0,0.0,0.0,0.0,0.0,0.0,0.0,0.0,0.0,0.0,0.0,0.0,0.0,0.0,0.0,0.0,0.0,0.0,0.0,0.0,0.0,0.0,0.0,0.0,0.0,0.0,0.0,0.0,0.0,0.0,0.0,0.0,0.0,0.0,0.0,0.0,0.0,0.0,0.0,0.0,0.0,0.0,0.0,0.0,0.0,0.0,0.0,0.0,0.0,0.0,0.0,0.0,0.0,0.0,0.0,0.0,0.0,0.0,0.0,0.0,-2.426,-2.717,-2.8828,-3.0992,-3.2127,-3.2092,-2.9874,-2.7379,-2.4625,0.0,0.0,0.0,0.0,0.0,0.0,0.0,0.0,0.0,0.0,0.0,0.0,0.0,0.0,0.0,0.0,0.0,0.0,0.0,0.0,0.0,0.0,0.0,0.0,0.0,0.0,0.0,0.0,0.0,0.0,0.0,0.0,0.0,0.0,0.0,0.0,0.0,0.0,-1.278,-1.4776,0.0,0.0,0.0,0.0,0.0,0.0,0.0,0.0,-1.5804,0.0,0.0,0.0,0.0,0.0,0.0,0.0,0.0,0.0,0.0,0.0,0.0,0.0,0.0,0.0,0.0,0.0,0.0,0.0,0.0,0.0,0.0,0.0,0.0,0.0,0.0,0.0,0.0,0.0,0.0,0.0,0.0,0.0,0.0,0.0,0.0,0.0,0.0,0.0,0.0,0.0,0.0,0.0,0.0,0.0,0.0,0.0,0.0,0.0,0.0,0.0,0.0,0.0,0.0,0.0,0.0,-2.2708,-2.4747,-2.679,-2.8935,-3.0553,-3.137,-3.1319,-2.9172,-2.6956,-2.4764,0.0,0.0,0.0,0.0,0.0,0.0,0.0,0.0,0.0,0.0,0.0,0.0,0.0,0.0,0.0,0.0,0.0,0.0,0.0,0.0,0.0,0.0,0.0,0.0,0.0,0.0,0.0,0.0,0.0,0.0,0.0,0.0,0.0,0.0,0.0,0.0,0.0,0.0,0.0,-1.6495,-1.7012,0.0,0.0,0.0,0.0,0.0,0.0,0.0,0.0,-1.6394,0.0,0.0,0.0,0.0,0.0,0.0,0.0,0.0,0.0,0.0,0.0,0.0,0.0,0.0,0.0,0.0,0.0,0.0,0.0,0.0,0.0,0.0,0.0,0.0,0.0,0.0,0.0,0.0,0.0,0.0,0.0,0.0,0.0,0.0,0.0,0.0,0.0,0.0,0.0,0.0,0.0,0.0,0.0,0.0,0.0,0.0,0.0,0.0,0.0,0.0,0.0,0.0,0.0,0.0,0.0,-2.2226,-2.522,-2.7486,-2.8976,-3.0429,-3.1021,-3.0598,-2.8061,-2.5721,0.0,0.0,0.0,0.0,0.0,0.0,0.0,0.0,0.0,0.0,0.0,0.0,0.0,0.0,0.0,0.0,0.0,0.0,0.0,0.0,0.0,0.0,0.0,0.0,0.0,0.0,0.0,0.0,0.0,0.0,0.0,0.0,0.0,0.0,0.0,0.0,0.0,0.0,0.0,0.0,-1.752,-1.7982,-1.928,0.0,0.0,0.0,0.0,0.0,0.0,-1.7224,-1.6853,0.0,0.0,0.0,0.0,0.0,0.0,0.0,0.0,0.0,0.0,0.0,0.0,0.0,0.0,0.0,0.0,0.0,0.0,0.0,0.0,0.0,0.0,0.0,0.0,0.0,0.0,0.0,0.0,0.0,0.0,0.0,0.0,0.0,0.0,0.0,0.0,0.0,0.0,0.0,0.0,0.0,0.0,0.0,0.0,0.0,0.0,0.0,0.0,0.0,0.0,0.0,0.0,0.0,0.0,0.0,-2.1495,-2.5322,-2.7892,-2.8993,-3.0277,-3.07,-3.0074,-2.7334,-2.4805,0.0,0.0,0.0,0.0,0.0,0.0,0.0,0.0,0.0,0.0,0.0,0.0,0.0,0.0,0.0,0.0,0.0,0.0,0.0,0.0,0.0,0.0,0.0,0.0,0.0,0.0,0.0,0.0,0.0,0.0,0.0,0.0,0.0,0.0,0.0,0.0,0.0,0.0,0.0,0.0,0.0,-1.943,-2.0269,-1.946,0.0,0.0,0.0,0.0,-1.8906,-1.8664,0.0,0.0,0.0,0.0,0.0,0.0,0.0,0.0,0.0,0.0,0.0,0.0,0.0,0.0,0.0,0.0,0.0,0.0,0.0,0.0,0.0,0.0,0.0,0.0,0.0,0.0,0.0,0.0,0.0,0.0,0.0,0.0,0.0,0.0,0.0,0.0,0.0,0.0,0.0,0.0,0.0,0.0,0.0,0.0,0.0,0.0,0.0,0.0,0.0,0.0,0.0,0.0,0.0,0.0,0.0,0.0,-2.2127,-2.4595,-2.6877,-2.8908,-2.9803,-3.0176,-3.0055,-2.7807,-2.5252,0.0,0.0,0.0,0.0,0.0,0.0,0.0,0.0,0.0,0.0,0.0,0.0,0.0,0.0,0.0,0.0,0.0,0.0,0.0,0.0,0.0,0.0,0.0,0.0,0.0,0.0,0.0,0.0,0.0,0.0,0.0,0.0,0.0,0.0,0.0,0.0,0.0,0.0,0.0,0.0,0.0,-2.1712,-1.9753,-1.9911,-2.0273,0.0,0.0,-2.0426,-2.1343,-2.1996,0.0,0.0,0.0,0.0,0.0,0.0,0.0,0.0,0.0,0.0,0.0,0.0,0.0,0.0,0.0,0.0,0.0,0.0,0.0,0.0,0.0,0.0,0.0,0.0,0.0,0.0,0.0,0.0,0.0,0.0,0.0,0.0,0.0,0.0,0.0,0.0,0.0,0.0,0.0,0.0,0.0,0.0,0.0,0.0,0.0,0.0,0.0,0.0,0.0,0.0,0.0,0.0,0.0,0.0,0.0,-2.0013,-2.1978,-2.4963,-2.686,-2.7623,-2.8632,-2.8798,-2.8136,-2.5983,-2.3508,0.0,0.0,0.0,0.0,0.0,0.0,0.0,0.0,0.0,0.0,0.0,0.0,0.0,0.0,0.0,0.0,0.0,0.0,0.0,0.0,0.0,0.0,0.0,0.0,0.0,0.0,0.0,0.0,0.0,0.0,0.0,0.0,0.0,0.0,0.0,0.0,0.0,0.0,0.0,0.0,0.0,0.0,-2.2584,-2.2254,0.0,0.0,0.0,-2.2069,-2.2461,0.0,0.0,0.0,0.0,0.0,0.0,0.0,0.0,0.0,0.0,0.0,0.0,0.0,0.0,0.0,0.0,0.0,0.0,0.0,0.0,0.0,0.0,0.0,0.0,0.0,0.0,0.0,0.0,0.0,0.0,0.0,0.0,0.0,0.0,0.0,0.0,0.0,0.0,0.0,0.0,0.0,0.0,0.0,0.0,0.0,0.0,0.0,0.0,0.0,0.0,0.0,0.0,0.0,0.0,0.0,0.0,0.0,-2.1726,-2.5038,-2.6719,-2.6626,-2.7492,-2.7511,-2.663,-2.486,0.0,0.0,0.0,0.0,0.0,0.0,0.0,0.0,0.0,0.0,0.0,0.0,0.0,0.0,0.0,0.0,0.0,0.0,0.0,0.0,0.0,0.0,0.0,0.0,0.0,0.0,0.0,-0.7469,0.0,0.0,0.0,0.0,0.0,0.0,0.0,0.0,0.0,0.0,0.0,0.0,0.0,0.0,-2.2346,-2.4087,-2.3911,-2.3859,0.0,0.0,-2.3666,-2.3887,-2.4235,-2.3153,0.0,0.0,0.0,0.0,0.0,0.0,0.0,0.0,0.0,0.0,0.0,0.0,0.0,0.0,0.0,0.0,0.0,0.0,0.0,0.0,0.0,0.0,0.0,0.0,0.0,0.0,0.0,0.0,0.0,0.0,0.0,0.0,0.0,0.0,0.0,0.0,0.0,0.0,0.0,0.0,0.0,0.0,0.0,0.0,0.0,0.0,0.0,0.0,0.0,0.0,0.0,0.0,0.0,0.0,-1.9506,-2.1694,-2.4285,-2.5945,-2.6575,-2.6675,-2.6678,-2.6591,-2.5767,-2.3486,0.0,0.0,0.0,0.0,0.0,0.0,0.0,0.0,0.0,0.0,0.0,0.0,0.0,0.0,0.0,0.0,0.0,0.0,0.0,0.0,0.0,0.0,0.0,0.0,0.0,0.0,0.0,0.0,0.0,0.0,0.0,0.0,0.0,0.0,0.0,0.0,0.0,0.0,0.0,0.0,0.0,-2.4194,-2.1898,-2.3686,-2.5501,0.0,-2.5719,-2.5503,-2.6245,-2.7574,-2.6484,-2.0241,0.0,0.0,0.0,0.0,0.0,0.0,0.0,0.0,0.0,0.0,0.0,0.0,0.0,0.0,0.0,0.0,0.0,0.0,0.0,0.0,0.0,0.0,0.0,0.0,0.0,0.0,0.0,0.0,0.0,0.0,0.0,0.0,0.0,0.0,0.0,0.0,0.0,0.0,0.0,0.0,0.0,0.0,0.0,0.0,0.0,0.0,0.0,0.0,0.0,0.0,0.0,0.0,0.0,-1.9544,-2.1087,-2.3754,-2.5147,-2.5177,-2.5417,-2.5453,-2.5192,-2.4946,-2.313,0.0,0.0,0.0,0.0,0.0,0.0,0.0,0.0,0.0,0.0,0.0,0.0,0.0,0.0,0.0,0.0,0.0,0.0,0.0,0.0,0.0,0.0,0.0,0.0,0.0,0.0,0.0,0.0,-1.1346,-1.137,-1.0961,0.0,0.0,0.0,0.0,0.0,0.0,0.0,0.0,0.0,0.0,-2.4237,-2.4623,-2.5626,0.0,0.0,-2.6804,-2.6603,-2.6609,-2.6272,-2.4667,-2.0676,-1.9496,0.0,0.0,0.0,0.0,0.0,0.0,0.0,0.0,0.0,0.0,0.0,0.0,0.0,0.0,0.0,0.0,0.0,0.0,0.0,0.0,0.0,0.0,0.0,0.0,0.0,0.0,0.0,0.0,0.0,0.0,0.0,0.0,0.0,0.0,0.0,0.0,0.0,0.0,0.0,0.0,0.0,0.0,0.0,0.0,0.0,0.0,0.0,0.0,0.0,0.0,0.0,0.0,-1.9242,-2.0629,-2.3286,-2.4492,-2.4219,-2.4477,-2.4492,-2.424,-2.4304,-2.2975,0.0,0.0,0.0,0.0,0.0,0.0,0.0,0.0,0.0,0.0,0.0,0.0,0.0,0.0,0.0,0.0,0.0,0.0,0.0,0.0,0.0,0.0,0.0,0.0,0.0,0.0,0.0,0.0,-1.2567,-1.1928,-1.1001,0.0,0.0,0.0,0.0,0.0,0.0,0.0,0.0,0.0,0.0,-2.4514,-2.6082,-2.6481,-2.6693,-2.6879,-2.6856,-2.6745,-2.6635,-2.5648,-2.4042,-2.1622,0.0,0.0,0.0,0.0,0.0,0.0,0.0,0.0,0.0,0.0,0.0,0.0,0.0,0.0,0.0,0.0,0.0,0.0,0.0,0.0,0.0,0.0,0.0,0.0,0.0,0.0,0.0,-1.0851,0.0,0.0,-1.0295,0.0,0.0,0.0,0.0,0.0,0.0,0.0,0.0,0.0,0.0,0.0,0.0,0.0,0.0,0.0,0.0,0.0,0.0,0.0,0.0,0.0,0.0,-1.8408,-2.0494,-2.2839,-2.4046,-2.4024,-2.4024,-2.4046,-2.4024,-2.413,-2.3297,-2.1368,0.0,0.0,0.0,0.0,0.0,0.0,0.0,0.0,0.0,0.0,0.0,0.0,0.0,0.0,0.0,0.0,0.0,0.0,0.0,0.0,0.0,0.0,0.0,0.0,0.0,0.0,-1.4318,-1.3176,-1.1756,0.0,0.0,0.0,0.0,0.0,0.0,0.0,0.0,0.0,-2.1337,-2.3828,-2.5358,-2.5171,-2.563,-2.6033,-2.6057,-2.5728,-2.5721,-2.6489,-2.6468,-2.563,0.0,0.0,0.0,0.0,0.0,0.0,0.0,0.0,0.0,0.0,0.0,0.0,0.0,0.0,0.0,0.0,0.0,0.0,0.0,0.0,0.0,0.0,0.0,0.0,0.0,0.0,0.0,-1.4564,-1.3213,0.0,0.0,0.0,0.0,0.0,0.0,0.0,0.0,0.0,0.0,0.0,-2.181,-2.1979,0.0,0.0,0.0,0.0,0.0,0.0,0.0,0.0,0.0,0.0,0.0,0.0,-1.8701,-2.0387,-2.2893,-2.4213,-2.4198,-2.4198,-2.4172,-2.4145,-2.4166,-2.3223,-2.1121,0.0,0.0,0.0,0.0,0.0,0.0,0.0,0.0,0.0,0.0,0.0,0.0,0.0,0.0,0.0,0.0,0.0,0.0,0.0,0.0,0.0,0.0,0.0,0.0,0.0,-1.4039,0.0,0.0,0.0,0.0,0.0,0.0,0.0,0.0,0.0,0.0,0.0,-2.1014,-2.2699,-2.3643,-2.4342,-2.4832,-2.5086,-2.5593,0.0,0.0,0.0,0.0,0.0,0.0,0.0,0.0,0.0,0.0,0.0,0.0,0.0,0.0,-2.2256,-1.8587,-1.7491,-1.7268,-1.7689,0.0,0.0,0.0,0.0,0.0,0.0,0.0,0.0,0.0,0.0,0.0,0.0,0.0,0.0,-1.7592,-1.6813,-1.5783,0.0,0.0,0.0,0.0,0.0,0.0,0.0,0.0,-2.1735,-2.3431,-2.443,-2.4858,-2.4679,-2.3935,-2.3218,-2.0764,0.0,0.0,0.0,0.0,0.0,0.0,0.0,0.0,-1.9121,-2.0513,-2.2842,-2.4073,-2.4057,-2.4036,-2.4015,-2.3982,-2.4024,-2.3279,-2.1686,-1.978,-1.8199,0.0,0.0,0.0,0.0,0.0,0.0,0.0,0.0,0.0,0.0,0.0,0.0,0.0,0.0,0.0,0.0,0.0,0.0,0.0,0.0,0.0,0.0,0.0,-1.4441,0.0,0.0,0.0,0.0,0.0,0.0,0.0,0.0,0.0,-1.9536,-2.1259,-2.3036,-2.4475,-2.4633,-2.4635,-2.4677,0.0,0.0,0.0,0.0,0.0,0.0,0.0,-2.3992,-2.4219,-2.3802,-2.3926,-2.5339,-2.6604,-2.7244,-2.6693,0.0,0.0,-2.1884,-2.0755,-2.0522,-2.0954,-2.1265,-2.1557,-2.1785,-2.2299,-2.2718,0.0,0.0,0.0,0.0,-1.8362,0.0,0.0,0.0,-2.1433,-2.1551,0.0,-1.9747,0.0,0.0,0.0,0.0,-1.7512,-2.0035,0.0,0.0,-2.5103,-2.6294,-2.5786,-2.697,-2.6641,-2.4946,-2.6009,-2.497,-2.1975,-1.9429,0.0,0.0,0.0,0.0,0.0,0.0,-1.9567,-2.0858,-2.2684,-2.3631,-2.3616,-2.3616,-2.3631,-2.3616,-2.3739,-2.3522,-2.3026,-2.2313,-2.1042,-1.8985,-1.7227,0.0,0.0,0.0,0.0,0.0,0.0,0.0,0.0,0.0,0.0,0.0,0.0,0.0,0.0,0.0,0.0,0.0,0.0,0.0,0.0,-1.4796,0.0,0.0,0.0,0.0,0.0,0.0,0.0,0.0,0.0,-2.1597,-2.2412,-2.3628,-2.5015,-2.637,0.0,0.0,0.0,0.0,-2.5589,-2.432,-2.4921,-2.5552,-2.5658,-2.6186,-2.6806,-2.749,0.0,0.0,-2.851,-2.8809,-2.8615,-2.7079,-2.7457,-2.7603,-2.6722,-2.527,-2.4589,-2.5356,-2.5072,-2.4818,-2.5049,-2.6036,-2.6764,-2.48,0.0,0.0,0.0,0.0,-2.2557,-2.3511,-2.4966,-2.4687,-2.4125,-2.3313,-2.283,0.0,0.0,0.0,0.0,0.0,0.0,-2.3263,-2.3919,-2.5293,-2.6313,-2.7116,-2.7889,-2.7963,-2.7436,-2.7344,-2.6596,-2.5239,-2.4007,-2.1688,-1.8407,0.0,0.0,0.0,0.0,-2.0334,-2.1667,-2.3146,-2.3882,-2.3882,-2.3882,-2.3839,-2.3739,-2.3696,-2.3584,-2.3447,-2.2816,-2.2024,-2.0975,-1.9569,0.0,0.0,0.0,0.0,0.0,0.0,0.0,0.0,0.0,0.0,0.0,0.0,0.0,0.0,0.0,0.0,0.0,0.0,0.0,-1.5042,-1.566,-1.5676,0.0,0.0,0.0,0.0,0.0,0.0,0.0,0.0,0.0,-2.5964,-2.5203,-2.4643,0.0,0.0,-2.4795,-2.3833,-2.4873,-2.5957,-2.6603,-2.6496,0.0,-2.7826,-2.7453,-2.7057,-2.7255,-2.8695,-2.9902,-3.0082,-3.0717,-3.0959,-3.0137,-2.9732,-2.9255,-2.8455,-2.7497,-2.6938,-2.7254,-2.764,-2.7774,-2.7467,-2.7862,-2.8135,-2.7686,-2.5373,-2.4781,-2.5013,-2.5754,-2.5563,-2.6321,-2.768,-2.734,-2.6922,-2.6432,-2.6007,-2.4896,-2.3356,-2.2467,0.0,0.0,0.0,-2.4842,-2.5498,-2.6096,-2.6796,-2.7635,-2.8223,-2.8252,-2.7814,-2.768,-2.7185,-2.6257,-2.564,-2.3934,-2.1252,0.0,-1.9854,-1.9871,-2.0687,-2.1488,-2.2299,-2.3562,-2.4111,-2.3839,-2.3839,-2.3839,-2.3797,-2.3674,-2.3616,-2.3674,-2.3278,-2.2888,-2.253,-2.1287,-1.9514,0.0,0.0,0.0,0.0,0.0,0.0,0.0,0.0,0.0,0.0,0.0,-1.2246,-1.0528,0.0,0.0,0.0,-1.3629,-1.5299,-1.6901,-1.7128,0.0,0.0,0.0,0.0,0.0,0.0,0.0,-2.1969,-2.3867,-2.5715,-2.7273,-2.6539,-2.6031,-2.6623,-2.6471,-2.6014,-2.5253,0.0,-2.7148,-2.7722,-2.7706,-2.7943,-2.8824,-2.8663,-2.8493,-2.8836,-2.9968,-3.0993,-3.1329,-3.1733,-3.1765,-3.1268,-3.058,-2.9814,-2.9129,-2.8583,-2.8298,-2.8389,-2.8801,-2.9045,-2.8735,-2.8801,-2.89,-2.9657,-2.966,-2.7644,-2.7468,-2.8525,-2.8051,-2.8451,-2.9428,-2.9418,-2.968,-3.0009,-2.9,-2.8203,-2.7516,-2.5484,0.0,-2.5358,-2.585,-2.6347,-2.6863,-2.7353,-2.7542,-2.7536,-2.8137,-2.7857,-2.6804,-2.7399,-2.706,-2.5902,-2.5328,-2.4935,-2.4698,-2.3496,-2.2888,-2.2872,-2.2851,-2.287,-2.2882,-2.4014,-2.4306,-2.3699,-2.3684,-2.3719,-2.3782,-2.3674,-2.3638,-2.376,-2.3674,-2.3595,-2.3565,-2.254,-2.1061,-1.9103,0.0,0.0,0.0,0.0,0.0,0.0,0.0,0.0,0.0,0.0,0.0,0.0,0.0,0.0,0.0,-1.6378,0.0,-1.9353,-1.9092,0.0,0.0,0.0,-2.0448,-2.118,-2.2476,-2.3551,-2.4255,0.0,0.0,-2.7132,-2.7601,-2.8428,-2.9933,-2.9499,-2.8722,-2.7908,-2.845,-2.8824,-2.8162,-2.8687,-2.9162,-2.9331,-2.9778,-3.0418,-3.1131,-3.1804,-3.1969,-3.2143,-3.188,-3.1479,-3.0964,-3.0256,-2.9588,-2.9063,-2.8904,-2.8982,-2.895,-2.898,-2.9048,-2.9183,-2.9229,-2.9292,-3.0378,-3.0842,-2.9876,-2.977,-3.0267,-3.0606,-3.0725,-3.0618,-3.0581,-3.0411,-3.0074,-2.9836,-2.9405,-2.8843,-2.8294,-2.8158,-2.8302,-2.8433,-2.8294,-2.7994,-2.8111,-2.7941,-2.7536,-2.7689,-2.7591,-2.7321,-2.753,-2.7213,-2.6508,-2.634,-2.5835,-2.4906,-2.4123,-2.3606,-2.3422,-2.3392,-2.364,-2.4126,-2.4455,-2.453,-2.438,-2.435,-2.4133,-2.3668,-2.3616,-2.3616,-2.3653,-2.3616,-2.3595,-2.3595,-2.3332,-2.2508,-2.1075,-1.8,0.0,0.0,0.0,0.0,0.0,0.0,0.0,0.0,0.0,-1.5546,-1.282,0.0,-1.741,0.0,-1.8174,-1.9949,-2.1321,-2.1597,0.0,0.0,-2.2493,-2.2667,-2.3429,-2.4265,-2.4971,-2.5421,-2.6519,-2.749,-2.8229,-2.8412,-2.896,-3.0202,-2.958,-2.8722,-2.7976,-2.899,-2.9786,-2.9632,-3.0142,-3.0685,-3.0651,-3.0864,-3.1111,-3.1355,-3.1562,-3.1803,-3.2162,-3.172,-3.1156,-3.0666,-2.9948,-2.9301,-2.8771,-2.8694,-2.8767,-2.894,-2.8987,-2.9017,-2.9067,-2.9185,-2.9314,-3.0442,-3.0824,-3.0808,-3.0792,-3.0735,-3.1173,-3.1345,-3.1352,-3.1091,-3.0803,-3.0516,-3.0516,-3.0333,-3.0045,-3.0032,-2.9902,-2.9666,-2.9666,-2.934,-2.8778,-2.8538,-2.8203,-2.7902,-2.762,-2.7503,-2.7477,-2.7292,-2.7032,-2.6685,-2.6431,-2.5981,-2.537,-2.4997,-2.4601,-2.4181,-2.3655,-2.3635,-2.4141,-2.4455,-2.4754,-2.5023,-2.4754,-2.4276,-2.3625,-2.3325,-2.3041,-2.2757,-2.2757,-2.2757,-2.2742,-2.2757,-2.2308,-2.1276,-1.8939,-1.7191,0.0,0.0,0.0,0.0,0.0,0.0,0.0,0.0,0.0,0.0,0.0,-1.9557,-1.9074,-2.0615,-2.2158,-2.3409,-2.3729,-2.4129,-2.4828,-2.4972,-2.5181,-2.5654,-2.6283,-2.6769,-2.6992,-2.7743,-2.843,-2.882,-2.9065,-2.9495,-3.0369,-3.0019,-2.9597,-2.9445,-3.0072,-3.0598,-3.0615,-3.0937,-3.119,-3.119,-3.1249,-3.1274,-3.1295,-3.1445,-3.1567,-3.1443,-3.0907,-3.0274,-2.9801,-2.9113,-2.8557,-2.8398,-2.836,-2.8469,-2.8731,-2.8822,-2.887,-2.8964,-2.9089,-2.9163,-3.0216,-3.0261,-3.0892,-3.1021,-3.0834,-3.0876,-3.1174,-3.1549,-3.1091,-3.0882,-3.0882,-3.096,-3.1024,-3.1024,-3.1024,-3.0712,-3.0218,-3.0205,-2.9941,-2.9366,-2.8843,-2.8529,-2.836,-2.7876,-2.7568,-2.7477,-2.7027,-2.6784,-2.668,-2.6177,-2.5823,-2.5697,-2.5619,-2.531,-2.4766,-2.3607,-2.3236,-2.3644,-2.4387,-2.4967,-2.5452,-2.4902,-2.4231,-2.3505,-2.2972,-2.2347,-2.168,-2.1675,-2.169,-2.162,-2.1675,-2.147,-2.0942,-1.9597,-1.8375,0.0,-1.5962,0.0,0.0,0.0,0.0,0.0,0.0,0.0,0.0,-2.1411,-2.2209,-2.2906,-2.3625,-2.4518,-2.5588,-2.5758,-2.6057,-2.6618,-2.7165,-2.7534,-2.755,-2.8057,-2.8411,-2.8411,-2.8771,-2.8997,-2.8989,-2.9387,-2.9793,-3.0182,-3.0201,-3.027,-3.0848,-3.1027,-3.114,-3.119,-3.119,-3.119,-3.119,-3.121,-3.1252,-3.1312,-3.1445,-3.1264,-3.0691,-3.0006,-2.9366,-2.8844,-2.822,-2.7795,-2.7992,-2.8061,-2.8174,-2.8469,-2.8576,-2.8706,-2.8929,-2.9017,-2.8987,-3.0216,-3.0216,-3.0352,-3.1018,-3.1915,-3.1538,-3.1004,-3.0414,-3.0309,-3.0257,-3.0333,-3.0777,-3.1024,-3.1024,-3.1024,-3.0921,-3.083,-3.083,-3.0516,-2.9944,-2.9813,-2.9301,-2.8399,-2.8268,-2.7968,-2.7516,-2.7385,-2.7131,-2.6706,-2.6588,-2.6044,-2.5173,-2.4669,-2.4334,-2.4123,0.0,0.0,0.0,-2.4953,-2.5296,-2.4888,-2.4688,-2.4051,-2.2927,-2.2763,0.0,-2.1272,-2.152,-2.154,-2.1228,-2.152,0.0,0.0,0.0,0.0,0.0,0.0,0.0,0.0,0.0,0.0,0.0,-2.2633,-2.2558,-2.204,-2.4092,-2.5725,-2.6395,-2.7534,-2.8134,-2.7834,-2.831,-2.8458,-2.8073,-2.815,-2.8211,-2.8227,-2.8334,-2.8411,-2.8411,-2.8493,-2.8541,-2.8573,-2.8636,-2.8865,-2.9373,-2.9371,-2.955,-3.0049,-3.0733,-3.1151,-3.119,-3.1171,-3.119,-3.119,-3.1252,-3.131,-3.1443,-3.1521,-3.1306,-3.0693,-2.9971,-2.9248,-2.857,-2.7878,-2.745,-2.7713,-2.7771,-2.7855,-2.8129,-2.8417,-2.8694,-2.8929,-2.8987,-2.8987,-3.0758,-3.0758,-3.1104,-3.1676,0.0,-3.2105,-3.1597,-3.0936,-3.0936,-3.0792,-3.0581,-3.0856,-3.1024,-3.1011,-3.0686,-3.0568,-3.0555,-3.0268,-3.015,-3.0087,-2.9836,-2.9549,-2.9235,-2.866,-2.8229,-2.7941,-2.7667,-2.7379,-2.7105,-2.7105,-2.6661,-2.5842,-2.5511,-2.5244,-2.4874,-2.4074,-2.3803,-2.4044,-2.4859,-2.526,-2.5232,-2.4912,-2.4269,-2.3328,-2.2973,0.0,0.0,0.0,0.0,0.0,0.0,0.0,0.0,0.0,0.0,-2.2154,-2.124,-2.1124,-2.2119,-2.2586,-2.3568,-2.5288,-2.6388,-2.6543,-2.5389,-2.7196,-2.8519,-2.8849,-2.952,-2.9756,-2.9433,-2.972,-2.974,-2.9402,-2.9104,-2.8904,-2.8849,-2.8611,-2.8411,-2.8411,-2.8411,-2.8411,-2.8411,-2.8411,-2.8752,-2.9423,-2.9303,-2.94,-3.0125,-3.039,-3.0555,-3.0818,-3.1075,-3.119,-3.119,-3.1213,-3.1271,-3.1329,-3.1117,-3.0646,-3.0035,-2.9351,-2.8663,-2.794,-2.7474,-2.736,-2.745,-2.7511,-2.7567,-2.7826,-2.8037,-2.8313,-2.8694,-2.8905,-2.8987,-3.1306,-3.135,-3.2008,-3.2443,-3.2675,-3.2688,-3.2444,-3.2098,-3.1784,0.0,0.0,-3.1024,-3.1024,-3.0947,-3.049,-3.0244,-3.0218,-2.9784,-2.9823,-3.0218,-2.9797,-2.9784,-3.0035,-2.9144,-2.8616,-2.836,-2.7889,-2.7594,-2.7503,-2.7503,-2.7268,-2.6889,-2.6771,-2.6386,-2.5837,-2.5354,-2.4902,-2.4445,-2.4639,-2.5032,-2.5577,-2.5029,-2.4397,-2.3744,-2.3178,-2.2325,-2.1121,-2.1583,-2.1435,-2.049,-2.1843,-2.2476,-2.2125,-2.3062,-2.3688,-2.3785,-2.4014,-2.4418,-2.5083,-2.585,-2.6892,-2.8228,-2.9459,-2.9783,-2.8912,-2.9889,-3.0606,-3.0714,-3.0729,-3.0694,-3.0612,-3.0571,-3.0509,-3.0417,-2.9894,-2.9541,-2.9387,-2.895,-2.8581,-2.8442,-2.8411,-2.8411,-2.8411,-2.8411,-2.8788,-2.9617,-2.9478,-2.9437,-3.0231,-3.0119,-2.9989,-3.033,-3.072,-3.1055,-3.1075,-3.1171,-3.119,-3.1215,-3.0679,-2.9985,-2.9428,-2.875,-2.8047,-2.7566,-2.7304,-2.7266,-2.7315,-2.733,-2.7376,-2.76,-2.7672,-2.7858,-2.8378,-2.8725,-2.8947,-3.1306,-3.135,-3.2021,-3.2667,-3.3271,-3.3271,-3.3306,-3.3221,-3.1757,-3.1065,-3.1024,-3.1024,-3.1024,-3.1024,-3.0908,-3.0869,-3.0856,-3.079,-3.079,-3.0869,-3.0777,-3.0529,-3.01,-2.9931,-2.9353,-2.8459,-2.8294,-2.8007,-2.7542,-2.7503,-2.7451,-2.7353,-2.6922,-2.6399,-2.5832,-2.5715,-2.5646,-2.5542,-2.4615,-2.4381,-2.4924,-2.4333,-2.3716,-2.3094,-2.2986,-2.2387,-2.1328,-2.168,-2.1659,-2.1189,-2.1706,-2.2244,-2.2754,-2.345,-2.4002,-2.4573,-2.5577,-2.6467,-2.7111,-2.7809,-2.8832,-3.0214,-3.0697,-3.0794,-3.0654,-3.0899,-3.1316,-3.1867,-3.202,-3.1874,-3.1351,-3.1243,-3.1043,-3.0551,-3.0325,-3.0033,-2.9541,-2.9341,-2.9033,-2.8519,-2.8411,-2.8427,-2.8411,-2.8411,-2.8667,-2.9311,-2.9503,-2.9463,-2.9612,-2.9734,-2.9814,-2.9946,-3.0309,-3.0559,-3.0679,-3.0958,-3.1086,-3.1276,-3.0613,-3.002,-3.0026,-2.8971,-2.8169,-2.8048,-2.7601,-2.7288,-2.7318,-2.7315,-2.733,-2.739,-2.7542,-2.7786,-2.8134,-2.8443,-2.8713,-3.1845,-3.1977,-3.3006,-3.3615,-3.3937,-3.3937,-3.3962,-3.394,-3.2881,-3.2032,-3.147,-3.1444,-3.1274,-3.096,-3.066,-3.0529,-3.0516,-3.0202,-3.0228,-3.0516,-3.0529,-3.0555,-3.0568,-3.0244,-2.9813,-2.9314,-2.8673,-2.8255,-2.7981,-2.7659,-2.7503,-2.7477,-2.7249,-2.7,-2.672,-2.6438,-2.6438,-2.6667,-2.5555,-2.5097,-2.5349,-2.5079,-2.4791,-2.4494,-2.4213,-2.3835,-2.3334,-2.3486,-2.3339,-2.2829,-2.3892,-2.4491,-2.4504,-2.5362,-2.5982,-2.6264,-2.6807,-2.7285,-2.7559,-2.8528,-2.9513,-3.0541,-3.1032,-3.1317,-3.1445,-3.1609,-3.1925,-3.2256,-3.237,-3.2275,-3.1967,-3.1921,-3.1797,-3.1536,-3.1182,-3.0828,-3.052,-3.0135,-2.9704,-2.9089,-2.8965,-2.8787,-2.8458,-2.8411,-2.8658,-2.9279,-2.9648,-2.9787,-2.9464,-2.9488,-2.9524,-2.9473,-2.9815,-3.0187,-3.0423,-3.0292,-3.0365,-3.0601,-2.9656,-2.92,-2.9441,-2.8678,-2.8356,-2.8561,-2.8117,-2.774,-2.777,-2.7442,-2.7286,-2.7315,-2.7392,-2.7567,-2.7826,-2.8242,-2.8651,-3.2401,-3.2661,-3.3882,-3.4397,-3.4397,-3.4397,-3.4397,-3.4358,-3.394,-3.3195,-3.2241,-3.1941,-3.1549,-3.1143,-3.0568,-3.0296,-3.0268,-2.9876,-2.9915,-3.027,-3.0283,-3.0555,-3.0908,-3.0516,-3.0218,-3.0022,-2.9196,-2.8712,-2.8529,-2.7994,-2.762,-2.7516,-2.7503,-2.7503,-2.749,-2.7092,-2.7079,-2.7411,-2.6628,-2.6119,-2.602,-2.5871,-2.578,-2.5754,-2.5393,-2.5201,-2.5188,-2.5188,-2.4979,-2.4583,-2.5784,-2.6294,-2.588,-2.6795,-2.7397,-2.7397,-2.764,-2.7869,-2.8082,-2.8937,-2.972,-3.0211,-3.0748,-3.1117,-3.1336,-3.1523,-3.1879,-3.2259,-3.2398,-3.2398,-3.2367,-3.2367,-3.2398,-3.2367,-3.1936,-3.1536,-3.1351,-3.0936,-3.0371,-2.9756,-2.9494,-2.9171,-2.8781,-2.8627,-2.8935,-2.9571,-2.9971,-2.991,-2.9494,-2.9319,-2.9091,-2.9101,-2.9325,-2.9614,-2.9932,-2.9613,-2.9479,-2.975,-2.8839,-2.8708,-2.9016,-2.8789,-2.8592,-2.9085,-2.8799,-2.8425,-2.8357,-2.7859,-2.7514,-2.7529,-2.7438,-2.739,-2.7686,-2.8093,-2.8563,-3.2661,-3.3386,-3.4105,-3.4397,-3.4397,-3.4397,-3.4397,-3.4397,-3.4332,-3.4005,-3.3339,-3.2267,-3.1797,-3.1654,-3.1156,-3.0908,-3.0882,-3.0843,-3.083,-3.0869,-3.0908,-3.0934,-3.1024,-3.0921,-3.0634,-3.0153,-2.9944,-2.9591,-2.9183,-2.8595,-2.8046,-2.7555,-2.7503,-2.7516,-2.749,-2.7438,-2.7438,-2.749,-2.7385,-2.7118,-2.6627,-2.6086,-2.578,-2.578,-2.5741,-2.5715,-2.5785,-2.5733,-2.5702,-2.5649,-2.5803,-2.5874,-2.5883,-2.6434,-2.6782,-2.6853,-2.7806,-2.8685,-2.9234,-2.9423,-2.9513,-2.9583,-2.9659,-2.9858,-3.0011,-3.0056,-3.0674,-3.1779,-3.2272,-3.2287,-3.2398,-3.237,-3.2342,-3.2342,-3.2305,-3.2059,-3.1563,-3.1378,-3.1043,-3.0386,-2.9817,-2.9381,-2.9248,-2.9181,-2.9479,-3.0002,-2.9787,-2.9571,-2.9402,-2.9027,-2.8642,-2.8611,-2.8873,-2.8896,-2.8636,-2.8662,-2.8672,-2.8796,-2.8586,-2.8699,-2.9265,-2.936,-2.9165,-2.9797,-2.9492,-2.907,-2.8954,-2.8579,-2.8048,-2.7876,-2.7648,-2.7392,-2.7642,-2.794,-2.8255,-3.2717,-3.3484,-3.4147,-3.4397,-3.4397,-3.4397,-3.4397,-3.4397,-3.4397,-3.4267,-3.3992,-3.3221,-3.2502,-3.1784,-3.1562,-3.1326,-3.0999,-3.1024,-3.1024,-3.1024,-3.1024,-3.1024,-3.1024,-3.1024,-3.0843,-3.062,-3.027,-2.9983,-2.9719,-2.9196,-2.8621,-2.8098,-2.8033,-2.7863,-2.7529,-2.7503,-2.7503,-2.7503,-2.7503,-2.7372,-2.7183,-2.6929,-2.6798,-2.6772,-2.6504,-2.6504,-2.672,-2.6517,-2.6478,-2.6759,-2.6798,-2.6811,-2.6798,-2.7057,-2.7173,-2.7218,-2.7616,-2.8005,-2.8293,-2.868,-2.8903,-2.8903,-2.9268,-2.9597,-2.978,-3.0092,-3.0518,-3.0807,-3.094,-3.1057,-3.1276,-3.1536,-3.1764,-3.1964,-3.2231,-3.2275,-3.2044,-3.1982,-3.1736,-3.1074,-3.0412,-2.9817,-2.9443,-2.9033,-2.915,-2.9633,-2.951,-2.9356,-2.9356,-2.9141,-2.8858,-2.8528,-2.8573,-2.8521,-2.8151,-2.7407,-2.7336,-2.7361,-2.7039,-2.7243,-2.8754,-2.9007,-2.9072,-3.048,-3.0076,-2.9724,-2.9785,-2.8816,-2.8066,-2.798,-2.7702,-2.7345,-2.7434,-2.7672,-2.7897,-3.3018,-3.3683,-3.4202,-3.4397,-3.4397,-3.4397,-3.4397,-3.4397,-3.4397,-3.4397,-3.4358,-3.3979,-3.326,-3.2346,-3.2124,-3.1771,-3.1274,-3.1222,-3.113,-3.1013,-3.1024,-3.1024,-3.1024,-3.1024,-3.1024,-3.0921,-3.0568,-3.0257,-3.0087,-2.9745,-2.9209,-2.8712,-2.8656,-2.8425,-2.8059,-2.802,-2.8007,-2.7986,-2.7973,-2.8007,-2.802,-2.8007,-2.7863,-2.7503,-2.7131,-2.7118,-2.7464,-2.7118,-2.7092,-2.7464,-2.7503,-2.7503,-2.7503,-2.7503,-2.7503,-2.7516,-2.7646,-2.7725,-2.7771,-2.8199,-2.8544,-2.8724,-2.9171,-2.9481,-2.9693,-3.0025,-3.01,-2.9909,-2.9802,-2.9982,-3.0343,-3.0659,-3.0999,-3.1335,-3.1709,-3.1892,-3.1949,-3.202,-3.1766,-3.132,-3.0769,-3.0287,-2.9684,-2.9027,-2.8719,-2.9304,-2.9233,-2.9135,-2.911,-2.9064,-2.8904,-2.8449,-2.8273,-2.8085,-2.7847,-2.7265,-2.6556,-2.6352,-2.6274,-2.6758,-2.801,-2.8319,-2.8784,-3.0057,-3.0132,-3.0224,-3.0095,-2.9173,-2.8015,-2.7844,-2.7532,-2.7218,-2.7264,-2.7432,-2.7522,-3.3738,-3.4314,-3.4397,-3.4397,-3.4397,-3.4397,-3.4397,-3.4397,-3.4397,-3.4397,-3.4397,-3.4358,-3.4031,-3.3456,-3.2934,-3.2346,-3.1823,-3.1732,-3.1458,-3.1065,-3.0999,-3.1024,-3.1024,-3.1024,-3.1024,-3.1024,-3.0921,-3.0647,-3.0166,-3.0074,-2.9797,-2.931,-2.9235,-2.9222,-2.9104,-2.9078,-2.917,-2.9065,-2.9114,-2.9179,-2.9144,-2.9157,-2.8621,-2.7699,-2.7477,-2.749,-2.7516,-2.7477,-2.7464,-2.7503,-2.7529,-2.7529,-2.7516,-2.7542,-2.7581,-2.7607,-2.8059,-2.8347,-2.8347,-2.8415,-2.8681,-2.9131,-2.9263,-2.9307,-2.9363,-2.9495,-2.9495,-2.9355,-2.9429,-2.9626,-2.9935,-3.0123,-3.031,-3.0612,-3.0644,-3.0852,-3.1087,-3.1204,-3.1087,-3.1026,-3.0819,-3.0455,-3.0247,-2.9202,-2.8858,-2.9058,-2.8858,-2.8504,-2.855,-2.8519,-2.8473,-2.8334,-2.7965,-2.7457,-2.7442,-2.7071,-2.6854,-2.6498,-2.6404,-2.7074,-2.7838,-2.8517,-2.9087,-2.9696,-3.0079,-3.0253,-3.0255,-2.9585,-2.8401,-2.7777,-2.7265,-2.7024,-2.7121,-2.7103,-2.7214,-3.3781,-3.4397,-3.4397,-3.4397,-3.4397,-3.4397,-3.4397,-3.4397,-3.4397,-3.4397,-3.4397,-3.4397,-3.4293,-3.4097,-3.3888,-3.3273,-3.2398,-3.198,-3.1693,-3.1496,-3.1156,-3.1024,-3.1024,-3.1024,-3.1024,-3.1024,-3.1024,-3.0882,-3.0712,-3.0686,-3.0348,-2.9915,-2.9836,-2.9666,-2.9388,-2.931,-2.931,-2.9323,-2.931,-2.931,-2.9349,-2.931,-2.9052,-2.8673,-2.8268,-2.8072,-2.8072,-2.7732,-2.7503,-2.7503,-2.7876,-2.8072,-2.8111,-2.8451,-2.8647,-2.866,-2.8856,-2.8983,-2.8996,-2.8996,-2.9026,-2.9235,-2.931,-2.9349,-2.934,-2.9588,-2.968,-2.9431,-2.9653,-2.9795,-2.9625,-2.9845,-3.0235,-3.0551,-3.0725,-3.0777,-3.097,-3.0999,-3.0999,-3.0969,-3.0798,-3.0365,-2.9591,-2.9134,-2.8972,-2.8781,-2.855,-2.8403,-2.8411,-2.8411,-2.8411,-2.8381,-2.8211,-2.8027,-2.8042,-2.7196,-2.6556,-2.6024,-2.5905,-2.6465,-2.7162,-2.7602,-2.8121,-2.9236,-2.9811,-2.9928,-2.9777,-2.9148,-2.8117,-2.7335,-2.6842,-2.6925,-2.704,-2.7039,-2.7087,-3.3979,-3.4356,-3.4397,-3.4397,-3.4397,-3.4397,-3.4397,-3.4397,-3.4397,-3.4397,-3.4397,-3.4397,-3.4397,-3.4397,-3.4397,-3.4018,-3.3234,-3.2672,-3.2176,-3.1797,-3.1393,-3.1169,-3.1037,-3.1024,-3.1024,-3.1024,-3.1024,-3.1024,-3.1024,-3.1024,-3.0777,-3.0424,-3.0375,-3.0241,-2.9876,-2.9823,-2.9836,-2.9872,-2.9836,-2.9872,-2.9872,-2.9823,-2.9823,-2.9771,-2.9467,-2.9026,-2.8734,-2.8294,-2.8098,-2.815,-2.8464,-2.8708,-2.8747,-2.9235,-2.9483,-2.9327,-2.9457,-2.9549,-2.9549,-2.9549,-2.964,-2.9823,-2.9836,-2.9872,-2.9899,-3.0189,-3.0176,-3.0019,-3.0137,-3.0215,-3.0003,-3.0137,-3.0251,-3.0192,-3.0208,-3.0282,-3.0388,-3.0463,-3.0583,-3.0645,-3.0396,-2.9794,-2.9062,-2.8936,-2.8611,-2.8065,-2.8073,-2.8201,-2.8201,-2.8323,-2.8411,-2.8411,-2.8396,-2.8334,-2.8304,-2.7734,-2.7149,-2.6618,-2.6233,-2.6523,-2.6623,-2.6973,-2.7545,-2.8682,-2.9227,-2.9311,-2.9053,-2.8487,-2.774,-2.6875,-2.6775,-2.6859,-2.6925,-2.6958,-2.7007,-3.4397,-3.4397,-3.4397,-3.4397,-3.4397,-3.4397,-3.4397,-3.4397,-3.4397,-3.4397,-3.4397,-3.4397,-3.4397,-3.4397,-3.4397,-3.4358,-3.4162,-3.3718,-3.2921,-3.1941,-3.1771,-3.147,-3.1037,-3.1024,-3.1024,-3.1024,-3.1024,-3.1024,-3.1024,-3.1024,-3.0947,-3.0947,-3.0908,-3.0843,-3.0934,-3.0817,-3.0919,-3.0843,-3.0803,-3.0869,-3.1011,-3.0895,-3.0908,-3.0934,-3.0908,-3.0477,-2.947,-2.9375,-2.9323,-2.9287,-2.9388,-2.9362,-2.9598,-3.0006,-2.9993,-2.9745,-2.9941,-3.0153,-3.0192,-3.0244,-3.0568,-3.0882,-3.0986,-3.1037,-3.1013,-3.0986,-3.096,-3.0921,-3.0947,-3.096,-3.0893,-3.0738,-3.0232,-2.9186,-2.9154,-2.9114,-2.9263,-2.946,-2.9789,-3.0088,-2.9852,-2.9349,-2.9034,-2.8811,-2.8287,-2.7713,-2.7709,-2.7866,-2.7831,-2.8063,-2.8323,-2.8339,-2.8363,-2.8372,-2.8372,-2.831,-2.7934,-2.7534,-2.725,-2.7172,-2.6916,-2.7069,-2.7433,-2.8341,-2.8832,-2.8914,-2.8228,-2.7656,-2.7145,-2.6519,-2.6636,-2.6691,-2.6691,-2.6742,-2.6909,-3.4397,-3.4397,-3.4397,-3.4397,-3.4397,-3.4397,-3.4397,-3.4397,-3.4397,-3.4397,-3.4397,-3.4397,-3.4397,-3.4397,-3.4397,-3.4397,-3.4384,-3.4175,-3.3522,-3.2515,-3.2006,-3.1536,-3.1104,-3.1037,-3.1024,-3.1024,-3.1024,-3.1024,-3.1024,-3.1024,-3.1024,-3.1024,-3.1024,-3.1024,-3.1024,-3.1024,-3.1024,-3.1024,-3.1024,-3.1024,-3.1039,-3.1378,-3.1575,-3.1614,-3.194,-3.1954,-3.1614,-3.0882,-3.0514,-3.0464,-3.083,-3.1222,-3.1561,-3.1797,-3.181,-3.1679,-3.1784,-3.1901,-3.1888,-3.1862,-3.1888,-3.2097,-3.2136,-3.2163,-3.2097,-3.1771,-3.1549,-3.1536,-3.1536,-3.1575,-3.1483,-3.114,-3.0655,-3.014,-2.9524,-2.9157,-2.9239,-2.9288,-2.9303,-2.9481,-2.9775,-2.975,-2.9407,-2.9114,-2.8812,-2.7915,-2.7909,-2.7884,-2.7516,-2.7775,-2.78,-2.761,-2.7925,-2.8186,-2.8063,-2.8113,-2.8075,-2.7847,-2.7687,-2.7442,-2.7226,-2.7288,-2.7626,-2.7889,-2.838,-2.8248,-2.7543,-2.7064,-2.6658,-2.6246,-2.6213,-2.6276,-2.6383,-2.6504,-2.6674,-3.4397,-3.4397,-3.4397,-3.4397,-3.4397,-3.4397,-3.4397,-3.4397,-3.4397,-3.4397,-3.4397,-3.4397,-3.4397,-3.4397,-3.4397,-3.4397,-3.4397,-3.4397,-3.3901,-3.3091,-3.2698,-3.2176,-3.1627,-3.1378,-3.1156,-3.1013,-3.1024,-3.1024,-3.1024,-3.1024,-3.1024,-3.1024,-3.1024,-3.1024,-3.1024,-3.1037,-3.1065,-3.1261,-3.1326,-3.1392,-3.164,-3.1967,-3.2111,-3.2202,-3.2712,-3.3012,-3.2986,-3.2489,-3.2045,-3.1757,-3.198,-3.2333,-3.2659,-3.2646,-3.2672,-3.2672,-3.2672,-3.2646,-3.2672,-3.2581,-3.2672,-3.2672,-3.2672,-3.2672,-3.262,-3.2306,-3.2137,-3.2111,-3.2124,-3.2111,-3.2097,-3.1875,-3.1479,-3.1064,-3.0099,-2.9551,-2.9408,-2.9121,-2.8949,-2.9053,-2.9435,-2.945,-2.9176,-2.92,-2.9088,-2.822,-2.8112,-2.7973,-2.7527,-2.7639,-2.751,-2.7373,-2.7494,-2.7635,-2.7585,-2.78,-2.8113,-2.8058,-2.7937,-2.7672,-2.7426,-2.7703,-2.8027,-2.798,-2.83,-2.7968,-2.734,-2.7141,-2.6802,-2.6382,-2.5951,-2.6057,-2.6224,-2.6278,-2.6419,-3.4397,-3.4397,-3.4397,-3.4397,-3.4397,-3.4397,-3.4397,-3.4397,-3.4397,-3.4397,-3.4397,-3.4397,-3.4397,-3.4397,-3.4397,-3.4397,-3.4397,-3.4397,-3.4162,-3.3744,-3.3509,-3.3182,-3.2515,-3.2071,-3.1627,-3.1169,-3.1104,-3.1039,-3.1024,-3.1024,-3.1024,-3.1024,-3.1065,-3.1052,-3.1143,-3.1078,-3.1444,-3.1797,-3.185,-3.2136,-3.2568,-3.2645,-3.2619,-3.2645,-3.3084,-3.3327,-3.3312,-3.3519,-3.3528,-3.2907,-3.2829,-3.2894,-3.2842,-3.279,-3.2894,-3.2934,-3.2816,-3.2894,-3.2855,-3.2973,-3.2934,-3.296,-3.2973,-3.2777,-3.2921,-3.2855,-3.2751,-3.2738,-3.2751,-3.2751,-3.2738,-3.2698,-3.2385,-3.1718,-3.0547,-2.9739,-2.9329,-2.8901,-2.8717,-2.866,-2.8849,-2.8906,-2.8457,-2.8677,-2.8493,-2.8147,-2.8182,-2.8068,-2.772,-2.7692,-2.7686,-2.7545,-2.7365,-2.7277,-2.7307,-2.7418,-2.771,-2.7755,-2.7822,-2.7843,-2.7726,-2.8042,-2.8227,-2.8181,-2.8088,-2.7696,-2.7365,-2.7203,-2.6826,-2.6299,-2.6086,-2.6056,-2.6211,-2.6424,-2.6412,-3.4397,-3.4397,-3.4397,-3.4397,-3.4397,-3.4397,-3.4397,-3.4397,-3.4397,-3.4397,-3.4397,-3.4397,-3.4397,-3.4397,-3.4397,-3.4397,-3.4397,-3.4397,-3.4371,-3.4214,-3.4188,-3.3587,-3.2855,-3.2542,-3.2163,-3.1654,-3.1601,-3.1405,-3.1013,-3.1116,-3.1089,-3.105,-3.1444,-3.1614,-3.1615,-3.1993,-3.2293,-3.245,-3.2476,-3.2542,-3.2671,-3.2645,-3.2554,-3.2577,-3.263,-3.2669,-3.2664,-3.2746,-3.3301,-3.3936,-3.3953,-3.3953,-3.3792,-3.3792,-3.3753,-3.3725,-3.3806,-3.3873,-3.3873,-3.386,-3.3914,-3.394,-3.3796,-3.394,-3.394,-3.3561,-3.3391,-3.3352,-3.3352,-3.3352,-3.3352,-3.3339,-3.2894,-3.1901,-3.0799,-2.9776,-2.9032,-2.8751,-2.8679,-2.8383,-2.8549,-2.8561,-2.8561,-2.8673,-2.8713,-2.8332,-2.8334,-2.8419,-2.8025,-2.7982,-2.8062,-2.7531,-2.727,-2.7128,-2.7083,-2.717,-2.7276,-2.7342,-2.759,-2.7963,-2.8036,-2.8273,-2.835,-2.835,-2.8288,-2.8004,-2.7611,-2.7349,-2.6807,-2.6461,-2.6496,-2.6619,-2.6796,-2.6969,-2.6801,-3.4397,-3.4397,-3.4397,-3.4397,-3.4397,-3.4397,-3.4397,-3.4397,-3.4397,-3.4397,-3.4397,-3.4397,-3.4397,-3.4397,-3.4397,-3.4397,-3.4397,-3.4397,-3.4397,-3.4397,-3.4384,-3.3888,-3.3247,-3.3064,-3.2764,-3.2254,-3.2163,-3.2032,-3.1784,-3.1705,-3.1705,-3.1784,-3.2019,-3.2137,-3.2215,-3.2489,-3.2842,-3.3012,-3.3077,-3.3156,-3.339,-3.3059,-3.2895,-3.2815,-3.2567,-3.2302,-3.2289,-3.2302,-3.2692,-3.339,-3.3742,-3.3839,-3.3573,-3.3839,-3.3839,-3.3573,-3.3518,-3.3602,-3.3924,-3.3979,-3.4147,-3.4249,-3.4228,-3.4214,-3.4214,-3.3914,-3.3626,-3.3901,-3.3927,-3.3927,-3.3888,-3.3744,-3.3169,-3.2319,-3.1354,-3.0348,-2.9248,-2.8881,-2.8588,-2.8345,-2.8325,-2.8406,-2.8406,-2.8683,-2.8743,-2.8671,-2.873,-2.861,-2.834,-2.842,-2.8295,-2.7769,-2.7414,-2.7312,-2.7161,-2.7161,-2.698,-2.7015,-2.7214,-2.7675,-2.8063,-2.8299,-2.8387,-2.8387,-2.8387,-2.8304,-2.795,-2.7673,-2.7473,-2.7249,-2.7221,-2.7061,-2.7099,-2.7358,-2.719,-3.4397,-3.4397,-3.4397,-3.4397,-3.4397,-3.4397,-3.4397,-3.4397,-3.4397,-3.4397,-3.4397,-3.4397,-3.4397,-3.4397,-3.4397,-3.4397,-3.4397,-3.4397,-3.4397,-3.4397,-3.4371,-3.4084,-3.3744,-3.3666,-3.3339,-3.2868,-3.279,-3.2685,-3.2489,-3.2528,-3.2514,-3.233,-3.2421,-3.2498,-3.2429,-3.2668,-3.3102,-3.3411,-3.3461,-3.363,-3.3749,-3.3246,-3.2802,-3.2685,-3.2122,-3.1865,-3.1909,-3.1952,-3.2052,-3.2096,-3.2846,-3.2932,-3.2531,-3.2975,-3.2975,-3.2575,-3.2562,-3.2747,-3.3159,-3.33,-3.3513,-3.3817,-3.3636,-3.3643,-3.3843,-3.3571,-3.3565,-3.4046,-3.4249,-3.4228,-3.4254,-3.3914,-3.3404,-3.279,-3.2202,-3.1419,-3.0427,-2.9261,-2.8486,-2.8381,-2.8225,-2.8066,-2.8112,-2.8341,-2.8638,-2.8538,-2.8702,-2.8685,-2.8532,-2.8527,-2.833,-2.7943,-2.7719,-2.7593,-2.7371,-2.7143,-2.6892,-2.6734,-2.6881,-2.724,-2.78,-2.8063,-2.8226,-2.8314,-2.8299,-2.8348,-2.8319,-2.8119,-2.7965,-2.785,-2.7682,-2.7296,-2.701,-2.7469,-2.7536,-3.4397,-3.4397,-3.4397,-3.4397,-3.4397,-3.4397,-3.4397,-3.4397,-3.4397,-3.4397,-3.4397,-3.4397,-3.4397,-3.4397,-3.4397,-3.4397,-3.4397,-3.4397,-3.4397,-3.4397,-3.4397,-3.4358,-3.4173,-3.4092,-3.386,-3.3468,-3.3404,-3.3129,-3.2749,-3.2269,-3.1964,-3.1947,-3.2,-3.1788,-3.1951,-3.2726,-3.3266,-3.3432,-3.342,-3.3445,-3.328,-3.2469,-3.1869,-3.1725,-3.1104,-3.0746,-3.0656,-3.0656,-3.0656,-3.0958,-3.1745,-3.2314,-3.2215,-3.2401,-3.2401,-3.2215,-3.2215,-3.2302,-3.2488,-3.2531,-3.2575,-3.2809,-3.2757,-3.261,-3.2703,-3.2811,-3.302,-3.3508,-3.3713,-3.3879,-3.4113,-3.386,-3.352,-3.318,-3.2802,-3.2398,-3.1862,-3.0333,-2.9144,-2.8564,-2.8075,-2.7636,-2.7683,-2.798,-2.8243,-2.8341,-2.8509,-2.8648,-2.8648,-2.8634,-2.8429,-2.8113,-2.8074,-2.7894,-2.7471,-2.7199,-2.6792,-2.6576,-2.6635,-2.6683,-2.7244,-2.7675,-2.7775,-2.7989,-2.8226,-2.825,-2.8275,-2.8396,-2.8196,-2.8165,-2.8119,-2.7873,-2.772,-2.7938,-2.7876,-3.3628,-3.3937,-3.3937,-3.4105,-3.4356,-3.4397,-3.4397,-3.4397,-3.4397,-3.4397,-3.4397,-3.4397,-3.4397,-3.4397,-3.4397,-3.4397,-3.4397,-3.4397,-3.4189,-3.3979,-3.3894,-3.3713,-3.3445,-3.3475,-3.3365,-3.3386,-3.311,-3.281,-3.2465,-3.2168,-3.2047,-3.1984,-3.1846,-3.197,-3.1865,-3.2537,-3.2796,-3.2864,-3.2889,-3.2902,-3.2686,-3.1857,-3.1026,-3.0802,-3.0397,-3.0216,-3.0261,-3.0261,-3.0216,-3.0385,-3.0913,-3.1303,-3.1392,-3.1625,-3.1669,-3.1347,-3.1303,-3.1536,-3.1713,-3.1845,-3.1965,-3.2258,-3.2074,-3.2099,-3.2117,-3.2164,-3.2292,-3.2719,-3.2945,-3.3123,-3.3382,-3.3617,-3.3418,-3.314,-3.3097,-3.2972,-3.2529,-3.1352,-3.0241,-2.9601,-2.8996,-2.8407,-2.8174,-2.8092,-2.7961,-2.8145,-2.8243,-2.8365,-2.8624,-2.8579,-2.857,-2.842,-2.8392,-2.8195,-2.7696,-2.7221,-2.6714,-2.6524,-2.6441,-2.638,-2.6529,-2.6896,-2.7229,-2.7509,-2.78,-2.8005,-2.8054,-2.8226,-2.8387,-2.8334,-2.8304,-2.8381,-2.8359,-2.8215,-2.8137,-3.2661,-3.3215,-3.3215,-3.3641,-3.4189,-3.423,-3.4272,-3.4397,-3.4397,-3.4397,-3.4397,-3.4397,-3.4397,-3.4397,-3.4397,-3.4397,-3.4356,-3.4189,-3.3894,-3.3569,-3.3288,-3.2975,-3.2575,-3.2432,-3.2488,-3.2988,-3.2654,-3.2346,-3.2302,-3.2183,-3.1956,-3.2035,-3.1928,-3.166,-3.184,-3.2084,-3.214,-3.214,-3.2152,-3.2152,-3.2052,-3.1415,-3.0758,-3.0397,-3.0261,-3.0216,-3.0216,-3.0216,-3.0216,-3.0216,-3.0216,-3.0216,-3.0352,-3.0668,-3.0892,-3.0261,-3.0397,-3.0668,-3.1015,-3.116,-3.1371,-3.194,-3.1581,-3.1532,-3.1671,-3.1551,-3.1656,-3.1975,-3.2296,-3.2414,-3.2345,-3.2784,-3.2895,-3.2731,-3.3075,-3.309,-3.2691,-3.216,-3.1539,-3.0986,-2.9941,-2.9118,-2.8556,-2.8266,-2.8072,-2.7928,-2.7994,-2.8112,-2.8327,-2.8444,-2.8357,-2.8409,-2.8314,-2.8175,-2.7697,-2.7496,-2.6955,-2.6589,-2.6417,-2.63,-2.6176,-2.6422,-2.6827,-2.7067,-2.7306,-2.7549,-2.7815,-2.8029,-2.8177,-2.8339,-2.8411,-2.8411,-2.8411,-2.8411,-2.835,-3.2345,-3.2488,-3.2488,-3.2889,-3.3513,-3.3556,-3.3907,-3.4356,-3.4356,-3.4397,-3.4356,-3.4356,-3.4272,-3.4356,-3.4397,-3.4397,-3.4189,-3.381,-3.3428,-3.3129,-3.2772,-3.2314,-3.204,-3.1625,-3.1605,-3.1725,-3.1877,-3.2127,-3.1996,-3.1813,-3.146,-3.1327,-3.0925,-3.0701,-3.088,-3.1104,-3.146,-3.146,-3.1472,-3.1472,-3.1282,-3.0836,-3.0431,-3.0216,-3.0216,-3.0216,-3.0216,-3.0216,-3.0216,-3.0216,-3.0216,-3.0216,-3.0216,-3.0352,-3.0352,-3.0261,-3.0216,-3.0352,-3.0487,-3.0442,-3.0431,-3.0498,-3.0573,-3.0504,-3.0594,-3.0646,-3.0966,-3.1368,-3.1877,-3.2215,-3.2302,-3.2358,-3.242,-3.2383,-3.2462,-3.2554,-3.2416,-3.2222,-3.2028,-3.1615,-3.0683,-2.9771,-2.9183,-2.8556,-2.8174,-2.7926,-2.7802,-2.7775,-2.7868,-2.7921,-2.7875,-2.8006,-2.8151,-2.7937,-2.7669,-2.7575,-2.7308,-2.6847,-2.6625,-2.6515,-2.6388,-2.631,-2.6484,-2.6683,-2.6916,-2.7178,-2.7473,-2.7675,-2.789,-2.7925,-2.8137,-2.8348,-2.825,-2.8113,-2.8275,-3.1436,-3.1757,-3.1769,-3.2196,-3.2803,-3.3258,-3.3569,-3.3852,-3.3894,-3.3907,-3.3768,-3.353,-3.353,-3.381,-3.3894,-3.3894,-3.3683,-3.3147,-3.2686,-3.2295,-3.1945,-3.1536,-3.1303,-3.088,-3.0758,-3.0802,-3.1048,-3.1258,-3.1214,-3.0925,-3.0758,-3.0668,-3.0352,-3.0216,-3.0261,-3.0532,-3.0758,-3.0769,-3.0769,-3.0769,-3.0758,-3.0306,-3.0216,-3.0216,-3.0216,-3.0216,-3.0216,-3.0216,-3.0216,-3.0216,-3.0216,-3.0216,-3.0216,-3.0216,-3.0216,-3.0216,-3.0216,-3.0216,-3.0216,-3.0216,-3.0261,-3.0216,-3.0216,-3.0216,-3.0215,-3.0347,-3.0444,-3.0742,-3.088,-3.1214,-3.1169,-3.1569,-3.1757,-3.1845,-3.2052,-3.2215,-3.2258,-3.2258,-3.2065,-3.1804,-3.0991,-3.0175,-2.9719,-2.9078,-2.8399,-2.8007,-2.7712,-2.762,-2.7548,-2.7648,-2.7741,-2.7703,-2.7881,-2.7775,-2.7605,-2.7571,-2.7501,-2.7117,-2.6854,-2.6752,-2.6619,-2.6551,-2.6315,-2.6216,-2.6507,-2.6835,-2.668,-2.6771,-2.7148,-2.7519,-2.7595,-2.7685,-2.776,-2.785,-2.7989,-3.0532,-3.1071,-3.1071,-3.146,-3.2152,-3.2686,-3.3043,-3.3172,-3.3172,-3.3159,-3.3074,-3.2673,-3.2661,-3.3043,-3.3172,-3.3172,-3.3074,-3.2401,-3.1857,-3.1472,-3.116,-3.0769,-3.0397,-3.0216,-3.0261,-3.0352,-3.0352,-3.0216,-3.0397,-3.0306,-3.0261,-3.0261,-3.0216,-3.0216,-3.0261,-3.0306,-3.0216,-3.0216,-3.0216,-3.0216,-3.0216,-3.0216,-3.0216,-3.0216,-3.0216,-3.0216,-3.0216,-3.0216,-3.0216,-3.0216,-3.0216,-3.0216,-3.0216,-3.0216,-3.0216,-3.0216,-3.0216,-3.0216,-3.0216,-3.0216,-3.0216,-3.0216,-3.0216,-3.0216,-3.0216,-3.0227,-3.0238,-3.0216,-3.0261,-3.034,-3.0476,-3.0758,-3.1026,-3.116,-3.1492,-3.1821,-3.1745,-3.1629,-3.1479,-3.1204,-3.093,-3.0444,-2.9796,-2.9076,-2.8293,-2.8228,-2.7936,-2.7936,-2.7884,-2.7842,-2.7857,-2.7615,-2.757,-2.757,-2.7518,-2.7545,-2.7453,-2.7305,-2.7152,-2.7062,-2.693,-2.6806,-2.6535,-2.6244,-2.6191,-2.6427,-2.6134,-2.6,-2.6441,-2.6756,-2.6901,-2.7056,-2.7225,-2.7393,-2.7534,-3.0261,-3.0363,-3.0352,-3.0758,-3.1383,-3.156,-3.1901,-3.2401,-3.2444,-3.2444,-3.2401,-3.2302,-3.2258,-3.2401,-3.2444,-3.2432,-3.2227,-3.1725,-3.1339,-3.1083,-3.0668,-3.0397,-3.0216,-3.0216,-3.0216,-3.0216,-3.0216,-3.0216,-3.0216,-3.0216,-3.0216,-3.0216,-3.0216,-3.0216,-3.0216,-3.0216,-3.0216,-3.0216,-3.0216,-3.0216,-3.0216,-3.0216,-3.0216,-3.0216,-3.0216,-3.0216,-3.0216,-3.0216,-3.0216,-3.0216,-3.0216,-3.0216,-3.0216,-3.0216,-3.0216,-3.0216,-3.0216,-3.0216,-3.0216,-3.0216,-3.0216,-3.0216,-3.0216,-3.0216,-3.0216,-3.0216,-3.0216,-3.0216,-3.0216,-3.0216,-3.0216,-3.0306,-3.0352,-3.0442,-3.0656,-3.0701,-3.0656,-3.1024,-3.0856,-3.0486,-3.0116,-2.9995,-2.9622,-2.8866,-2.8213,-2.8246,-2.8244,-2.8161,-2.8027,-2.7838,-2.7537,-2.7177,-2.7087,-2.7121,-2.7268,-2.7302,-2.7404,-2.7334,-2.7354,-2.7315,-2.7199,-2.7013,-2.6765,-2.6541,-2.6385,-2.6117,-2.5888,-2.5855,-2.5963,-2.6082,-2.6288,-2.6539,-2.6771,-2.6916,-2.7008,-3.0216,-3.0216,-3.0216,-3.0397,-3.0713,-3.1128,-3.1472,-3.1681,-3.1725,-3.1725,-3.1625,-3.127,-3.1315,-3.1669,-3.1713,-3.1725,-3.1593,-3.1026,-3.0713,-3.0713,-3.0352,-3.0216,-3.0216,-3.0216,-3.0216,-3.0216,-3.0216,-3.0216,-3.0216,-3.0216,-3.0216,-3.0216,-3.0216,-3.0216,-3.0216,-3.0216,-3.0216,-3.0216,-3.0216,-3.0216,-3.0216,-3.0216,-3.0216,-3.0216,-3.0216,-3.0216,-3.0216,-3.0216,-3.0216,-3.0216,-3.0216,-3.0216,-3.0216,-3.0216,-3.0216,-3.0216,-3.0216,-3.0216,-3.0216,-3.0216,-3.0216,-3.0216,-3.0216,-3.0216,-3.0216,-3.0216,-3.0216,-3.0216,-3.0216,-3.0216,-3.0216,-3.0216,-3.0216,-3.0216,-3.0216,-3.0216,-3.0216,-3.0181,-3.0222,-2.972,-2.9324,-2.9206,-2.908,-2.86,-2.8116,-2.8199,-2.8077,-2.7851,-2.7609,-2.7285,-2.6919,-2.6499,-2.653,-2.6564,-2.6816,-2.6952,-2.7222,-2.7285,-2.7465,-2.7406,-2.7387,-2.7236,-2.6997,-2.6786,-2.6617,-2.6272,-2.584,-2.5666,-2.572,-2.5741,-2.573,-2.5952,-2.6129,-2.6081,-2.6215,-3.0216,-3.0216,-3.0216,-3.0216,-3.0261,-3.0802,-3.1026,-3.1026,-3.1026,-3.1026,-3.0892,-3.0532,-3.0578,-3.0904,-3.1026,-3.1026,-3.0994,-3.0442,-3.0261,-3.0216,-3.0216,-3.0216,-3.0216,-3.0216,-3.0216,-3.0216,-3.0216,-3.0216,-3.0216,-3.0216,-3.0216,-3.0216,-3.0216,-3.0216,-3.0216,-3.0216,-3.0216,-3.0216,-3.0216,-3.0125,-3.0034,-3.0125,-3.008,-3.0034,-3.0034,-3.0068,-3.017,-3.0034,-2.9988,-3.0216,-3.0216,-3.0216,-3.0216,-3.0216,-3.0216,-3.0216,-3.0216,-3.0216,-3.0216,-3.0216,-3.0216,-3.0216,-3.0216,-3.0216,-3.0216,-3.0216,-3.0216,-3.0216,-3.0216,-3.0216,-3.0216,-3.0216,-3.0216,-3.0216,-3.0216,-3.0216,-3.0216,-3.0193,-2.9883,-2.9337,-2.8904,-2.8437,-2.828,-2.8056,-2.7942,-2.8094,-2.793,-2.7639,-2.731,-2.6993,-2.6672,-2.6334,-2.6166,-2.6236,-2.6383,-2.6624,-2.6884,-2.7121,-2.7289,-2.7443,-2.7385,-2.7392,-2.7288,-2.7059,-2.6876,-2.6803,-2.6608,-2.6008,-2.5508,-2.5668,-2.5756,-2.5461,-2.5443,-2.5422,-2.5564,-3.0216,-3.0216,-3.0216,-3.0216,-3.0216,-3.0261,-3.0306,-3.0397,-3.0352,-3.0352,-3.0397,-3.0284,-3.033,-3.0398,-3.0489,-3.0478,-3.0341,-3.0227,-3.0216,-3.0216,-3.0216,-3.0216,-3.0216,-3.0216,-3.0216,-3.0216,-3.0216,-3.0216,-3.0216,-3.0216,-3.0216,-3.0216,-3.0216,-3.0216,-3.017,-3.0125,-3.017,-3.0125,-3.008,-2.9897,-2.9806,-2.9852,-2.9932,-2.9623,-2.9577,-2.9715,-3.0136,-2.9806,-2.9658,-3.0034,-3.008,-3.008,-3.008,-2.9988,-2.9943,-3.008,-3.008,-3.008,-3.008,-3.017,-3.0216,-3.0216,-3.0216,-3.0216,-3.0216,-3.0216,-3.0216,-3.0216,-3.0216,-3.0216,-3.0216,-3.0216,-3.0216,-3.0216,-3.0216,-3.0216,-3.0216,-3.0216,-2.9837,-2.9045,-2.8551,-2.8241,-2.7782,-2.7609,-2.7686,-2.7806,-2.785,-2.7579,-2.7358,-2.7048,-2.6687,-2.6371,-2.6003,-2.5949,-2.6005,-2.6223,-2.6393,-2.6633,-2.6871,-2.7154,-2.7364,-2.7351,-2.7245,-2.7385,-2.7236,-2.7314,-2.7262,-2.6652,-2.6177,-2.5962,-2.5792,-2.5578,-2.5375,-2.5378,-2.5454,-3.0216,-3.0216,-3.0216,-3.0216,-3.0216,-3.0216,-3.0216,-3.0216,-3.0216,-3.0216,-3.025,-3.0549,-3.0709,-3.0709,-3.0709,-3.0709,-3.0652,-3.0331,-3.0285,-3.0216,-3.0216,-3.0216,-3.0216,-3.0216,-3.0216,-3.0216,-3.0216,-3.0216,-3.0216,-3.017,-3.0216,-3.0216,-3.0171,-3.0216,-3.017,-2.9988,-2.9943,-2.9932,-2.9658,-2.929,-2.9623,-2.9577,-2.9531,-2.9117,-2.9439,-2.9347,-2.9336,-2.9485,-2.9393,-2.9428,-2.9612,-2.976,-2.9715,-2.952,-2.9566,-2.976,-2.9806,-2.976,-2.9897,-3.0034,-3.0216,-3.0216,-3.0216,-3.0216,-3.0216,-3.0216,-3.0216,-3.0216,-3.0216,-3.0216,-3.0216,-3.0216,-3.0216,-3.0216,-3.0216,-3.0216,-3.0216,-3.0216,-2.986,-2.9102,-2.8654,-2.8299,-2.774,-2.7231,-2.736,-2.751,-2.7528,-2.7492,-2.7294,-2.7011,-2.6659,-2.6254,-2.5911,-2.5781,-2.5829,-2.5838,-2.5875,-2.6141,-2.6465,-2.6701,-2.6973,-2.6985,-2.6926,-2.7222,-2.739,-2.7258,-2.7128,-2.7052,-2.6817,-2.651,-2.6149,-2.5805,-2.5586,-2.5449,-2.5495,-3.0216,-3.0216,-3.0216,-3.0216,-3.0216,-3.0216,-3.0308,-3.0422,-3.0273,-3.0331,-3.0468,-3.0859,-3.1111,-3.1192,-3.1237,-3.1249,-3.11,-3.0767,-3.0549,-3.0422,-3.0342,-3.025,-3.0216,-3.0216,-3.0216,-3.0216,-3.017,-3.017,-2.9943,-2.9988,-2.9931,-2.9918,-3.001,-2.9987,-3.008,-2.9772,-2.9623,-2.9474,-2.9187,-2.8735,-2.9059,-2.9209,-2.9024,-2.8653,-2.8839,-2.8967,-2.8828,-2.8921,-2.8932,-2.8921,-2.9059,-2.9336,-2.9244,-2.9106,-2.9059,-2.9244,-2.9347,-2.9301,-2.9577,-2.9909,-3.017,-3.0216,-3.0216,-3.0216,-3.0216,-3.0216,-3.0216,-3.0216,-3.0216,-3.0216,-3.0216,-3.0216,-3.0216,-3.0216,-3.0216,-3.0216,-3.0216,-3.0193,-2.9734,-2.9183,-2.8792,-2.8402,-2.7908,-2.7373,-2.7306,-2.7376,-2.7371,-2.7302,-2.714,-2.6876,-2.6535,-2.6113,-2.5741,-2.5669,-2.5667,-2.5766,-2.5828,-2.5885,-2.6119,-2.6211,-2.6346,-2.6393,-2.6461,-2.6598,-2.6769,-2.6973,-2.6917,-2.6742,-2.686,-2.7,-2.6614,-2.6214,-2.6057,-2.5892,-2.5716,-3.0216,-3.0216,-3.0216,-3.0216,-3.0216,-3.0216,-3.048,-3.0732,-3.0411,-3.048,-3.0893,-3.1054,-3.1352,-3.1698,-3.1743,-3.1743,-3.1639,-3.1237,-3.0996,-3.0916,-3.0675,-3.0388,-3.0365,-3.0422,-3.0491,-3.0273,-3.0262,-3.0114,-2.9577,-2.9669,-2.9559,-2.9576,-2.9689,-2.9755,-3.0102,-2.9715,-2.9244,-2.8817,-2.8713,-2.8409,-2.8373,-2.8606,-2.8466,-2.8186,-2.8233,-2.8409,-2.8362,-2.8362,-2.8362,-2.8456,-2.8595,-2.8874,-2.9163,-2.8735,-2.8781,-2.9255,-2.8921,-2.8967,-2.9439,-2.9897,-3.008,-3.017,-3.0216,-3.0216,-3.0216,-3.0216,-3.0216,-3.0216,-3.0216,-3.0216,-3.0216,-3.0216,-3.0216,-3.0216,-3.0216,-3.0216,-3.0216,-3.0204,-2.9791,-2.9389,-2.8964,-2.8528,-2.8046,-2.7633,-2.7403,-2.73,-2.7201,-2.7121,-2.7018,-2.6909,-2.6622,-2.6381,-2.6037,-2.5896,-2.5907,-2.5812,-2.5788,-2.5828,-2.5769,-2.5754,-2.5805,-2.5861,-2.5931,-2.6013,-2.6208,-2.6449,-2.6414,-2.6333,-2.6583,-2.6858,-2.6909,-2.668,-2.6517,-2.6425,-2.6302,-3.0216,-3.0216,-3.0216,-3.0216,-3.0216,-3.0216,-3.0331,-3.0434,-3.0331,-3.0514,-3.1019,-3.1329,-3.1777,-3.2158,-3.2236,-3.2236,-3.2144,-3.1731,-3.1443,-3.1456,-3.1237,-3.1295,-3.1215,-3.11,-3.1031,-3.0824,-3.0686,-3.0204,-2.9531,-2.9494,-2.9484,-2.9474,-2.9591,-2.9748,-2.9473,-2.9022,-2.8456,-2.8538,-2.8222,-2.782,-2.8008,-2.8171,-2.8066,-2.7652,-2.7841,-2.7951,-2.7904,-2.7857,-2.7951,-2.7951,-2.8092,-2.8362,-2.8513,-2.8128,-2.8092,-2.842,-2.8269,-2.8456,-2.8828,-2.9198,-2.952,-2.9897,-3.017,-3.017,-3.0216,-3.0216,-3.0216,-3.0216,-3.0216,-3.0216,-3.0216,-3.0216,-3.0216,-3.0216,-3.0216,-3.0216,-3.0216,-3.0204,-2.9986,-2.9619,-2.9217,-2.8792,-2.8333,-2.7874,-2.7598,-2.7403,-2.7293,-2.7213,-2.711,-2.7121,-2.6961,-2.6852,-2.66,-2.6358,-2.6189,-2.605,-2.5765,-2.5618,-2.5434,-2.5202,-2.5242,-2.5445,-2.5584,-2.5738,-2.5853,-2.5931,-2.5931,-2.6035,-2.6393,-2.6621,-2.6686,-2.6986,-2.7053,-2.7033,-2.7111,-3.0216,-3.0216,-3.0216,-3.0216,-3.0216,-3.0216,-3.0216,-3.025,-3.0411,-3.0778,-3.1272,-3.1687,-3.2204,-3.2592,-3.2764,-3.2753,-3.2695,-3.2225,-3.1995,-3.1961,-3.1789,-3.1744,-3.1756,-3.1836,-3.1513,-3.1282,-3.0955,-3.0503,-2.9783,-2.9565,-2.9432,-2.9428,-2.9674,-2.9554,-2.9293,-2.8935,-2.861,-2.8583,-2.8181,-2.8015,-2.8135,-2.8115,-2.7846,-2.765,-2.7614,-2.7631,-2.7489,-2.7489,-2.7631,-2.7499,-2.7594,-2.7867,-2.7783,-2.7689,-2.7594,-2.7857,-2.8034,-2.8175,-2.8409,-2.8724,-2.9095,-2.9474,-2.9806,-2.9943,-3.0034,-3.008,-3.017,-3.0216,-3.0216,-3.017,-3.017,-3.017,-3.0125,-3.0125,-3.017,-3.017,-3.0216,-3.0204,-3.0125,-2.9758,-2.9221,-2.8887,-2.8508,-2.8195,-2.7793,-2.761,-2.7385,-2.7282,-2.719,-2.719,-2.719,-2.7064,-2.7013,-2.6806,-2.6542,-2.6322,-2.5993,-2.5509,-2.5321,-2.5191,-2.5115,-2.5389,-2.5432,-2.5373,-2.5266,-2.523,-2.5488,-2.5687,-2.5896,-2.622,-2.6454,-2.6862,-2.739,-2.7469,-2.7423,-3.0204,-3.0216,-3.0216,-3.0216,-3.0216,-3.0216,-3.0239,-3.0296,-3.0732,-3.1226,-3.1718,-3.1777,-3.2319,-3.3097,-3.3247,-3.3212,-3.3143,-3.2695,-3.2569,-3.242,-3.2273,-3.2101,-3.2043,-3.1995,-3.1901,-3.1618,-3.1216,-3.0726,-3.0166,-2.9612,-2.9373,-2.9358,-2.9483,-2.9493,-2.9427,-2.9339,-2.9024,-2.8669,-2.8486,-2.8377,-2.8414,-2.8209,-2.8011,-2.7817,-2.7658,-2.7508,-2.7351,-2.7357,-2.7398,-2.7372,-2.743,-2.7667,-2.7752,-2.7578,-2.772,-2.7883,-2.8031,-2.811,-2.8094,-2.8434,-2.8466,-2.8757,-2.9106,-2.9347,-2.9623,-2.9897,-3.0034,-3.0125,-3.0125,-3.0114,-3.0114,-3.0034,-3.0,-3.0034,-3.008,-3.0125,-3.017,-3.017,-3.0125,-2.9737,-2.9066,-2.8621,-2.8222,-2.7923,-2.7786,-2.7839,-2.758,-2.727,-2.719,-2.719,-2.719,-2.7179,-2.7121,-2.7156,-2.6915,-2.6657,-2.637,-2.5991,-2.583,-2.5701,-2.5539,-2.537,-2.541,-2.5265,-2.4659,-2.4558,-2.4897,-2.5099,-2.5264,-2.5581,-2.5965,-2.6346,-2.6769,-2.7188,-2.7255,-2.9906,-3.0204,-3.0216,-3.0216,-3.0216,-3.0216,-3.0377,-3.0755,-3.0618,-3.1065,-3.2259,-3.1951,-3.24,-3.3235,-3.3281,-3.3281,-3.3224,-3.3155,-3.3086,-3.2937,-3.2776,-3.2822,-3.2799,-3.2681,-3.2396,-3.1897,-3.1419,-3.0778,-2.988,-2.94,-2.9379,-2.9331,-2.9601,-2.9715,-2.9756,-2.9808,-2.9299,-2.8916,-2.8752,-2.8752,-2.87,-2.8524,-2.8297,-2.8038,-2.7862,-2.7634,-2.7496,-2.7423,-2.7506,-2.7696,-2.7728,-2.7966,-2.8372,-2.8323,-2.8372,-2.8372,-2.839,-2.8307,-2.8042,-2.8055,-2.8105,-2.8063,-2.8297,-2.8874,-2.9244,-2.9646,-2.9817,-2.984,-2.9795,-2.9703,-2.9612,-2.9566,-2.9577,-2.9658,-2.9703,-2.976,-2.9852,-2.9943,-2.9875,-2.9398,-2.8734,-2.8499,-2.8137,-2.7674,-2.7603,-2.7843,-2.7763,-2.7314,-2.7149,-2.7149,-2.719,-2.719,-2.719,-2.719,-2.719,-2.6961,-2.676,-2.6547,-2.6347,-2.614,-2.5904,-2.5708,-2.5543,-2.5291,-2.4946,-2.4593,-2.4405,-2.4621,-2.4943,-2.5016,-2.5382,-2.5756,-2.6139,-2.6552,-2.6905,-2.9475,-2.9952,-3.0147,-3.0216,-3.0216,-3.0216,-3.0526,-3.0812,-3.0434,-3.0985,-3.2087,-3.1892,-3.2377,-3.3178,-3.3281,-3.3281,-3.3281,-3.3258,-3.3235,-3.3235,-3.3281,-3.3224,-3.3269,-3.2996,-3.2542,-3.2001,-3.145,-3.0821,-2.999,-2.9659,-2.9591,-2.9622,-2.9922,-2.9963,-2.9963,-2.9932,-2.9735,-2.9384,-2.9208,-2.9166,-2.9083,-2.897,-2.869,-2.8462,-2.8317,-2.8017,-2.7821,-2.7759,-2.7935,-2.8162,-2.8193,-2.8297,-2.8597,-2.8597,-2.8587,-2.8545,-2.8524,-2.846,-2.8284,-2.8242,-2.8087,-2.7928,-2.7892,-2.8354,-2.8802,-2.919,-2.9322,-2.9382,-2.9244,-2.9152,-2.9059,-2.8967,-2.9059,-2.9141,-2.9244,-2.9301,-2.9428,-2.9566,-2.9316,-2.8932,-2.8618,-2.8451,-2.811,-2.7612,-2.7243,-2.7227,-2.7023,-2.6677,-2.6727,-2.6985,-2.7108,-2.719,-2.719,-2.719,-2.719,-2.7149,-2.6995,-2.6864,-2.6841,-2.6611,-2.6301,-2.6032,-2.5906,-2.5665,-2.5417,-2.511,-2.4811,-2.4593,-2.4754,-2.4879,-2.4895,-2.5004,-2.5407,-2.5931,-2.6208,-2.9036,-2.9517,-2.9964,-3.0216,-3.0216,-3.0216,-3.048,-3.087,-3.0365,-3.0836,-3.1767,-3.1848,-3.2328,-3.3143,-3.3281,-3.3281,-3.3281,-3.3281,-3.3281,-3.3281,-3.3119,-3.3069,-3.2958,-3.2622,-3.2162,-3.188,-3.1451,-3.0758,-3.0566,-3.0151,-2.988,-2.9994,-2.9984,-2.9994,-2.9994,-2.9994,-2.988,-2.9798,-2.9746,-2.9766,-2.9735,-2.958,-2.9321,-2.9166,-2.8897,-2.8607,-2.8566,-2.8576,-2.8628,-2.8649,-2.8669,-2.869,-2.8825,-2.8866,-2.8845,-2.8845,-2.8938,-2.8613,-2.8571,-2.8519,-2.8447,-2.8262,-2.8165,-2.838,-2.8657,-2.84,-2.8395,-2.8481,-2.8341,-2.7955,-2.7767,-2.7872,-2.7977,-2.8258,-2.8491,-2.8585,-2.8678,-2.8609,-2.8301,-2.8011,-2.7963,-2.7856,-2.79,-2.7402,-2.6987,-2.6714,-2.6438,-2.6129,-2.6199,-2.6625,-2.6727,-2.6933,-2.6974,-2.6974,-2.7056,-2.7015,-2.7108,-2.708,-2.7017,-2.6808,-2.635,-2.6245,-2.6268,-2.6016,-2.5764,-2.5638,-2.5448,-2.5173,-2.4969,-2.4987,-2.4877,-2.4457,-2.4693,-2.5289,-2.5534,-2.8554,-2.9059,-2.9862,-3.0216,-3.0216,-3.0216,-3.0285,-3.0399,-3.0285,-3.0996,-3.2064,-3.2066,-3.2377,-3.3178,-3.3281,-3.3281,-3.3281,-3.3281,-3.3281,-3.3069,-3.2896,-3.2695,-3.2533,-3.2066,-3.1659,-3.1249,-3.0847,-3.0599,-3.0297,-3.0099,-2.9994,-2.9994,-2.9994,-2.9994,-2.9994,-2.9994,-2.9994,-2.9994,-2.9994,-2.9994,-2.9942,-2.988,-2.9704,-2.9446,-2.9135,-2.8959,-2.8856,-2.868,-2.8866,-2.9032,-2.9114,-2.9321,-2.9632,-2.9632,-2.9642,-2.9653,-2.9446,-2.8962,-2.848,-2.8482,-2.8442,-2.8137,-2.7975,-2.8373,-2.8341,-2.7668,-2.7299,-2.7384,-2.72,-2.6809,-2.657,-2.6733,-2.6982,-2.7363,-2.7683,-2.7731,-2.7767,-2.75,-2.7232,-2.7155,-2.7149,-2.7256,-2.7349,-2.7213,-2.681,-2.6509,-2.6181,-2.597,-2.5897,-2.6065,-2.5979,-2.6188,-2.6539,-2.6622,-2.6757,-2.6798,-2.6809,-2.6727,-2.664,-2.6498,-2.6313,-2.6225,-2.612,-2.6206,-2.6109,-2.591,-2.574,-2.5604,-2.5459,-2.5237,-2.5013,-2.4633,-2.4417,-2.4802,-2.4967,-2.7911,-2.8277,-2.9137,-2.9658,-2.9852,-2.9897,-2.9988,-3.017,-3.0216,-3.0939,-3.2007,-3.1961,-3.2328,-3.3178,-3.3281,-3.3281,-3.3281,-3.3281,-3.3069,-3.2796,-3.2533,-3.228,-3.1913,-3.1505,-3.1197,-3.0836,-3.0495,-3.0245,-3.0047,-2.9994,-2.9994,-2.9994,-2.9994,-2.9994,-2.9994,-2.9994,-2.9994,-2.9994,-2.9994,-2.9994,-2.9994,-2.9953,-2.9911,-2.9642,-2.9549,-2.9394,-2.9373,-2.9228,-2.9363,-2.9322,-2.9218,-2.9081,-2.9221,-2.9252,-2.9355,-2.9355,-2.9199,-2.8906,-2.8285,-2.8042,-2.8162,-2.7727,-2.743,-2.7625,-2.7373,-2.6741,-2.6577,-2.6606,-2.6072,-2.5664,-2.5606,-2.5761,-2.6167,-2.6552,-2.634,-2.6186,-2.6234,-2.6079,-2.5925,-2.5933,-2.6142,-2.6608,-2.6717,-2.6857,-2.6532,-2.6468,-2.6137,-2.5669,-2.5605,-2.5625,-2.5476,-2.5497,-2.5906,-2.6177,-2.626,-2.6313,-2.6396,-2.6313,-2.626,-2.6177,-2.6063,-2.5979,-2.5942,-2.6039,-2.6069,-2.5906,-2.5786,-2.5752,-2.5526,-2.5233,-2.5066,-2.4876,-2.4657,-2.445,-2.4422,-2.7392,-2.761,-2.8386,-2.8956,-2.9393,-2.9485,-2.9669,-2.9954,-3.016,-3.0662,-3.1397,-3.1581,-3.2308,-3.3017,-3.3081,-3.3131,-3.3069,-3.2818,-3.2606,-3.2392,-3.2167,-3.1812,-3.1403,-3.095,-3.0744,-3.0495,-3.0245,-3.0151,-2.9994,-2.9994,-2.9994,-2.9994,-2.9994,-2.9994,-2.9994,-2.9994,-2.9994,-2.9994,-2.9994,-2.9994,-2.9994,-2.9994,-2.9963,-2.9973,-2.9994,-2.9994,-2.9984,-2.9816,-2.9816,-2.9418,-2.8883,-2.8585,-2.8499,-2.8518,-2.8528,-2.8528,-2.8528,-2.8019,-2.7488,-2.7397,-2.7353,-2.7179,-2.6871,-2.671,-2.6511,-2.6248,-2.6058,-2.5667,-2.5161,-2.4684,-2.4674,-2.4864,-2.5265,-2.5499,-2.5138,-2.4894,-2.4835,-2.4835,-2.4796,-2.4845,-2.5382,-2.5926,-2.62,-2.6353,-2.6372,-2.629,-2.597,-2.5492,-2.5199,-2.5267,-2.5239,-2.5199,-2.536,-2.5582,-2.5738,-2.5937,-2.6021,-2.5843,-2.5801,-2.5812,-2.5728,-2.5506,-2.5549,-2.5884,-2.587,-2.571,-2.5821,-2.5847,-2.5573,-2.5278,-2.5087,-2.4943,-2.4753,-2.4487,-2.4106,-2.7437,-2.8473,-2.8659,-2.8771,-2.891,-2.929,-2.9347,-2.9161,-2.9853,-3.0343,-3.057,-3.102,-3.1828,-3.3231,-3.2252,-3.2139,-3.2544,-3.2291,-3.1997,-3.1783,-3.1505,-3.1146,-3.0847,-3.0547,-3.0245,-3.0151,-3.0099,-3.0047,-2.9994,-2.9994,-2.9994,-2.9994,-2.9994,-2.9994,-2.9994,-2.9994,-2.9994,-2.9994,-2.9994,-2.9994,-2.9994,-2.9994,-2.9994,-2.9994,-2.9994,-2.9994,-2.9827,-2.928,-2.9059,-2.8688,-2.8145,-2.777,-2.7653,-2.7653,-2.7653,-2.7653,-2.7663,-2.7124,-2.6744,-2.6799,-2.6744,-2.6409,-2.6316,-2.6819,-2.6474,-2.5916,-2.5667,-2.5274,-2.4702,-2.3755,-2.3672,-2.3904,-2.4248,-2.4291,-2.4066,-2.4016,-2.3967,-2.3967,-2.3967,-2.4412,-2.5001,-2.5489,-2.5848,-2.5974,-2.6074,-2.5908,-2.5747,-2.527,-2.4851,-2.4885,-2.4923,-2.4836,-2.4778,-2.504,-2.5242,-2.5601,-2.5686,-2.5506,-2.5338,-2.5338,-2.5211,-2.4924,-2.5009,-2.5391,-2.5517,-2.5411,-2.5525,-2.5637,-2.5637,-2.538,-2.521,-2.5029,-2.4821,-2.4516,-2.4115]},{"header":{"parameterUnit":"m.s-1","parameterCategory":1,"la1":31.0,"la2":29.5877,"lo1":-88.7671,"lo2":-86.6584,"dy":0.0162,"dx":0.0185,"nx":115,"ny":88,"refTime":"2025-11-04T00:00:00:Z","depth":0,"parameterNumber":3,"parameterNumberName":"V-component_of_WINDS"},"data":[0.0,0.0,0.0,0.0,0.0,0.0,0.0,0.0,0.0,0.0,0.0,0.0,0.0,0.0,0.0,0.0,0.0,0.0,0.0,0.0,0.0,0.0,0.0,0.0,0.0,0.0,0.0,0.0,0.0,0.0,0.0,0.0,0.0,0.0,0.0,0.0,0.0,0.0,0.0,0.0,0.0,0.0,0.0,0.0,0.0,0.0,0.0,0.0,0.0,0.0,0.0,0.0,0.0,0.0,0.0,0.0,0.0,0.0,0.0,0.0,0.0,0.0,0.0,0.0,0.0,0.0,0.0,0.0,0.0,0.0,0.0,0.0,0.0,0.0,0.0,0.0,0.0,0.0,0.0,0.0,0.0,0.0,0.0,0.0,0.0,0.0,0.0,0.0,0.0,0.0,0.0,0.0,0.0,0.0,0.0,0.0,0.0,0.0,0.0,0.0,0.0,0.0,0.0,0.0,0.0,0.0,0.0,0.0,0.0,0.0,0.0,0.0,0.0,0.0,0.0,0.0,0.0,0.0,0.0,0.0,0.0,0.0,0.0,0.0,0.0,0.0,0.0,0.0,0.0,0.0,0.0,0.0,0.0,0.0,0.0,0.0,0.0,0.0,0.0,0.0,0.0,0.0,0.0,0.0,0.0,0.0,0.0,0.0,0.0,0.0,0.0,0.0,0.0,0.0,0.0,0.0,0.0,0.0,0.0,0.0,0.0,0.0,0.0,0.0,0.0,0.0,0.0,0.0,0.0,0.0,0.0,0.0,0.0,0.0,0.0,0.0,0.0,0.0,0.0,0.0,0.0,0.0,0.0,0.0,0.0,0.0,0.0,0.0,0.0,0.0,0.0,0.0,0.0,0.0,0.0,0.0,0.0,0.0,0.0,0.0,0.0,0.0,0.0,0.0,0.0,0.0,0.0,0.0,0.0,0.0,0.0,0.0,0.0,0.0,0.0,0.0,0.0,0.0,0.0,0.0,0.0,0.0,0.0,0.0,0.0,0.0,0.0,0.0,0.0,0.0,0.0,0.0,0.0,0.0,0.0,0.0,0.0,0.0,0.0,0.0,0.0,0.0,0.0,0.0,0.0,0.0,0.0,0.0,0.0,0.0,0.0,0.0,0.0,0.0,0.0,0.0,0.0,0.0,0.0,0.0,0.0,0.0,0.0,0.0,0.0,0.0,0.0,0.0,0.0,0.0,0.0,0.0,0.0,0.0,0.0,0.0,0.0,0.0,0.0,0.0,0.0,0.0,0.0,0.0,0.0,0.0,0.0,0.0,0.0,0.0,0.0,0.0,0.0,0.0,0.0,0.0,0.0,0.0,0.0,0.0,0.0,0.0,0.0,0.0,0.0,0.0,0.0,0.0,0.0,0.0,0.0,0.0,0.0,0.0,0.0,0.0,0.0,0.0,0.0,0.0,0.0,0.0,0.0,0.0,0.0,0.0,0.0,0.0,0.0,0.0,0.0,0.0,0.0,0.0,0.0,0.0,0.0,0.0,0.0,0.0,0.0,0.0,0.0,0.0,0.0,0.0,0.0,0.0,0.0,0.0,0.0,0.0,0.0,0.0,0.0,0.0,0.0,0.0,0.0,0.0,0.0,0.0,0.0,0.0,0.0,0.0,0.0,0.0,0.0,0.0,0.0,0.0,0.0,0.0,0.0,0.0,0.0,0.0,0.0,0.0,0.0,0.0,0.0,0.0,0.0,0.0,0.0,0.0,0.0,0.0,0.0,0.0,0.0,0.0,0.0,0.0,0.0,0.0,0.0,0.0,0.0,0.0,0.0,0.0,0.0,0.0,0.0,0.0,0.0,0.0,0.0,0.0,0.0,0.0,0.0,0.0,0.0,0.0,0.0,0.0,0.0,0.0,0.0,0.0,0.0,0.0,0.0,0.0,0.0,0.0,0.0,0.0,0.0,0.0,0.0,0.0,0.0,0.0,0.0,0.0,0.0,0.0,0.0,0.0,0.0,0.0,0.0,0.0,0.0,0.0,0.0,0.0,0.0,0.0,0.0,0.0,0.0,0.0,0.0,0.0,0.0,0.0,0.0,0.0,0.0,0.0,0.0,0.0,0.0,0.0,0.0,0.0,0.0,0.0,0.0,0.0,0.0,0.0,0.0,0.0,0.0,0.0,0.0,0.0,0.0,0.0,0.0,0.0,0.0,0.0,0.0,0.0,0.0,0.0,0.0,0.0,0.0,0.0,0.0,0.0,0.0,0.0,0.0,0.0,0.0,0.0,0.0,0.0,0.0,0.0,0.0,0.0,0.0,0.0,0.0,0.0,0.0,0.0,0.0,0.0,0.0,0.0,0.0,0.0,0.0,0.0,0.0,0.0,0.0,0.0,0.0,0.0,0.0,0.0,0.0,0.0,0.0,0.0,0.0,0.0,0.0,0.0,0.0,0.0,0.0,0.0,0.0,0.0,0.0,0.0,0.0,0.0,0.0,0.0,0.0,0.0,0.0,0.0,0.0,0.0,0.0,0.0,0.0,0.0,0.0,0.0,0.0,0.0,0.0,0.0,0.0,0.0,0.0,0.0,0.0,0.0,0.0,0.0,0.0,0.0,0.0,0.0,0.0,0.0,0.0,0.0,0.0,0.0,0.0,0.0,0.0,0.0,0.0,0.0,0.0,0.0,0.0,0.0,0.0,0.0,0.0,0.0,0.0,0.0,0.0,0.0,0.0,0.0,0.0,0.0,0.0,0.0,0.0,0.0,0.0,0.0,0.0,0.0,0.0,0.0,0.0,0.0,0.0,0.0,0.0,0.0,0.0,0.0,0.0,0.0,0.0,0.0,0.0,0.0,0.0,0.0,0.0,0.0,0.0,0.0,0.0,0.0,0.0,0.0,0.0,0.0,0.0,0.0,0.0,0.0,0.0,0.0,0.0,0.0,0.0,0.0,0.0,0.0,0.0,0.0,0.0,0.0,0.0,0.0,0.0,0.0,0.0,0.0,0.0,0.0,0.0,0.0,0.0,0.0,0.0,0.0,0.0,0.0,0.0,0.0,0.0,0.0,0.0,0.0,0.0,0.0,0.0,0.0,0.0,0.0,0.0,0.0,0.0,0.0,0.0,0.0,0.0,0.0,0.0,0.0,0.0,0.0,0.0,0.0,0.0,0.0,0.0,0.0,0.0,0.0,0.0,0.0,0.0,0.0,0.0,0.0,0.0,0.0,0.0,0.0,0.0,0.0,0.0,0.0,0.0,0.0,0.0,0.0,0.0,0.0,0.0,0.0,0.0,0.0,0.0,0.0,0.0,0.0,0.0,0.0,0.0,0.0,0.0,0.0,0.0,0.0,0.0,0.0,0.0,0.0,0.0,0.0,0.0,0.0,0.0,0.0,0.0,0.0,0.0,0.0,0.0,0.0,0.0,0.0,0.0,0.0,0.0,0.0,0.0,0.0,0.0,0.0,0.0,0.0,0.0,0.0,0.0,0.0,0.0,0.0,0.0,0.0,0.0,0.0,0.0,0.0,0.0,0.0,0.0,0.0,0.0,0.0,0.0,0.0,0.0,0.0,0.0,0.0,0.0,0.0,0.0,0.0,0.0,0.0,0.0,0.0,0.0,0.0,0.0,0.0,0.0,0.0,0.0,0.0,0.0,0.0,0.0,0.0,0.0,0.0,0.0,0.0,0.0,0.0,0.0,0.0,0.0,0.0,0.0,0.0,0.0,0.0,0.0,0.0,0.0,0.0,0.0,0.0,0.0,0.0,0.0,0.0,0.0,0.0,0.0,0.0,0.0,0.0,0.0,0.0,0.0,0.0,0.0,0.0,0.0,0.0,0.0,0.0,0.0,0.0,0.0,0.0,0.0,0.0,0.0,0.0,0.0,0.0,0.0,0.0,0.0,0.0,0.0,0.0,0.0,0.0,0.0,0.0,0.0,0.0,0.0,0.0,0.0,0.0,0.0,0.0,0.0,0.0,0.0,0.0,0.0,0.0,0.0,0.0,0.0,0.0,0.0,0.0,0.0,0.0,0.0,0.0,0.0,0.0,0.0,0.0,0.0,0.0,0.0,0.0,0.0,0.0,0.0,0.0,0.0,0.0,0.0,0.0,0.0,0.0,0.0,0.0,0.0,0.0,0.0,0.0,0.0,0.0,0.0,0.0,0.0,0.0,0.0,0.0,0.0,0.0,0.0,0.0,0.0,0.0,0.0,0.0,0.0,0.0,0.0,0.0,0.0,0.0,0.0,0.0,0.0,0.0,0.0,0.0,0.0,0.0,0.0,0.0,0.0,0.0,0.0,0.0,0.0,0.0,0.0,0.0,0.3228,0.0,0.0,0.0,0.0,0.0,0.0,0.0,0.0,0.0,0.0,0.0,0.0,0.0,0.0,0.0,0.0,0.0,0.0,0.0,0.0,0.0,0.0,0.0,0.0,0.0,0.0,0.0,0.0,0.0,0.0,0.0,0.0,0.0,0.0,0.0,0.0,0.0,0.0,0.0,0.0,0.0,0.0,0.0,0.0,0.0,0.0,0.0,0.0,0.0,0.0,0.0,0.0,0.0,0.0,0.0,0.0,0.0,0.0,0.0,0.0,0.0,0.0,0.0,0.0,0.0,0.0,0.0,0.0,0.0,0.0,0.0,0.0,0.0,0.0,0.0,0.0,0.0,0.0,0.0,0.0,0.0,0.0,0.0,0.0,0.0,0.0,0.0,0.0,0.0,0.0,0.0,0.0,0.0,0.0,0.0,0.0,0.0,0.0,0.0,0.0,0.0,0.0,0.0,0.0,0.0,0.0,0.0,0.0,0.0,0.0,0.3947,0.3855,0.3721,0.3561,0.3385,0.0,0.0,0.0,0.0,0.0,0.0,0.0,0.0,0.0,0.0,0.0,0.0,0.0,0.0,0.0,0.0,0.0,0.0,0.0,0.0,0.0,0.0,0.0,0.0,0.0,0.0,0.0,0.0,0.0,0.0,0.0,0.0,0.0,0.0,0.0,0.0,0.0,0.0,0.0,0.0,0.0,0.0,0.0,0.0,0.0,0.0,0.0,0.0,0.0,0.0,0.0,0.0,0.0,0.0,0.0,0.0,0.0,0.0,0.0,0.0,0.0,0.0,0.0,0.0,0.0,0.0,0.0,0.0,0.0,0.0,0.0,0.0,0.0,0.0,0.0,0.0,0.0,0.0,0.0,0.0,0.0,0.0,0.0,0.0,0.0,0.0,0.0,0.0,0.0,0.0,0.0,0.0,0.0,0.0,0.0,0.0,0.0,0.0,0.0,0.0,0.0,0.0,0.0,0.0,0.0,0.0,0.0,0.0,0.0,0.0,0.0,0.0,0.3876,0.3742,0.3641,0.0,0.0,0.0,0.0,0.0,0.0,0.0,0.0,0.0,0.0,0.0,0.0,0.0,0.0,0.0,0.0,0.0,0.0,0.0,0.0,0.0,0.0,0.0,0.0,0.0,0.0,0.0,0.0,0.0,0.0,0.0,0.0,0.0,0.0,0.0,0.0,0.0,0.0,0.0,0.0,0.0,0.0,0.0,0.0,0.0,0.0,0.0,0.0,0.0,0.0,0.0,0.0,0.0,0.0,0.0,0.0,0.0,0.0,0.0,0.0,0.0,0.0,0.0,0.0,0.0,0.0,0.0,0.0,0.0,0.0,0.0,0.0,0.0,0.0,0.0,0.0,0.0,0.0,0.0,0.0,0.0,0.0,0.0,0.0,0.0,0.0,0.0,0.0,0.0,0.0,0.0,0.0,0.0,0.0,0.0,0.0,0.0,0.0,0.0,0.0,0.0,0.0,0.0,0.0,0.0,0.0,0.0,0.0,0.0,0.0,0.4038,0.4366,0.4343,0.0,0.4049,0.0,0.0,0.0,0.0,0.0,0.0,0.0,0.0,0.0,0.0,0.0,0.0,0.0,0.0,0.0,0.0,0.0,0.0,0.0,0.0,0.0,0.0,0.0,0.0,0.0,0.0,0.0,0.0,0.0,0.0,0.0,0.0,0.0,0.0,0.0,0.0,0.0,0.0,0.0,0.0,0.0,0.0,0.0,0.0,0.0,0.0,0.0,0.0,0.0,0.0,0.0,0.0,0.0,0.0,0.0,0.0,0.0,0.0,0.0,0.0,0.0,0.0,0.0,0.0,0.0,0.0,0.0,0.0,0.0,0.0,0.0,0.0,0.0,0.0,0.0,0.0,0.0,0.0,0.0,0.0,0.0,0.0,0.0,0.0,0.0,0.0,0.0,0.0,0.0,0.0,0.0,0.0,0.0,0.0,0.0,0.0,0.0,0.0,0.0,0.0,0.0,0.0,0.0,0.0,0.0,0.0,0.0,0.0,0.0,0.0,0.4147,0.4577,0.4472,0.4354,0.0,0.0,0.0,0.0,0.0,0.0,0.0,0.0,0.0,0.0,0.0,0.0,0.0,0.0,0.0,0.0,0.0,0.0,0.0,0.0,0.0,0.0,0.0,0.0,0.0,0.0,0.0,0.0,0.0,0.0,0.0,0.0,0.0,0.0,0.0,0.0,0.0,0.0,0.0,0.0,0.0,0.0,0.0,0.0,0.0,0.0,0.0,0.0,0.0,0.0,0.0,0.0,0.0,0.0,0.0,0.0,0.0,0.0,0.0,0.0,0.0,0.0,0.0,0.0,0.0,0.0,0.0,0.0,0.0,0.0,0.0,0.0,0.0,0.0,0.0,0.0,0.0,0.0,0.0,0.0,0.0,0.0,0.0,0.0,0.0,0.0,0.0,0.0,0.0,0.0,0.0,0.0,0.0,0.0,0.0,0.0,0.0,0.0,0.0,0.0,0.0,0.0,0.0,0.0,0.0,0.0,0.0,0.0,0.0,0.0,0.4119,0.4288,0.475,0.4632,0.4499,0.4404,0.0,0.0,0.0,0.0,0.0,0.0,0.0,0.0,0.0,0.0,0.0,0.0,0.0,0.0,0.0,0.0,0.0,0.0,0.0,0.0,0.0,0.0,0.0,0.0,0.0,0.0,0.0,0.0,0.0,0.0,0.0,0.0,0.0,0.0,0.0,0.0,0.0,0.0,0.0,0.0,0.0,0.0,0.0,0.0,0.0,0.0,0.0,0.0,0.0,0.0,0.0,0.0,0.0,0.0,0.0,0.0,0.0,0.0,0.0,0.0,0.0,0.0,0.0,0.0,0.0,0.0,0.0,0.0,0.0,0.0,0.0,0.0,0.0,0.0,0.0,0.0,0.0,0.0,0.0,0.0,0.0,0.0,0.0,0.0,0.0,0.0,0.0,0.0,0.0,0.0,0.0,0.0,0.0,0.0,0.0,0.0,0.0,0.0,0.0,0.0,0.0,0.0,0.0,0.0,0.0,0.0,0.0,0.0,0.0,0.4409,0.4455,0.4983,0.4983,0.4793,0.0,0.0,0.0,0.0,0.0,0.0,0.0,0.0,0.0,0.0,0.0,0.0,0.0,0.0,0.0,0.0,0.0,0.0,0.0,0.0,0.0,0.0,0.0,0.0,0.0,0.0,0.0,0.0,0.0,0.0,0.0,0.0,0.0,0.0,0.0,0.0,0.0,0.0,0.0,0.0,0.0,0.0,0.0,0.0,0.0,0.0,0.0,0.0,0.0,0.0,0.0,0.0,0.0,0.0,0.0,0.0,0.0,0.0,0.0,0.0,0.0,0.0,0.0,0.0,0.0,0.0,0.0,0.0,0.0,0.0,0.0,0.0,0.0,0.0,0.0,0.0,0.0,0.0,0.0,0.0,0.0,0.0,0.0,0.0,0.0,0.0,0.0,0.0,0.0,0.0,0.0,0.0,0.0,0.0,0.0,0.0,0.0,0.0,0.0,0.0,0.0,0.0,0.0,0.0,0.0,0.0,0.0,0.0,0.0,0.4047,0.4219,0.4851,0.5882,0.5101,0.4774,0.0,0.0,0.0,0.0,0.0,0.0,0.0,0.0,0.0,0.0,0.0,0.0,0.0,0.0,0.0,0.0,0.0,0.0,0.0,0.0,0.0,0.0,0.0,0.0,0.0,0.0,0.0,0.0,0.0,0.0,0.0,0.0,0.0,0.0,0.0,0.0,0.0,0.0,0.0,0.0,0.0,0.0,0.0,0.0,0.0,0.0,0.0,0.0,0.0,0.0,0.0,0.0,0.0,0.0,0.0,0.0,0.0,0.0,0.0,0.0,0.0,0.0,0.0,0.0,0.0,0.0,0.0,0.0,0.0,0.0,0.0,0.0,0.0,0.0,0.0,0.0,0.0,0.0,0.0,0.0,0.0,0.0,0.0,0.0,0.0,0.0,0.0,0.0,0.0,0.0,0.0,0.0,0.0,0.0,0.0,0.0,0.0,0.0,0.0,0.0,0.0,0.0,0.0,0.0,0.0,0.0,0.0,0.0,0.0,0.4467,0.0,0.5696,0.0,0.5403,0.4925,0.0,0.0,0.0,0.0,0.0,0.0,0.0,0.0,0.0,0.0,0.0,0.0,0.0,0.0,0.0,0.0,0.0,0.0,0.0,0.0,0.0,0.0,0.0,0.0,0.0,0.0,0.0,0.0,0.0,0.0,0.0,0.0,0.0,0.0,0.0,0.0,0.0,0.0,0.0,0.0,0.0,0.0,0.0,0.0,0.0,0.0,0.0,0.0,0.0,0.0,0.0,0.0,0.0,0.0,0.0,0.0,0.0,0.0,0.0,0.0,0.0,0.0,0.0,0.0,0.0,0.0,0.0,0.0,0.0,0.0,0.0,0.0,0.0,0.0,0.0,0.0,0.0,0.0,0.0,0.0,0.0,0.0,0.0,0.0,0.0,0.0,0.0,0.0,0.0,0.0,0.0,0.0,0.0,0.0,0.0,0.0,0.0,0.0,0.0,0.0,0.0,0.0,0.0,0.0,0.0,0.0,0.0,0.0,0.5169,0.6223,0.6893,0.693,0.6358,0.599,0.5305,0.0,0.0,0.0,0.0,0.0,0.0,0.0,0.0,0.0,0.0,0.0,0.0,0.0,0.0,0.0,0.0,0.0,0.0,0.0,0.0,0.0,0.0,0.0,0.0,0.0,0.0,0.0,0.0,0.0,0.0,0.0,0.0,0.0,0.0,0.0,0.0,0.0,0.0,0.0,0.0,0.0,0.0,0.0,0.0,0.0,0.0,0.0,0.0,0.0,0.0,0.0,0.0,0.0,0.0,0.0,0.0,0.0,0.0,0.0,0.0,0.0,0.0,0.0,0.0,0.0,0.0,0.0,0.0,0.0,0.0,0.0,0.0,0.0,0.0,0.0,0.0,0.0,0.0,0.0,0.0,0.0,0.0,0.0,0.0,0.0,0.0,0.0,0.0,0.0,0.0,0.0,0.0,0.0,0.0,0.0,0.0,0.0,0.0,0.0,0.0,0.0,0.0,0.0,0.0,0.0,0.0,0.0,0.0,0.0,0.5911,0.654,0.7202,0.7798,0.6475,0.5942,0.0,0.0,0.0,0.0,0.0,0.0,0.0,0.0,0.0,0.0,0.0,0.0,0.0,0.0,0.0,0.0,0.0,0.0,0.0,0.0,0.0,0.0,0.0,0.0,0.0,0.0,0.0,0.0,0.0,0.0,0.0,0.0,0.0,0.0,0.0,0.0,0.0,0.0,0.0,0.0,0.0,0.0,0.0,0.0,0.0,0.0,0.0,0.0,0.0,0.0,0.0,0.0,0.0,0.0,0.0,0.0,0.0,0.0,0.0,0.0,0.0,0.0,0.0,0.0,0.0,0.0,0.0,0.0,0.0,0.0,0.0,0.0,0.0,0.0,0.0,0.0,0.0,0.0,0.0,0.0,0.0,0.0,0.0,0.0,0.0,0.0,0.0,0.0,0.0,0.0,0.0,0.0,0.0,0.0,0.0,0.0,0.0,0.0,0.0,0.0,0.0,0.0,0.0,0.0,0.0,0.0,0.0,0.0,0.0,0.7204,0.7794,0.84,0.8972,0.7556,0.6833,0.6894,0.0,0.0,0.0,0.0,0.0,0.0,0.0,0.0,0.0,0.0,0.0,0.0,0.0,0.0,0.0,0.0,0.0,0.0,0.0,0.0,0.0,0.0,0.0,0.0,0.0,0.0,0.0,0.0,0.0,0.0,0.0,0.0,0.0,0.0,0.0,0.0,0.0,0.0,0.0,0.0,0.0,0.0,0.0,0.0,0.0,0.0,0.0,0.0,0.0,0.0,0.0,0.0,0.0,0.0,0.0,0.0,0.0,0.0,0.0,0.0,0.0,0.0,0.0,0.0,0.0,0.0,0.0,0.0,0.0,0.0,0.0,0.0,0.0,0.0,0.0,0.0,0.0,0.0,0.0,0.0,0.0,0.0,0.0,0.0,0.0,0.0,0.0,0.0,0.0,0.0,0.0,0.0,0.0,0.0,0.0,0.0,0.0,0.0,0.0,0.0,0.0,0.0,0.0,0.0,0.0,0.0,0.0,0.0,0.9697,1.036,1.0354,0.9753,0.9,0.7912,0.0,0.0,0.0,0.0,0.0,0.0,0.0,0.0,0.0,0.0,0.0,0.0,0.0,0.0,0.0,0.0,0.0,0.0,0.0,0.0,0.0,0.0,0.0,0.0,0.0,0.0,0.0,0.0,0.0,0.0,0.0,0.0,0.0,0.0,0.0,0.0,0.0,0.0,0.0,0.0,0.0,0.0,0.0,0.0,0.0,0.0,0.0,0.0,0.0,0.0,0.0,0.0,0.0,0.0,0.0,0.0,0.0,0.0,0.0,0.0,0.0,0.0,0.0,0.0,0.0,0.0,0.0,0.0,0.0,0.0,0.0,0.0,0.0,0.0,0.0,0.0,0.0,0.0,0.0,0.0,0.0,0.0,0.0,0.0,0.0,0.0,0.0,0.0,0.0,0.0,0.0,0.0,0.0,0.0,0.0,0.0,0.0,0.0,0.0,0.0,0.0,0.0,0.0,0.0,0.0,0.0,0.0,0.0,0.0,1.0682,1.156,1.1706,1.1085,0.9754,0.8733,0.0,0.0,0.0,0.0,0.0,0.0,0.0,0.0,0.0,0.0,0.0,0.0,0.0,0.0,0.0,0.0,0.0,0.0,0.0,0.0,0.0,0.0,0.0,0.0,0.0,0.0,0.0,0.0,0.0,0.0,0.0,0.0,0.0,0.0,0.0,0.0,0.0,0.0,0.0,0.0,0.0,0.0,0.0,0.0,0.0,0.0,0.0,0.0,0.0,0.0,0.0,0.0,0.0,0.0,0.0,0.0,0.0,0.0,0.0,0.0,0.0,0.0,0.0,0.0,0.0,0.0,0.0,0.0,0.0,0.0,0.0,0.0,0.0,0.0,0.0,0.0,0.0,0.0,0.0,0.0,0.0,0.0,0.0,0.0,0.0,0.0,0.0,0.0,0.0,0.0,0.0,0.0,0.0,0.0,0.0,0.0,0.0,0.0,0.0,0.0,0.0,0.0,0.0,0.0,0.0,0.0,0.0,0.0,1.0258,1.1298,1.2365,1.2694,1.2215,1.0902,0.9735,0.0,0.0,0.0,0.0,0.0,0.0,0.0,0.0,0.0,0.0,0.0,0.0,0.0,0.0,0.0,0.0,0.0,0.0,0.0,0.0,0.0,0.0,0.0,0.0,0.0,0.0,0.0,0.0,0.0,0.0,0.0,0.0,0.0,0.0,0.0,0.0,0.0,0.0,0.0,0.0,0.0,0.0,0.0,0.0,0.0,0.0,0.0,0.0,0.0,0.0,0.0,0.0,0.0,0.0,0.0,0.0,0.0,0.0,0.0,0.0,0.0,0.0,0.0,0.0,0.0,0.0,0.0,0.0,0.0,0.0,0.0,0.0,0.0,0.0,0.0,0.0,0.0,0.0,0.0,0.0,0.0,0.0,0.0,0.0,0.0,0.0,0.0,0.0,0.0,0.0,0.0,0.0,0.0,0.0,0.0,0.0,0.0,0.0,0.0,0.0,0.0,0.0,0.0,0.0,0.0,0.0,0.0,0.0,1.1189,1.1847,1.3083,1.3582,1.3239,1.2166,1.0689,0.0,0.0,0.0,0.0,0.0,0.0,0.0,0.0,0.0,0.0,0.0,0.0,0.0,0.0,0.0,0.0,0.0,0.0,0.0,0.0,0.0,0.0,0.0,0.0,0.0,0.0,0.0,0.0,0.0,0.0,0.0,0.0,0.0,0.0,0.0,0.0,0.0,0.0,0.0,0.0,0.0,0.0,0.0,0.0,0.0,0.0,0.0,0.0,0.0,0.0,0.0,0.0,0.0,0.0,0.0,0.0,0.0,0.0,0.0,0.0,0.0,0.0,0.0,0.0,0.0,0.0,0.0,0.0,0.0,0.0,0.0,0.0,0.0,0.0,0.0,0.0,0.0,0.0,0.0,0.0,0.0,0.0,0.0,0.0,0.0,0.0,0.0,0.0,0.0,0.0,0.0,0.0,0.0,0.0,0.0,0.0,0.0,0.0,0.0,0.0,0.0,0.0,0.0,0.0,0.0,0.0,0.0,0.0,1.2822,1.3564,1.4645,1.5085,1.4788,1.2468,1.0652,0.0,0.0,0.0,0.0,0.0,0.0,0.0,0.0,0.0,0.0,0.0,0.0,0.0,0.0,0.0,0.0,0.0,0.0,0.0,0.0,0.0,0.0,0.0,0.0,0.0,0.0,0.0,0.0,0.0,0.0,0.0,0.0,0.0,0.0,0.0,0.0,0.0,0.0,0.0,0.0,0.0,0.0,0.0,0.0,0.0,0.0,0.0,0.0,0.2832,0.0,0.0,0.0,0.0,0.0,0.0,0.0,0.0,0.0,0.0,0.0,0.0,0.0,0.0,0.0,0.0,0.0,0.0,0.0,0.0,0.0,0.0,0.0,0.0,0.0,0.0,0.0,0.0,0.0,0.0,0.0,0.0,0.0,0.0,0.0,0.0,0.0,0.0,0.0,0.0,0.0,0.0,0.0,0.0,0.0,0.0,0.0,0.0,0.0,0.0,0.0,0.0,0.0,0.0,0.0,0.0,0.0,0.0,0.0,1.3365,1.4082,1.5155,1.5651,1.5411,1.3557,1.1836,0.0,0.0,0.0,0.0,0.0,0.0,0.0,0.0,0.0,0.0,0.0,0.0,0.0,0.0,0.0,0.0,0.0,0.0,0.0,0.0,0.0,0.0,0.0,0.0,0.0,0.0,0.0,0.0,0.0,0.0,0.0,0.0,0.0,0.0,0.0,0.0,0.0,0.0,0.0,0.0,0.0,0.0,0.0,0.0,0.0,0.0,0.0,0.0,0.0,0.0,0.0,0.0,0.0,0.0,0.0,0.0,0.0,0.0,0.0,0.0,0.0,0.0,0.0,0.0,0.0,0.0,0.0,0.0,0.0,0.0,0.0,0.0,0.0,0.0,0.0,0.0,0.0,0.0,0.0,0.0,0.0,0.0,0.0,0.0,0.0,0.0,0.0,0.0,0.0,0.0,0.0,0.0,0.0,0.0,0.0,0.0,0.0,0.0,0.0,0.0,0.0,0.0,0.0,0.0,0.0,0.0,0.0,1.2228,1.3658,1.4491,1.5536,1.6062,1.6044,1.4976,1.3502,1.1614,0.0,0.0,0.0,0.0,0.0,0.0,0.0,0.0,0.0,0.0,0.0,0.0,0.0,0.0,0.0,0.0,0.0,0.0,0.0,0.0,0.0,0.0,0.0,0.0,0.0,0.0,0.0,0.0,0.0,0.0,0.0,0.0,0.0,0.0,0.0,0.0,0.0,0.0,0.4214,0.4641,0.0,0.0,0.0,0.0,0.0,0.0,0.0,0.0,0.4105,0.0,0.0,0.0,0.0,0.0,0.0,0.0,0.0,0.0,0.0,0.0,0.0,0.0,0.0,0.0,0.0,0.0,0.0,0.0,0.0,0.0,0.0,0.0,0.0,0.0,0.0,0.0,0.0,0.0,0.0,0.0,0.0,0.0,0.0,0.0,0.0,0.0,0.0,0.0,0.0,0.0,0.0,0.0,0.0,0.0,0.0,0.0,0.0,0.0,0.0,0.0,0.0,0.0,0.0,0.0,0.0,1.2815,1.393,1.508,1.6246,1.7154,1.7613,1.7584,1.6421,1.4942,1.3167,0.0,0.0,0.0,0.0,0.0,0.0,0.0,0.0,0.0,0.0,0.0,0.0,0.0,0.0,0.0,0.0,0.0,0.0,0.0,0.0,0.0,0.0,0.0,0.0,0.0,0.0,0.0,0.0,0.0,0.0,0.0,0.0,0.0,0.0,0.0,0.0,0.0,0.0,0.0,0.5902,0.6024,0.0,0.0,0.0,0.0,0.0,0.0,0.0,0.0,0.424,0.0,0.0,0.0,0.0,0.0,0.0,0.0,0.0,0.0,0.0,0.0,0.0,0.0,0.0,0.0,0.0,0.0,0.0,0.0,0.0,0.0,0.0,0.0,0.0,0.0,0.0,0.0,0.0,0.0,0.0,0.0,0.0,0.0,0.0,0.0,0.0,0.0,0.0,0.0,0.0,0.0,0.0,0.0,0.0,0.0,0.0,0.0,0.0,0.0,0.0,0.0,0.0,0.0,0.0,0.0,1.2832,1.4561,1.5869,1.6687,1.7568,1.791,1.7666,1.6201,1.4589,0.0,0.0,0.0,0.0,0.0,0.0,0.0,0.0,0.0,0.0,0.0,0.0,0.0,0.0,0.0,0.0,0.0,0.0,0.0,0.0,0.0,0.0,0.0,0.0,0.0,0.0,0.0,0.0,0.0,0.0,0.0,0.0,0.0,0.0,0.0,0.0,0.0,0.0,0.0,0.0,0.6399,0.6501,0.6756,0.0,0.0,0.0,0.0,0.0,0.0,0.498,0.4713,0.0,0.0,0.0,0.0,0.0,0.0,0.0,0.0,0.0,0.0,0.0,0.0,0.0,0.0,0.0,0.0,0.0,0.0,0.0,0.0,0.0,0.0,0.0,0.0,0.0,0.0,0.0,0.0,0.0,0.0,0.0,0.0,0.0,0.0,0.0,0.0,0.0,0.0,0.0,0.0,0.0,0.0,0.0,0.0,0.0,0.0,0.0,0.0,0.0,0.0,0.0,0.0,0.0,0.0,0.0,1.2379,1.4657,1.6103,1.6697,1.748,1.7725,1.7363,1.5781,1.4105,0.0,0.0,0.0,0.0,0.0,0.0,0.0,0.0,0.0,0.0,0.0,0.0,0.0,0.0,0.0,0.0,0.0,0.0,0.0,0.0,0.0,0.0,0.0,0.0,0.0,0.0,0.0,0.0,0.0,0.0,0.0,0.0,0.0,0.0,0.0,0.0,0.0,0.0,0.0,0.0,0.0,0.6976,0.7004,0.6653,0.0,0.0,0.0,0.0,0.628,0.5952,0.0,0.0,0.0,0.0,0.0,0.0,0.0,0.0,0.0,0.0,0.0,0.0,0.0,0.0,0.0,0.0,0.0,0.0,0.0,0.0,0.0,0.0,0.0,0.0,0.0,0.0,0.0,0.0,0.0,0.0,0.0,0.0,0.0,0.0,0.0,0.0,0.0,0.0,0.0,0.0,0.0,0.0,0.0,0.0,0.0,0.0,0.0,0.0,0.0,0.0,0.0,0.0,0.0,0.0,0.0,0.0,1.2807,1.4236,1.5518,1.6648,1.7207,1.7422,1.7396,1.6055,1.4543,0.0,0.0,0.0,0.0,0.0,0.0,0.0,0.0,0.0,0.0,0.0,0.0,0.0,0.0,0.0,0.0,0.0,0.0,0.0,0.0,0.0,0.0,0.0,0.0,0.0,0.0,0.0,0.0,0.0,0.0,0.0,0.0,0.0,0.0,0.0,0.0,0.0,0.0,0.0,0.0,0.0,0.7903,0.7116,0.7198,0.7229,0.0,0.0,0.7208,0.7245,0.7386,0.0,0.0,0.0,0.0,0.0,0.0,0.0,0.0,0.0,0.0,0.0,0.0,0.0,0.0,0.0,0.0,0.0,0.0,0.0,0.0,0.0,0.0,0.0,0.0,0.0,0.0,0.0,0.0,0.0,0.0,0.0,0.0,0.0,0.0,0.0,0.0,0.0,0.0,0.0,0.0,0.0,0.0,0.0,0.0,0.0,0.0,0.0,0.0,0.0,0.0,0.0,0.0,0.0,0.0,0.0,1.1818,1.3402,1.5148,1.65,1.7345,1.746,1.7561,1.7667,1.5497,1.3813,0.0,0.0,0.0,0.0,0.0,0.0,0.0,0.0,0.0,0.0,0.0,0.0,0.0,0.0,0.0,0.0,0.0,0.0,0.0,0.0,0.0,0.0,0.0,0.0,0.0,0.0,0.0,0.0,0.0,0.0,0.0,0.0,0.0,0.0,0.0,0.0,0.0,0.0,0.0,0.0,0.0,0.0,0.836,0.8182,0.0,0.0,0.0,0.8005,0.7954,0.0,0.0,0.0,0.0,0.0,0.0,0.0,0.0,0.0,0.0,0.0,0.0,0.0,0.0,0.0,0.0,0.0,0.0,0.0,0.0,0.0,0.0,0.0,0.0,0.0,0.0,0.0,0.0,0.0,0.0,0.0,0.0,0.0,0.0,0.0,0.0,0.0,0.0,0.0,0.0,0.0,0.0,0.0,0.0,0.0,0.0,0.0,0.0,0.0,0.0,0.0,0.0,0.0,0.0,0.0,0.0,0.0,1.3808,1.5951,1.731,1.7875,1.7768,1.7738,1.7835,1.5648,0.0,0.0,0.0,0.0,0.0,0.0,0.0,0.0,0.0,0.0,0.0,0.0,0.0,0.0,0.0,0.0,0.0,0.0,0.0,0.0,0.0,0.0,0.0,0.0,0.0,0.0,0.0,0.3754,0.0,0.0,0.0,0.0,0.0,0.0,0.0,0.0,0.0,0.0,0.0,0.0,0.0,0.0,0.8272,0.9246,0.894,0.8743,0.0,0.0,0.8643,0.8724,0.8851,0.8341,0.0,0.0,0.0,0.0,0.0,0.0,0.0,0.0,0.0,0.0,0.0,0.0,0.0,0.0,0.0,0.0,0.0,0.0,0.0,0.0,0.0,0.0,0.0,0.0,0.0,0.0,0.0,0.0,0.0,0.0,0.0,0.0,0.0,0.0,0.0,0.0,0.0,0.0,0.0,0.0,0.0,0.0,0.0,0.0,0.0,0.0,0.0,0.0,0.0,0.0,0.0,0.0,0.0,0.0,1.2457,1.3821,1.6036,1.7418,1.7883,1.7908,1.7868,1.7894,1.7298,1.5545,0.0,0.0,0.0,0.0,0.0,0.0,0.0,0.0,0.0,0.0,0.0,0.0,0.0,0.0,0.0,0.0,0.0,0.0,0.0,0.0,0.0,0.0,0.0,0.0,0.0,0.0,0.0,0.0,0.0,0.0,0.0,0.0,0.0,0.0,0.0,0.0,0.0,0.0,0.0,0.0,0.0,0.9076,0.9042,0.9092,0.9313,0.0,0.9456,0.9251,0.9552,1.007,0.9639,0.7317,0.0,0.0,0.0,0.0,0.0,0.0,0.0,0.0,0.0,0.0,0.0,0.0,0.0,0.0,0.0,0.0,0.0,0.0,0.0,0.0,0.0,0.0,0.0,0.0,0.0,0.0,0.0,0.0,0.0,0.0,0.0,0.0,0.0,0.0,0.0,0.0,0.0,0.0,0.0,0.0,0.0,0.0,0.0,0.0,0.0,0.0,0.0,0.0,0.0,0.0,0.0,0.0,0.0,1.3183,1.4663,1.671,1.802,1.8545,1.8214,1.8197,1.8556,1.7427,1.5897,0.0,0.0,0.0,0.0,0.0,0.0,0.0,0.0,0.0,0.0,0.0,0.0,0.0,0.0,0.0,0.0,0.0,0.0,0.0,0.0,0.0,0.0,0.0,0.0,0.0,0.0,0.0,0.0,0.6322,0.6238,0.5844,0.0,0.0,0.0,0.0,0.0,0.0,0.0,0.0,0.0,0.0,1.0382,1.0963,1.101,0.0,0.0,1.0558,1.0212,0.9751,0.9595,0.8978,0.7551,0.7024,0.0,0.0,0.0,0.0,0.0,0.0,0.0,0.0,0.0,0.0,0.0,0.0,0.0,0.0,0.0,0.0,0.0,0.0,0.0,0.0,0.0,0.0,0.0,0.0,0.0,0.0,0.0,0.0,0.0,0.0,0.0,0.0,0.0,0.0,0.0,0.0,0.0,0.0,0.0,0.0,0.0,0.0,0.0,0.0,0.0,0.0,0.0,0.0,0.0,0.0,0.0,0.0,1.3788,1.53,1.7389,1.8709,1.9093,1.8697,1.8709,1.9066,1.7984,1.6692,0.0,0.0,0.0,0.0,0.0,0.0,0.0,0.0,0.0,0.0,0.0,0.0,0.0,0.0,0.0,0.0,0.0,0.0,0.0,0.0,0.0,0.0,0.0,0.0,0.0,0.0,0.0,0.0,0.7256,0.68,0.6098,0.0,0.0,0.0,0.0,0.0,0.0,0.0,0.0,0.0,0.0,1.1529,1.2371,1.2068,1.1641,1.1306,1.085,1.0333,0.9793,0.9367,0.881,0.7977,0.0,0.0,0.0,0.0,0.0,0.0,0.0,0.0,0.0,0.0,0.0,0.0,0.0,0.0,0.0,0.0,0.0,0.0,0.0,0.0,0.0,0.0,0.0,0.0,0.0,0.0,0.0,1.0804,0.0,0.0,0.9579,0.0,0.0,0.0,0.0,0.0,0.0,0.0,0.0,0.0,0.0,0.0,0.0,0.0,0.0,0.0,0.0,0.0,0.0,0.0,0.0,0.0,0.0,1.4093,1.5513,1.8004,1.9342,1.9368,1.9368,1.9342,1.9368,1.9237,1.8243,1.6396,0.0,0.0,0.0,0.0,0.0,0.0,0.0,0.0,0.0,0.0,0.0,0.0,0.0,0.0,0.0,0.0,0.0,0.0,0.0,0.0,0.0,0.0,0.0,0.0,0.0,0.0,0.8287,0.7607,0.6787,0.0,0.0,0.0,0.0,0.0,0.0,0.0,0.0,0.0,1.1166,1.1783,1.23,1.2894,1.1816,1.105,1.0994,1.0038,0.9394,0.9739,0.9797,0.9583,0.0,0.0,0.0,0.0,0.0,0.0,0.0,0.0,0.0,0.0,0.0,0.0,0.0,0.0,0.0,0.0,0.0,0.0,0.0,0.0,0.0,0.0,0.0,0.0,0.0,0.0,0.0,1.4659,1.3358,0.0,0.0,0.0,0.0,0.0,0.0,0.0,0.0,0.0,0.0,0.0,1.9296,1.9488,0.0,0.0,0.0,0.0,0.0,0.0,0.0,0.0,0.0,0.0,0.0,0.0,1.4545,1.575,1.7967,1.9131,1.9119,1.9119,1.9184,1.9249,1.9223,1.8431,1.6838,0.0,0.0,0.0,0.0,0.0,0.0,0.0,0.0,0.0,0.0,0.0,0.0,0.0,0.0,0.0,0.0,0.0,0.0,0.0,0.0,0.0,0.0,0.0,0.0,0.0,0.8105,0.0,0.0,0.0,0.0,0.0,0.0,0.0,0.0,0.0,0.0,0.0,1.1232,1.2389,1.2737,1.3045,1.3413,1.3059,1.2795,0.0,0.0,0.0,0.0,0.0,0.0,0.0,0.0,0.0,0.0,0.0,0.0,0.0,0.0,0.7772,0.6062,0.5515,0.5177,0.4843,0.0,0.0,0.0,0.0,0.0,0.0,0.0,0.0,0.0,0.0,0.0,0.0,0.0,0.0,1.8579,1.7756,1.6741,0.0,0.0,0.0,0.0,0.0,0.0,0.0,0.0,2.0989,2.2381,2.2831,2.2828,2.227,2.1316,1.9699,1.7307,0.0,0.0,0.0,0.0,0.0,0.0,0.0,0.0,1.5243,1.6317,1.8251,1.9277,1.9265,1.9291,1.9317,1.942,1.9368,1.8767,1.76,1.5982,1.4737,0.0,0.0,0.0,0.0,0.0,0.0,0.0,0.0,0.0,0.0,0.0,0.0,0.0,0.0,0.0,0.0,0.0,0.0,0.0,0.0,0.0,0.0,0.0,0.8655,0.0,0.0,0.0,0.0,0.0,0.0,0.0,0.0,0.0,1.0885,1.1845,1.2868,1.3777,1.3972,1.4009,1.3855,0.0,0.0,0.0,0.0,0.0,0.0,0.0,1.0651,1.091,1.0257,0.9758,1.0013,1.0046,0.995,0.9749,0.0,0.0,0.7535,0.697,0.6618,0.6281,0.6123,0.5801,0.5054,0.4995,0.4907,0.0,0.0,0.0,0.0,2.0393,0.0,0.0,0.0,2.3751,2.3934,0.0,2.1931,0.0,0.0,0.0,0.0,1.7704,2.0837,0.0,0.0,2.5825,2.6874,2.5339,2.5205,2.4898,2.4354,2.301,2.1468,1.9786,1.6557,0.0,0.0,0.0,0.0,0.0,0.0,1.6058,1.7194,1.8908,1.9785,1.9773,1.9773,1.9785,1.9773,1.9656,1.9304,1.8646,1.8068,1.7154,1.572,1.3796,0.0,0.0,0.0,0.0,0.0,0.0,0.0,0.0,0.0,0.0,0.0,0.0,0.0,0.0,0.0,0.0,0.0,0.0,0.0,0.0,0.9381,0.0,0.0,0.0,0.0,0.0,0.0,0.0,0.0,0.0,1.2437,1.2939,1.3607,1.4406,1.5225,0.0,0.0,0.0,0.0,1.357,1.2795,1.2391,1.2256,1.2307,1.256,1.2894,1.3408,0.0,0.0,1.2212,1.1276,1.0521,0.9889,0.9993,1.0047,0.9726,0.8917,0.8377,0.8423,0.7905,0.7263,0.6653,0.6582,0.6487,2.9621,0.0,0.0,0.0,0.0,2.5052,2.6112,2.7666,2.7418,2.6794,2.5948,2.5411,0.0,0.0,0.0,0.0,0.0,0.0,2.3828,2.4932,2.6537,2.7427,2.7654,2.8072,2.7721,2.6669,2.5001,2.379,2.2875,2.064,1.7998,1.5039,0.0,0.0,0.0,0.0,1.6539,1.7624,1.8869,1.9512,1.9512,1.9512,1.9565,1.9656,1.9708,1.9658,1.9457,1.8933,1.8236,1.7329,1.6024,0.0,0.0,0.0,0.0,0.0,0.0,0.0,0.0,0.0,0.0,0.0,0.0,0.0,0.0,0.0,0.0,0.0,0.0,0.0,0.8905,0.962,0.9891,0.0,0.0,0.0,0.0,0.0,0.0,0.0,0.0,0.0,1.5028,1.4551,1.4192,0.0,0.0,1.428,1.376,1.4144,1.4648,1.5013,1.4725,0.0,1.5305,1.4558,1.401,1.4264,1.419,1.3746,1.2808,1.245,1.2,1.1081,1.0822,1.0648,1.0392,0.994,0.9473,0.9152,0.8981,0.8624,0.7876,0.74,0.7047,3.5277,3.1124,2.9663,2.8902,2.8665,2.839,2.9232,3.0742,3.0364,2.99,2.9421,2.8884,2.765,2.5883,2.4897,0.0,0.0,0.0,2.6292,2.7524,2.8168,2.8798,2.9377,2.9546,2.9192,2.8365,2.6556,2.5517,2.519,2.3392,2.1082,1.8272,0.0,1.6293,1.6272,1.694,1.7596,1.8301,1.938,1.9788,1.9565,1.9565,1.9565,1.9617,1.9734,1.9773,1.9734,1.9446,1.9121,1.8696,1.7626,1.6122,0.0,0.0,0.0,0.0,0.0,0.0,0.0,0.0,0.0,0.0,0.0,0.8144,0.6739,0.0,0.0,0.0,0.8957,1.0007,1.1267,1.1526,0.0,0.0,0.0,0.0,0.0,0.0,0.0,1.4438,1.4842,1.5413,1.6347,1.5555,1.5029,1.5371,1.5245,1.4981,1.458,0.0,1.5674,1.6046,1.5996,1.6093,1.6599,1.6011,1.5511,1.5616,1.5311,1.4824,1.4195,1.3716,1.3036,1.212,1.1624,1.1221,1.071,1.0439,1.0195,0.9879,0.9882,0.9648,0.8888,0.8395,0.8049,3.9988,3.8566,3.3985,3.202,3.182,3.1222,3.1598,3.2611,3.2672,3.2962,3.3402,3.2208,3.1322,3.0627,2.8303,0.0,2.8101,2.871,2.9261,2.9769,3.0379,3.0656,3.0582,2.9976,2.9677,2.9638,2.776,2.6884,2.6764,2.5108,2.3662,2.2483,2.0335,1.9121,1.8896,1.8921,1.9021,1.9158,2.015,2.044,1.9886,1.9874,1.9771,1.9604,1.9734,1.9747,1.963,1.9734,1.9798,1.9773,1.8746,1.7439,1.5853,0.0,0.0,0.0,0.0,0.0,0.0,0.0,0.0,0.0,0.0,0.0,0.0,0.0,0.0,0.0,1.1982,0.0,1.4883,1.4452,0.0,0.0,0.0,1.4552,1.5073,1.5811,1.649,1.6983,0.0,0.0,1.7244,1.6749,1.662,1.7412,1.7031,1.6541,1.6153,1.6426,1.6599,1.63,1.6562,1.6794,1.6892,1.6976,1.7035,1.7079,1.6733,1.6201,1.5721,1.4866,1.381,1.2826,1.234,1.1804,1.083,1.0699,1.0656,1.0573,1.0548,1.0358,0.9729,0.9462,0.9201,4.096,4.0194,3.8498,3.6763,3.5049,3.4518,3.4124,3.3931,3.3964,3.3775,3.3474,3.3137,3.2658,3.2034,3.1424,3.1205,3.1364,3.1509,3.1424,3.109,3.1221,3.1032,3.0582,3.0417,3.0375,3.0277,2.8884,2.7996,2.751,2.6168,2.484,2.3635,2.2644,2.1302,1.961,1.9584,1.9836,2.0289,2.0566,2.0629,2.0503,2.0478,2.025,1.9772,1.9773,1.9773,1.9759,1.9773,1.9798,1.9798,1.9534,1.8845,1.7606,1.5071,0.0,0.0,0.0,0.0,0.0,0.0,0.0,0.0,0.0,1.153,0.9102,0.0,1.2853,0.0,1.382,1.5067,1.5279,1.5763,0.0,0.0,1.6192,1.6318,1.7816,1.7508,1.7526,1.8343,1.8311,1.8412,1.8817,1.8717,1.8628,1.8598,1.7511,1.6541,1.6193,1.678,1.7197,1.7151,1.7402,1.7672,1.7652,1.7596,1.7557,1.756,1.7226,1.6777,1.6079,1.5385,1.457,1.3573,1.3022,1.24,1.1479,1.1303,1.1115,1.0713,1.0586,1.0561,1.0364,0.9907,0.9454,4.1423,4.1091,4.0515,3.8971,3.6955,3.6098,3.5429,3.482,3.453,3.4211,3.3891,3.3891,3.3688,3.3369,3.3354,3.3209,3.2948,3.2948,3.2585,3.1961,3.1625,3.1322,3.0988,3.0743,3.0612,3.0583,2.9589,2.8925,2.8554,2.7611,2.6497,2.526,2.4942,2.3757,2.1773,2.116,2.0682,2.0302,2.0566,2.0817,2.1043,2.0817,2.0415,1.9823,1.9572,1.9334,1.9095,1.9095,1.9095,1.9083,1.9095,1.8719,1.7852,1.5927,1.4425,0.0,0.0,0.0,0.0,0.0,0.0,0.0,0.0,0.0,0.0,0.0,1.4939,1.4669,1.5998,1.7002,1.7322,1.784,1.8348,1.888,1.869,1.8932,1.9953,1.9806,1.9808,2.0294,2.0064,1.9907,2.0133,1.9882,1.9523,1.9069,1.8261,1.7521,1.7086,1.7406,1.7666,1.7676,1.7861,1.8008,1.8008,1.7906,1.7784,1.7706,1.752,1.7095,1.6412,1.579,1.5094,1.4055,1.3498,1.2977,1.2127,1.1965,1.1756,1.1209,1.1028,1.0902,1.0649,1.0301,0.997,4.1588,4.1555,4.1088,3.9884,3.8162,3.7042,3.602,3.5116,3.453,3.4298,3.4298,3.4385,3.438,3.438,3.438,3.4109,3.3634,3.362,3.3253,3.2614,3.2034,3.1685,3.1496,3.0959,3.0685,3.0583,3.0016,2.9682,2.9566,2.9073,2.8181,2.6961,2.682,2.5924,2.4231,2.3098,2.1763,2.0283,2.0737,2.123,2.1595,2.1035,2.0377,1.9723,1.9233,1.8793,1.8313,1.8228,1.824,1.8262,1.8228,1.8016,1.7612,1.648,1.5384,0.0,1.3276,0.0,0.0,0.0,0.0,0.0,0.0,0.0,0.0,1.6691,1.7352,1.7856,1.8458,1.9155,2.0037,2.0169,2.0358,2.075,2.1223,2.1512,2.1524,2.1921,2.2197,2.2197,2.1632,2.1262,2.1207,2.072,2.0096,1.9507,1.9333,1.9007,1.8398,1.8094,1.7978,1.8008,1.8008,1.8008,1.8008,1.7974,1.7862,1.7716,1.752,1.7241,1.662,1.608,1.5369,1.446,1.3917,1.3407,1.2757,1.2604,1.2397,1.1756,1.1545,1.1272,1.0744,1.0561,1.0586,4.1588,4.1588,4.1489,4.0699,3.9499,3.8773,3.6705,3.3852,3.3736,3.3678,3.3688,3.4182,3.438,3.438,3.438,3.4341,3.424,3.424,3.3891,3.3329,3.3184,3.2542,3.154,3.1395,3.1061,3.0627,3.0481,3.0132,2.9595,2.9465,2.8798,2.7531,2.7039,2.6152,2.4871,0.0,0.0,0.0,2.2666,2.2577,2.2213,2.1226,2.0226,1.9196,1.9058,0.0,1.8696,1.838,1.8356,1.8657,1.838,0.0,0.0,0.0,0.0,0.0,0.0,0.0,0.0,0.0,0.0,0.0,1.8044,1.7824,1.7219,1.878,2.0053,2.0622,2.1512,2.1981,2.1795,2.2168,2.2234,2.1933,2.1993,2.2041,2.2053,2.2137,2.2197,2.2197,2.2061,2.1999,2.1925,2.1874,2.1506,2.0807,2.0709,2.0452,1.9748,1.8741,1.8076,1.8008,1.8042,1.8008,1.8008,1.7862,1.7759,1.7564,1.7382,1.7042,1.6492,1.602,1.5551,1.4952,1.459,1.41,1.3442,1.3321,1.31,1.2451,1.188,1.1303,1.0744,1.0586,1.0586,4.1189,4.1189,4.0904,4.009,0.0,3.8687,3.6995,3.4433,3.4433,3.4273,3.3964,3.4269,3.438,3.4366,3.408,3.3949,3.3935,3.3616,3.3485,3.3489,3.3137,3.2817,3.2469,3.183,3.1351,3.1032,3.0727,3.0408,3.0103,3.0103,2.961,2.8638,2.8332,2.7731,2.685,2.6445,2.5526,2.4044,2.3798,2.3659,2.3632,2.2828,2.1996,2.1144,2.0867,0.0,0.0,0.0,0.0,0.0,0.0,0.0,0.0,0.0,0.0,1.8507,1.7743,1.7608,1.8396,1.866,1.9342,2.057,2.1321,2.116,1.988,2.1247,2.2282,2.259,2.3063,2.33,2.3047,2.322,2.3288,2.3023,2.2739,2.2582,2.259,2.2354,2.2197,2.2197,2.2197,2.2197,2.2197,2.2197,2.2012,2.1574,2.1241,2.0971,2.0512,1.9689,1.8954,1.8563,1.8168,1.8008,1.8008,1.793,1.7828,1.7725,1.7426,1.6987,1.6478,1.5895,1.5361,1.4973,1.4685,1.4357,1.41,1.398,1.3782,1.3161,1.2704,1.2128,1.1303,1.0807,1.0586,4.0799,4.0765,4.015,3.9269,3.8258,3.8273,3.7323,3.5726,3.5378,0.0,0.0,3.438,3.438,3.437,3.3862,3.3663,3.3634,3.3079,3.3122,3.3634,3.3093,3.3079,3.3431,3.2367,3.1712,3.1496,3.0974,3.0714,3.0612,3.0612,3.0351,2.9798,2.9668,2.9305,2.8695,2.8158,2.7117,2.5592,2.4693,2.4546,2.5134,2.4382,2.3715,2.3181,2.2727,2.2034,2.1029,2.1395,2.1156,2.0223,2.0593,2.0686,2.0318,2.018,2.0142,2.0269,2.024,2.0489,2.1094,2.1547,2.2217,2.3269,2.4016,2.3957,2.2793,2.351,2.402,2.4104,2.4116,2.4035,2.3917,2.3938,2.389,2.3818,2.3408,2.3132,2.3011,2.2618,2.233,2.2221,2.2197,2.2197,2.2197,2.2197,2.219,2.2066,2.1762,2.1388,2.1217,2.0555,1.9802,1.9276,1.8687,1.8202,1.8168,1.8042,1.8008,1.7886,1.7446,1.7008,1.6565,1.5895,1.5268,1.4967,1.4671,1.4536,1.4485,1.4455,1.4327,1.3761,1.3571,1.3139,1.1973,1.117,1.0751,4.0799,4.0765,4.0165,3.954,3.8956,3.8956,3.823,3.6896,3.527,3.4501,3.438,3.438,3.438,3.438,3.4327,3.4283,3.4269,3.4196,3.4196,3.4283,3.4182,3.3906,3.3503,3.3314,3.26,3.1538,3.1424,3.1105,3.0656,3.0612,3.0554,3.0379,2.99,2.9319,2.8752,2.8622,2.842,2.812,2.5996,2.5192,2.5809,2.428,2.3154,2.2645,2.2588,2.2387,2.2086,2.1823,2.1706,2.1894,2.1659,2.167,2.207,2.1676,2.1564,2.198,2.199,2.2209,2.2749,2.3283,2.3979,2.4851,2.4969,2.4881,2.4713,2.4688,2.4854,2.5291,2.5129,2.4903,2.4494,2.441,2.4254,2.3869,2.3746,2.3517,2.3132,2.2975,2.2734,2.2282,2.2197,2.2209,2.2197,2.2197,2.2347,2.2695,2.2638,2.2659,2.2365,2.1209,2.0205,1.9868,1.9309,1.8911,1.8754,1.8327,1.7993,1.774,1.7364,1.6985,1.6815,1.61,1.5534,1.5348,1.5025,1.4701,1.4563,1.4485,1.4455,1.4258,1.392,1.329,1.2489,1.1818,1.1202,4.0305,4.02,3.9334,3.8841,3.8612,3.8612,3.8303,3.7694,3.6519,3.5575,3.4951,3.4922,3.4733,3.4385,3.4051,3.3906,3.3891,3.3543,3.3572,3.3891,3.3906,3.3935,3.3949,3.3663,3.3184,3.2556,3.1845,3.138,3.1076,3.0786,3.0612,3.0583,3.0263,2.9987,2.974,2.9363,2.9363,2.9682,2.7949,2.715,2.7422,2.6659,2.6125,2.5868,2.5516,2.5282,2.5242,2.5021,2.4864,2.4751,2.4904,2.4922,2.4827,2.4599,2.4602,2.4815,2.4835,2.4892,2.5143,2.5351,2.5769,2.6432,2.6097,2.5816,2.5691,2.5426,2.5281,2.5429,2.5347,2.5216,2.4975,2.4939,2.4843,2.4638,2.4362,2.4085,2.3845,2.3544,2.3207,2.2727,2.263,2.2541,2.2234,2.2197,2.239,2.2927,2.3216,2.3324,2.3071,2.2271,2.1401,2.0733,2.0063,1.9464,1.9056,1.8563,1.8065,1.7623,1.6993,1.6689,1.6699,1.6184,1.588,1.5913,1.5546,1.5179,1.5,1.4745,1.4623,1.4485,1.4297,1.3782,1.3161,1.2243,1.1358,3.9834,3.9621,3.8634,3.8202,3.8202,3.8202,3.8202,3.8159,3.7694,3.6867,3.5886,3.5552,3.5116,3.4588,3.3949,3.3721,3.3616,3.318,3.3224,3.3692,3.3707,3.3935,3.4327,3.3891,3.3634,3.3416,3.2425,3.1888,3.1685,3.109,3.0743,3.0627,3.0612,3.0612,3.0598,3.0089,3.0074,3.051,2.9639,2.9072,2.8898,2.8796,2.8694,2.8665,2.8202,2.7927,2.7913,2.7913,2.7681,2.7302,2.7711,2.7769,2.7272,2.7148,2.7099,2.7099,2.7103,2.7148,2.7237,2.7162,2.7293,2.7683,2.7263,2.6871,2.6645,2.6393,2.5931,2.5488,2.5312,2.5312,2.5288,2.5288,2.5312,2.5288,2.4951,2.4638,2.4494,2.4169,2.3782,2.33,2.3095,2.2843,2.2486,2.2366,2.2606,2.3156,2.3469,2.3421,2.3095,2.2907,2.2373,2.1582,2.0773,2.0117,1.9391,1.8911,1.8465,1.7875,1.7115,1.6953,1.7007,1.6621,1.6218,1.6456,1.6169,1.5797,1.5597,1.5205,1.4939,1.483,1.4628,1.4258,1.3541,1.2581,1.1577,3.9621,3.909,3.8464,3.8202,3.8202,3.8202,3.8202,3.8202,3.813,3.7767,3.7027,3.5915,3.5392,3.5232,3.4603,3.4327,3.4298,3.4254,3.424,3.4283,3.4327,3.4356,3.438,3.4341,3.4022,3.3561,3.3329,3.2937,3.2411,3.1758,3.1148,3.067,3.0612,3.0627,3.0598,3.0539,3.0539,3.0598,3.0481,3.0118,2.9508,2.8971,2.8694,2.8694,2.8651,2.8622,2.8637,2.8579,2.8607,2.8549,2.8594,2.861,2.8495,2.8039,2.7734,2.7747,2.7685,2.7822,2.8293,2.8351,2.8314,2.8382,2.833,2.8149,2.7986,2.7966,2.7258,2.6022,2.5441,2.5453,2.5312,2.5347,2.5382,2.5382,2.524,2.5047,2.4604,2.446,2.4254,2.3794,2.3348,2.2955,2.2903,2.2799,2.3083,2.3493,2.3324,2.3156,2.3023,2.2678,2.2378,2.2004,2.1463,2.0802,2.0191,1.9607,1.9068,1.888,1.8124,1.776,1.7846,1.7424,1.6711,1.6944,1.6728,1.6364,1.6091,1.572,1.5388,1.5214,1.4856,1.4297,1.3631,1.2917,1.2212,3.96,3.9031,3.8427,3.8202,3.8202,3.8202,3.8202,3.8202,3.8202,3.8057,3.7752,3.6896,3.6098,3.5378,3.5131,3.4791,3.4428,3.438,3.438,3.438,3.438,3.438,3.438,3.438,3.4254,3.4008,3.3692,3.3373,3.3006,3.2425,3.1787,3.1206,3.1134,3.0945,3.0641,3.0612,3.0612,3.0612,3.0612,3.0467,3.019,2.9973,2.9828,2.9798,2.9435,2.9435,2.974,2.945,2.9406,2.9784,2.9828,2.9842,2.9828,2.9593,2.946,2.9445,2.9421,2.9511,2.9749,2.9376,2.9156,2.9156,2.8762,2.8395,2.826,2.8556,2.8272,2.7255,2.6955,2.682,2.6595,2.6286,2.601,2.5826,2.5523,2.5216,2.5035,2.4987,2.4795,2.4278,2.3761,2.3348,2.3003,2.2734,2.2775,2.3204,2.3107,2.2987,2.2987,2.2818,2.2546,2.2238,2.1925,2.1346,2.05,1.9595,1.9052,1.8498,1.7855,1.765,1.7968,1.7819,1.7296,1.7598,1.7321,1.7032,1.6766,1.6138,1.5638,1.543,1.5002,1.4387,1.413,1.3571,1.3009,3.9349,3.8833,3.8404,3.8202,3.8202,3.8202,3.8202,3.8202,3.8202,3.8202,3.8159,3.7738,3.6939,3.6002,3.5755,3.5285,3.4733,3.4675,3.4574,3.4443,3.438,3.438,3.438,3.438,3.438,3.4341,3.3949,3.3678,3.3489,3.3035,3.244,3.1888,3.1756,3.1569,3.1163,3.1119,3.1105,3.115,3.1135,3.1105,3.1119,3.1105,3.0945,3.0612,3.0132,3.0118,3.0569,3.0118,3.0089,3.0569,3.0612,3.0612,3.0612,3.0612,3.0612,3.0627,3.0772,3.0859,3.0843,3.0373,3.0211,3.0335,2.9879,2.9546,2.9499,2.983,2.9838,2.9392,2.9222,2.8953,2.7683,2.7245,2.6888,2.6586,2.6139,2.5884,2.5814,2.5756,2.5667,2.5193,2.4695,2.3983,2.3296,2.2678,2.2438,2.2895,2.2891,2.2763,2.2794,2.2758,2.2582,2.2277,2.2089,2.1599,2.0747,2.0221,1.9339,1.8753,1.8355,1.8134,1.819,1.8216,1.8249,1.8646,1.815,1.7803,1.7639,1.6971,1.577,1.5355,1.4948,1.4625,1.4497,1.4091,1.3872,3.8811,3.8277,3.8202,3.8202,3.8202,3.8202,3.8202,3.8202,3.8202,3.8202,3.8202,3.8159,3.7796,3.7157,3.6577,3.5923,3.5421,3.5319,3.5014,3.4501,3.4428,3.438,3.438,3.438,3.438,3.438,3.4341,3.4037,3.3576,3.3474,3.3093,3.2481,3.2469,3.2454,3.2324,3.2295,3.2396,3.228,3.2263,3.2336,3.2367,3.2382,3.1787,3.083,3.0583,3.0598,3.0627,3.0583,3.0569,3.0612,3.0641,3.0641,3.0627,3.0656,3.0699,3.0728,3.1163,3.1482,3.1482,3.142,3.1575,3.2142,3.2075,3.2193,3.1904,3.2048,3.2048,3.2176,3.1976,3.1015,2.872,2.8152,2.7835,2.7503,2.7351,2.7116,2.6905,2.6769,2.6905,2.6616,2.5803,2.4772,2.3845,2.2867,2.2546,2.2702,2.2546,2.227,2.2306,2.2282,2.2246,2.2137,2.1849,2.1452,2.1344,2.0866,2.0699,2.0104,1.9316,1.9356,1.9629,1.9783,1.9712,1.9609,1.9162,1.8812,1.8586,1.7732,1.6315,1.5596,1.523,1.4941,1.4764,1.4715,1.4508,3.8775,3.8202,3.8202,3.8202,3.8202,3.8202,3.8202,3.8202,3.8202,3.8202,3.8202,3.8202,3.8086,3.7868,3.7636,3.6954,3.5981,3.5595,3.5276,3.498,3.4603,3.438,3.438,3.438,3.438,3.438,3.438,3.4298,3.4109,3.408,3.3779,3.3224,3.3137,3.2948,3.2568,3.2481,3.2481,3.2495,3.2481,3.2481,3.2524,3.2481,3.2266,3.1845,3.1395,3.1177,3.1177,3.08,3.0612,3.0612,3.0959,3.1177,3.1221,3.1598,3.1816,3.183,3.2048,3.2118,3.2133,3.2133,3.2237,3.2469,3.2481,3.2524,3.2585,3.2861,3.2962,3.2687,3.2933,3.2302,3.115,2.9845,2.8944,2.8552,2.7786,2.7229,2.704,2.7007,2.7007,2.6862,2.6072,2.4975,2.407,2.3174,2.2686,2.2486,2.2306,2.224,2.2197,2.2197,2.2197,2.2173,2.2041,2.1897,2.1909,2.1247,2.0701,2.0241,1.9788,1.9628,1.9734,1.9825,1.9736,2.0047,1.9825,1.9575,1.9199,1.8037,1.6686,1.5623,1.5264,1.5117,1.4911,1.4872,1.4784,3.8575,3.824,3.8202,3.8202,3.8202,3.8202,3.8202,3.8202,3.8202,3.8202,3.8202,3.8202,3.8202,3.8202,3.8202,3.7781,3.691,3.6286,3.5813,3.5392,3.4942,3.4617,3.4395,3.438,3.438,3.438,3.438,3.438,3.438,3.438,3.4182,3.379,3.3808,3.3587,3.318,3.3122,3.3137,3.3104,3.3137,3.3104,3.3104,3.3122,3.3122,3.3064,3.2655,3.2237,3.1843,3.1424,3.1206,3.1264,3.1613,3.1814,3.1857,3.2469,3.2745,3.2571,3.2716,3.2817,3.2817,3.2817,3.2919,3.3122,3.3137,3.3104,3.3133,3.3529,3.3514,3.334,3.347,3.3558,3.2959,3.1688,3.0516,2.98,2.8604,2.7809,2.7663,2.761,2.7477,2.7232,2.6539,2.5503,2.4494,2.3853,2.3324,2.2727,2.2531,2.2432,2.2432,2.2278,2.2197,2.2197,2.2185,2.2137,2.2113,2.1668,2.1211,2.075,2.0449,2.0169,1.9971,1.9959,2.0104,2.0364,2.037,2.0145,1.9412,1.828,1.7083,1.587,1.5342,1.5196,1.5117,1.5059,1.497,3.8202,3.8202,3.8202,3.8202,3.8202,3.8202,3.8202,3.8202,3.8202,3.8202,3.8202,3.8202,3.8202,3.8202,3.8202,3.8159,3.7941,3.7447,3.6562,3.5552,3.5363,3.4951,3.4395,3.438,3.438,3.438,3.438,3.438,3.438,3.438,3.437,3.437,3.4327,3.4254,3.4356,3.4225,3.4264,3.4254,3.4211,3.4283,3.4366,3.4312,3.4327,3.4356,3.4327,3.3848,3.273,3.2553,3.2495,3.2527,3.2568,3.2539,3.28,3.3325,3.3311,3.3035,3.3253,3.3561,3.3605,3.3663,3.3949,3.4298,3.4414,3.4395,3.4443,3.4414,3.4385,3.4341,3.437,3.4385,3.4235,3.3398,3.2349,3.1162,3.0059,2.9305,2.9072,2.8761,2.8392,2.7874,2.7294,2.6542,2.5574,2.488,2.432,2.3669,2.3251,2.2971,2.2891,2.2574,2.2278,2.229,2.2259,2.2216,2.2216,2.2168,2.1825,2.1512,2.1242,2.0991,2.0747,2.0677,2.0908,2.1163,2.1189,2.0911,1.9582,1.8479,1.7586,1.6531,1.6004,1.5488,1.5449,1.54,1.5147,3.8202,3.8202,3.8202,3.8202,3.8202,3.8202,3.8202,3.8202,3.8202,3.8202,3.8202,3.8202,3.8202,3.8202,3.8202,3.8202,3.8188,3.7955,3.723,3.6112,3.5625,3.5101,3.4545,3.4395,3.438,3.438,3.438,3.438,3.438,3.438,3.438,3.438,3.438,3.438,3.438,3.438,3.438,3.438,3.438,3.438,3.4472,3.4849,3.5067,3.5111,3.5473,3.5488,3.5111,3.4298,3.3815,3.3833,3.424,3.4675,3.5053,3.5314,3.5328,3.5183,3.5299,3.543,3.5415,3.5386,3.5415,3.5648,3.5691,3.572,3.5648,3.5285,3.5116,3.5101,3.5101,3.5067,3.4965,3.4433,3.3528,3.2462,3.1112,3.0193,2.9949,2.9352,2.8922,2.8656,2.8009,2.7261,2.6594,2.5985,2.5323,2.4481,2.4101,2.392,2.3449,2.3049,2.2866,2.3065,2.2714,2.242,2.2574,2.2512,2.2183,2.1904,2.1729,2.144,2.1272,2.132,2.1584,2.1692,2.1727,2.119,1.9874,1.8862,1.8108,1.7248,1.6579,1.622,1.597,1.5729,1.5478,3.8202,3.8202,3.8202,3.8202,3.8202,3.8202,3.8202,3.8202,3.8202,3.8202,3.8202,3.8202,3.8202,3.8202,3.8202,3.8202,3.8202,3.8202,3.7651,3.6751,3.6315,3.5735,3.5125,3.4849,3.4603,3.4443,3.438,3.438,3.438,3.438,3.438,3.438,3.438,3.438,3.438,3.4395,3.4501,3.4719,3.4791,3.4864,3.514,3.5503,3.5741,3.5842,3.633,3.6664,3.6635,3.6083,3.559,3.527,3.5517,3.5909,3.6272,3.6257,3.6286,3.6286,3.6286,3.6257,3.6286,3.6185,3.6286,3.6286,3.6286,3.6286,3.6228,3.588,3.577,3.5741,3.5755,3.5741,3.5648,3.5401,3.4732,3.3975,3.2207,3.1005,3.052,2.9764,2.9331,2.9117,2.8675,2.8069,2.7506,2.7051,2.6422,2.5577,2.5201,2.4858,2.4301,2.3815,2.3756,2.3586,2.3173,2.3035,2.3095,2.2866,2.2512,2.2268,2.2074,2.1717,2.1428,2.1644,2.1897,2.1861,2.1863,2.1558,2.0415,1.9764,1.903,1.8132,1.734,1.7002,1.6707,1.6142,1.5835,3.8202,3.8202,3.8202,3.8202,3.8202,3.8202,3.8202,3.8202,3.8202,3.8202,3.8202,3.8202,3.8202,3.8202,3.8202,3.8202,3.8202,3.8202,3.7941,3.7476,3.7215,3.6852,3.6112,3.5619,3.5125,3.4617,3.4545,3.4472,3.438,3.438,3.438,3.438,3.4501,3.4486,3.4588,3.4516,3.4922,3.5392,3.545,3.5691,3.617,3.6416,3.6466,3.6495,3.7149,3.7587,3.7652,3.7887,3.7565,3.6627,3.646,3.6533,3.6475,3.6417,3.6533,3.6577,3.6446,3.6533,3.6489,3.662,3.6577,3.6606,3.662,3.6402,3.6562,3.6489,3.6373,3.6359,3.6373,3.6373,3.6359,3.6315,3.5967,3.5227,3.3336,3.1821,3.0704,3.0059,2.9802,2.9613,2.9293,2.8906,2.8333,2.7997,2.7515,2.6945,2.6453,2.5946,2.5401,2.4879,2.4387,2.4103,2.3893,2.3607,2.3633,2.3263,2.2944,2.2829,2.253,2.2098,2.1711,2.1909,2.2053,2.2017,2.1945,2.159,2.1188,2.0499,1.9895,1.9195,1.8521,1.795,1.7513,1.7119,1.6665,3.8202,3.8202,3.8202,3.8202,3.8202,3.8202,3.8202,3.8202,3.8202,3.8202,3.8202,3.8202,3.8202,3.8202,3.8202,3.8202,3.8202,3.8202,3.8173,3.7999,3.797,3.7302,3.6489,3.6141,3.572,3.5232,3.5096,3.4878,3.4443,3.4482,3.4453,3.4409,3.4922,3.5111,3.5189,3.5532,3.5865,3.604,3.6069,3.6141,3.6445,3.7225,3.7615,3.7724,3.8629,3.9107,3.9187,3.9373,3.8905,3.7855,3.7709,3.7709,3.7695,3.7695,3.7652,3.7703,3.771,3.7702,3.7702,3.7688,3.7665,3.7694,3.7535,3.7694,3.7694,3.7273,3.7085,3.7041,3.7041,3.7041,3.7041,3.7027,3.6533,3.543,3.4057,3.2638,3.1545,3.09,3.0486,3.004,2.9693,2.9383,2.9191,2.8862,2.8463,2.7903,2.7482,2.7027,2.6421,2.598,2.5489,2.5173,2.4879,2.4426,2.4066,2.3671,2.3399,2.3352,2.2997,2.2543,2.2201,2.2089,2.2149,2.2149,2.2101,2.183,2.1572,2.1081,2.0569,2.0121,1.9651,1.9119,1.8938,1.8622,1.8035,3.8202,3.8202,3.8202,3.8202,3.8202,3.8202,3.8202,3.8202,3.8202,3.8202,3.8202,3.8202,3.8202,3.8202,3.8202,3.8202,3.8202,3.8202,3.8202,3.8202,3.8188,3.7636,3.6925,3.6722,3.6388,3.5822,3.5799,3.5575,3.5299,3.5212,3.5212,3.5299,3.5561,3.577,3.5778,3.6083,3.6475,3.6664,3.6736,3.6823,3.7165,3.803,3.843,3.8677,3.942,3.9889,3.9874,3.9889,3.957,3.9009,3.873,3.8671,3.8877,3.8671,3.8671,3.8877,3.8899,3.8826,3.8598,3.8575,3.8427,3.8204,3.8014,3.7999,3.7999,3.7665,3.7346,3.7651,3.768,3.768,3.7636,3.7476,3.6838,3.5894,3.4898,3.3779,3.2483,3.1656,3.113,3.0664,3.0176,2.9803,2.9803,2.9509,2.9122,2.8671,2.8418,2.7871,2.7308,2.6969,2.6618,2.618,2.5901,2.5525,2.4998,2.4564,2.3975,2.3848,2.3501,2.3017,2.2574,2.2309,2.2228,2.2228,2.2228,2.2113,2.1837,2.162,2.1368,2.0956,2.0606,2.0299,2.0052,1.9831,1.926,3.8202,3.8202,3.8202,3.8202,3.8202,3.8202,3.8202,3.8202,3.8202,3.8202,3.8202,3.8202,3.8202,3.8202,3.8202,3.8202,3.8202,3.8202,3.8202,3.8202,3.8173,3.7854,3.7476,3.7389,3.7027,3.6504,3.6417,3.6301,3.6162,3.6206,3.6349,3.6383,3.6485,3.6652,3.6816,3.6762,3.6925,3.7434,3.7572,3.7762,3.8231,3.8926,3.9352,3.9474,3.9934,4.0239,4.0205,4.017,4.0115,4.008,3.9493,3.9421,3.9728,3.9385,3.9385,3.9692,3.9677,3.955,3.9256,3.9162,3.898,3.8561,3.8018,3.7777,3.8252,3.7945,3.7689,3.8229,3.8204,3.8014,3.8043,3.7665,3.7099,3.6417,3.5842,3.4971,3.3867,3.2498,3.1567,3.1451,3.0668,3.023,3.008,2.9865,2.9526,2.9296,2.908,2.8685,2.8284,2.8095,2.7598,2.7043,2.6826,2.6647,2.6088,2.5534,2.4858,2.4337,2.394,2.3471,2.2866,2.2574,2.2402,2.2321,2.2309,2.2247,2.2125,2.1969,2.1849,2.171,2.1289,2.1087,2.0913,2.0699,2.0282,3.8202,3.8202,3.8202,3.8202,3.8202,3.8202,3.8202,3.8202,3.8202,3.8202,3.8202,3.8202,3.8202,3.8202,3.8202,3.8202,3.8202,3.8202,3.8202,3.8202,3.8202,3.8159,3.8036,3.803,3.7688,3.7252,3.7099,3.6874,3.6611,3.6958,3.7015,3.7158,3.7883,3.8391,3.8332,3.8317,3.8523,3.8715,3.87,3.8729,3.9052,3.9829,4.0335,4.0424,4.0904,4.1174,4.1241,4.1241,4.1241,4.099,4.0359,3.9905,3.996,3.9834,3.9834,3.996,3.996,3.9889,3.9763,3.9728,3.9692,3.9448,3.9212,3.9384,3.9409,3.8502,3.8322,3.8546,3.8106,3.7958,3.8221,3.7688,3.731,3.7012,3.6511,3.5981,3.5386,3.3688,3.2367,3.1654,3.1043,3.0492,3.0476,3.0203,2.9958,2.9865,2.9651,2.9407,2.9216,2.9011,2.8553,2.793,2.7831,2.7652,2.6996,2.638,2.5704,2.511,2.4675,2.4131,2.3526,2.3017,2.2896,2.2665,2.2402,2.2371,2.234,2.2185,2.2029,2.2005,2.1969,2.1777,2.156,2.1437,2.1293,3.8855,3.8612,3.8612,3.8464,3.824,3.8202,3.8202,3.8202,3.8202,3.8202,3.8202,3.8202,3.8202,3.8202,3.8202,3.8202,3.8202,3.8202,3.8389,3.8575,3.8649,3.8782,3.8987,3.8936,3.8722,3.8238,3.8426,3.8246,3.818,3.8252,3.8532,3.8457,3.9152,3.9304,3.9438,3.947,3.9433,3.9427,3.9457,3.9472,3.9651,4.032,4.0987,4.1156,4.1456,4.1588,4.1555,4.1555,4.1588,4.144,4.1024,4.0703,4.0634,4.0478,4.0443,4.0668,4.0703,4.0547,4.0409,4.0305,4.0185,3.9925,3.9697,3.9727,3.9662,3.9018,3.8913,3.9167,3.9002,3.8697,3.8913,3.8502,3.8106,3.7622,3.7164,3.67,3.6127,3.482,3.3587,3.2875,3.2133,3.148,3.1085,3.0657,3.0248,3.005,2.9958,2.9761,2.9512,2.9338,2.9264,2.892,2.8892,2.8566,2.7878,2.7221,2.654,2.6009,2.559,2.5033,2.4416,2.3953,2.3514,2.3185,2.2866,2.2678,2.2616,2.2402,2.2228,2.2137,2.2113,2.2173,2.2106,2.1846,2.1786,3.9621,3.9235,3.9235,3.887,3.8389,3.8352,3.8315,3.8202,3.8202,3.8202,3.8202,3.8202,3.8202,3.8202,3.8202,3.8202,3.824,3.8389,3.8649,3.8958,3.9147,3.9385,3.9692,3.9783,3.9763,3.94,3.9525,3.9677,3.9713,4.001,3.9817,4.0004,4.0139,4.0251,4.0209,4.0065,4.0045,4.0045,4.006,4.006,4.0115,4.0665,4.1189,4.1456,4.1555,4.1588,4.1588,4.1588,4.1588,4.1588,4.1588,4.1588,4.1489,4.1256,4.1088,4.1555,4.1456,4.1256,4.0972,4.0885,4.0699,4.0154,3.9791,3.973,3.9994,3.9665,3.9531,3.9751,3.9793,3.9672,3.9854,3.9418,3.8943,3.8493,3.7965,3.7484,3.695,3.6351,3.5805,3.4414,3.3253,3.2338,3.1714,3.1186,3.0702,3.0278,3.0217,3.008,2.9851,2.9713,2.9687,2.9611,2.9513,2.9049,2.837,2.8102,2.7429,2.694,2.6533,2.6014,2.5443,2.5074,2.4582,2.3789,2.3424,2.3168,2.2878,2.2647,2.2463,2.229,2.2197,2.2197,2.2197,2.2197,2.2149,3.9854,3.9763,3.9763,3.9457,3.898,3.8943,3.8664,3.824,3.824,3.8202,3.824,3.824,3.8315,3.824,3.8202,3.8202,3.8389,3.8723,3.9053,3.9307,3.958,3.9905,4.01,4.0478,4.0543,4.0424,4.0255,4.003,4.0135,4.0355,4.0631,4.0734,4.1039,4.1207,4.1073,4.0904,4.0631,4.0631,4.0646,4.0646,4.0768,4.1107,4.1407,4.1588,4.1588,4.1588,4.1588,4.1588,4.1588,4.1588,4.1588,4.1588,4.1588,4.1489,4.1489,4.1555,4.1588,4.1489,4.139,4.1423,4.1407,4.1309,4.1035,4.1037,4.097,4.0393,4.0173,4.0331,4.0255,3.996,3.9889,3.9869,3.9768,3.9546,3.938,3.9228,3.9063,3.8742,3.7834,3.605,3.4528,3.3064,3.2411,3.1714,3.1085,3.0677,3.0473,3.0444,3.028,3.0205,3.0221,3.0099,2.9991,2.944,2.8778,2.8679,2.834,2.7862,2.7451,2.704,2.6562,2.6253,2.5687,2.4882,2.4076,2.3573,2.3258,2.3017,2.2787,2.2714,2.2482,2.2247,2.2371,2.2512,2.234,4.06,4.0374,4.0389,4.0025,3.9529,3.9199,3.8958,3.8686,3.8649,3.8664,3.876,3.8914,3.8914,3.8723,3.8649,3.8649,3.8833,3.9241,3.9651,3.997,4.025,4.0547,4.0703,4.1073,4.1189,4.1156,4.0922,4.0737,4.0771,4.1039,4.1189,4.1256,4.1489,4.1588,4.1555,4.1357,4.1189,4.1205,4.1205,4.1205,4.1189,4.1522,4.1588,4.1588,4.1588,4.1588,4.1588,4.1588,4.1588,4.1588,4.1588,4.1588,4.1588,4.1588,4.1588,4.1588,4.1588,4.1588,4.1588,4.1588,4.1555,4.1588,4.1588,4.1588,4.1492,4.1105,4.0863,4.0982,4.1073,4.0771,4.0805,4.0497,4.0374,4.0305,4.0115,3.996,3.9925,3.9925,3.8898,3.7486,3.6126,3.4636,3.3006,3.2295,3.154,3.1105,3.0845,3.0743,3.0729,3.0639,3.0608,3.0431,3.0294,3.0047,2.9538,2.9437,2.9234,2.8764,2.8422,2.8007,2.7565,2.7196,2.6662,2.5988,2.5154,2.4429,2.4076,2.3946,2.3547,2.3143,2.3053,2.2975,2.2884,2.2805,2.2665,4.1357,4.0953,4.0953,4.0631,4.006,3.9651,3.9379,3.9271,3.9271,3.9256,3.9328,3.9636,3.9621,3.9379,3.9271,3.9271,3.9328,3.9834,4.032,4.0646,4.0885,4.1205,4.1456,4.1588,4.1555,4.1489,4.1489,4.1588,4.1456,4.1522,4.1555,4.1555,4.1588,4.1588,4.1555,4.1522,4.1588,4.1588,4.1588,4.1588,4.1588,4.1588,4.1588,4.1588,4.1588,4.1588,4.1588,4.1588,4.1588,4.1588,4.1588,4.1588,4.1588,4.1588,4.1588,4.1588,4.1588,4.1588,4.1588,4.1588,4.1588,4.1588,4.1588,4.1588,4.1588,4.1508,4.1524,4.1588,4.1555,4.1474,4.1374,4.1189,4.0987,4.0885,4.0581,4.0274,4.0359,4.0301,4.0021,3.8793,3.7605,3.6282,3.4732,3.3522,3.2908,3.2188,3.1925,3.1299,3.1241,3.099,3.0871,3.0669,3.0552,3.0552,3.0362,3.0258,3.0025,2.9603,2.9373,2.9084,2.8565,2.8063,2.7538,2.7058,2.6537,2.5857,2.5403,2.4781,2.4281,2.3933,2.38,2.3623,2.3458,2.3292,2.3155,4.1555,4.1505,4.1489,4.1189,4.0715,4.0578,4.0285,3.9834,3.9799,3.9799,3.9834,3.9889,3.9925,3.9834,3.9799,3.9783,3.9975,4.0424,4.0749,4.0969,4.1256,4.1456,4.1588,4.1588,4.1588,4.1588,4.1588,4.1588,4.1588,4.1588,4.1588,4.1588,4.1588,4.1588,4.1588,4.1588,4.1588,4.1588,4.1588,4.1588,4.1588,4.1588,4.1588,4.1588,4.1588,4.1588,4.1588,4.1588,4.1588,4.1588,4.1588,4.1588,4.1588,4.1588,4.1588,4.1588,4.1588,4.1588,4.1588,4.1588,4.1588,4.1588,4.1588,4.1588,4.1588,4.1588,4.1588,4.1588,4.1588,4.1588,4.1588,4.1522,4.1489,4.1423,4.1241,4.1207,4.1241,4.0891,4.0577,3.973,3.846,3.7709,3.658,3.5408,3.4302,3.3588,3.2924,3.2324,3.1819,3.1673,3.1262,3.1058,3.0955,3.0925,3.0821,3.0791,3.0569,3.0291,3.0115,2.9939,2.9489,2.8968,2.8639,2.8153,2.7682,2.7045,2.6287,2.563,2.5017,2.4751,2.4675,2.4319,2.3946,2.3813,2.3738,4.1588,4.1588,4.1588,4.1456,4.1223,4.0935,4.0646,4.0459,4.0424,4.0424,4.0478,4.0752,4.0718,4.0443,4.0409,4.0424,4.0528,4.0987,4.1223,4.1223,4.1489,4.1588,4.1588,4.1588,4.1588,4.1588,4.1588,4.1588,4.1588,4.1588,4.1588,4.1588,4.1588,4.1588,4.1588,4.1588,4.1588,4.1588,4.1588,4.1588,4.1588,4.1588,4.1588,4.1588,4.1588,4.1588,4.1588,4.1588,4.1588,4.1588,4.1588,4.1588,4.1588,4.1588,4.1588,4.1588,4.1588,4.1588,4.1588,4.1588,4.1588,4.1588,4.1588,4.1588,4.1588,4.1588,4.1588,4.1588,4.1588,4.1588,4.1588,4.1588,4.1588,4.1588,4.1588,4.1588,4.1588,4.1541,4.1124,4.0257,3.9359,3.8495,3.7558,3.6198,3.511,3.4591,3.3984,3.3487,3.2976,3.2661,3.2152,3.1511,3.1408,3.1379,3.119,3.1073,3.0836,3.0571,3.0436,3.0305,3.0217,2.9853,2.9462,2.9232,2.8857,2.8111,2.723,2.6694,2.6288,2.591,2.5562,2.5281,2.5013,2.4696,2.4553,4.1588,4.1588,4.1588,4.1588,4.1555,4.1156,4.0987,4.0987,4.0987,4.0987,4.1088,4.1357,4.1323,4.1104,4.0987,4.0987,4.1037,4.1423,4.1555,4.1588,4.1588,4.1588,4.1588,4.1588,4.1588,4.1588,4.1588,4.1588,4.1588,4.1588,4.1588,4.1588,4.1588,4.1588,4.1588,4.1588,4.1588,4.1588,4.1588,4.1654,4.172,4.1654,4.1687,4.172,4.172,4.1671,4.1621,4.172,4.1753,4.1588,4.1588,4.1588,4.1588,4.1588,4.1588,4.1588,4.1588,4.1588,4.1588,4.1588,4.1588,4.1588,4.1588,4.1588,4.1588,4.1588,4.1588,4.1588,4.1588,4.1588,4.1588,4.1588,4.1588,4.1588,4.1588,4.1588,4.1588,4.1557,4.113,4.0102,3.933,3.8873,3.7872,3.6646,3.5845,3.5477,3.5034,3.4592,3.4104,3.3632,3.2938,3.2231,3.1813,3.1756,3.1582,3.138,3.1131,3.0925,3.0777,3.0613,3.0481,3.0422,3.0174,2.9987,2.9784,2.9507,2.8785,2.8196,2.7594,2.7285,2.6905,2.6539,2.6176,2.5814,2.5342,4.1588,4.1588,4.1588,4.1588,4.1588,4.1555,4.1522,4.1456,4.1489,4.1489,4.1456,4.1587,4.165,4.1552,4.1582,4.1566,4.157,4.1604,4.1588,4.1588,4.1588,4.1588,4.1588,4.1588,4.1588,4.1588,4.1588,4.1588,4.1588,4.1588,4.1588,4.1588,4.1588,4.1588,4.1621,4.1654,4.1621,4.1654,4.1687,4.1818,4.1883,4.1851,4.1769,4.2013,4.2045,4.1948,4.167,4.1883,4.1964,4.172,4.1687,4.1687,4.1687,4.1753,4.1785,4.1687,4.1687,4.1687,4.1687,4.1621,4.1588,4.1588,4.1588,4.1588,4.1588,4.1588,4.1588,4.1588,4.1588,4.1588,4.1588,4.1588,4.1588,4.1588,4.1588,4.1588,4.1588,4.1588,4.1067,3.9977,3.9297,3.8871,3.8239,3.7057,3.6657,3.632,3.6213,3.578,3.4938,3.4387,3.3701,3.3005,3.2399,3.2116,3.197,3.1741,3.1523,3.1321,3.1117,3.0896,3.0658,3.0644,3.0659,3.0481,3.0248,3.0335,3.0277,2.9406,2.8756,2.8582,2.8209,2.761,2.7211,2.686,2.6301,4.1588,4.1588,4.1588,4.1588,4.1588,4.1588,4.1588,4.1588,4.1588,4.1588,4.1636,4.2047,4.2268,4.2268,4.2268,4.2268,4.2189,4.1746,4.1683,4.1588,4.1588,4.1588,4.1588,4.1588,4.1588,4.1588,4.1588,4.1588,4.1588,4.1621,4.1588,4.1588,4.1718,4.1588,4.1621,4.1753,4.1785,4.1769,4.1964,4.2222,4.2013,4.2045,4.2077,4.2365,4.2142,4.2206,4.219,4.2109,4.2174,4.2126,4.1997,4.1916,4.1948,4.2061,4.2029,4.1916,4.1883,4.1916,4.1818,4.172,4.1588,4.1588,4.1588,4.1588,4.1588,4.1588,4.1588,4.1588,4.1588,4.1588,4.1588,4.1588,4.1588,4.1588,4.1588,4.1588,4.1588,4.1588,4.1099,4.0056,3.9439,3.895,3.8269,3.748,3.7314,3.7178,3.7117,3.69,3.5974,3.5281,3.4665,3.4138,3.354,3.3147,3.2985,3.2555,3.2025,3.1783,3.1539,3.1263,3.1029,3.1043,3.1043,3.0836,3.0687,3.0674,3.0528,3.0177,2.9784,2.9378,2.8914,2.8409,2.8106,2.7834,2.734,4.1588,4.1588,4.1588,4.1588,4.1588,4.1588,4.1715,4.1873,4.1667,4.1746,4.1936,4.2473,4.2821,4.2932,4.2995,4.3011,4.2805,4.2347,4.2047,4.1873,4.1762,4.1636,4.1588,4.1588,4.1588,4.1588,4.1621,4.1621,4.1785,4.1753,4.2058,4.2235,4.2169,4.2138,4.1687,4.1931,4.2013,4.2093,4.2269,4.2601,4.2381,4.2302,4.2429,4.268,4.2555,4.2444,4.2539,4.2476,4.2492,4.2476,4.2381,4.219,4.2254,4.2349,4.2381,4.2254,4.2206,4.2238,4.2045,4.1834,4.1621,4.1588,4.1588,4.1588,4.1588,4.1588,4.1588,4.1588,4.1588,4.1588,4.1588,4.1588,4.1588,4.1588,4.1588,4.1588,4.1588,4.1557,4.0925,4.0166,3.9629,3.9092,3.8412,3.7763,3.7498,3.7422,3.7329,3.7235,3.6845,3.6238,3.5859,3.537,3.4867,3.4532,3.4216,3.3503,3.2837,3.2542,3.2255,3.1726,3.1537,3.1523,3.1466,3.135,3.1204,3.1029,3.0896,3.0763,3.0426,2.9987,2.9494,2.8986,2.8813,2.8567,2.8436,4.1588,4.1588,4.1588,4.1588,4.1588,4.1588,4.1952,4.2299,4.1857,4.1952,4.2521,4.2742,4.3153,4.3529,4.369,4.369,4.3548,4.2995,4.2663,4.2552,4.222,4.1825,4.1794,4.1873,4.1968,4.1667,4.1748,4.1927,4.2045,4.198,4.251,4.3235,4.3299,4.2992,4.1815,4.1948,4.2254,4.2522,4.2569,4.282,4.2867,4.2711,4.2805,4.299,4.2959,4.282,4.2851,4.2851,4.2851,4.2789,4.2695,4.2507,4.2333,4.2601,4.257,4.227,4.2476,4.2444,4.2142,4.1818,4.1687,4.1621,4.1588,4.1588,4.1588,4.1588,4.1588,4.1588,4.1588,4.1588,4.1588,4.1588,4.1588,4.1588,4.1588,4.1588,4.1588,4.1573,4.1004,4.0451,3.9866,3.9266,3.8602,3.8033,3.7717,3.7575,3.7526,3.7415,3.7273,3.7038,3.6643,3.6311,3.5837,3.548,3.5012,3.4254,3.3684,3.3357,3.2982,3.2522,3.2081,3.1936,3.1879,3.1838,3.1652,3.1451,3.148,3.1522,3.1056,3.0558,3.0017,2.9566,2.945,2.9348,2.9275,4.1588,4.1588,4.1588,4.1588,4.1588,4.1588,4.1746,4.1889,4.1746,4.1999,4.2695,4.3121,4.3737,4.4161,4.4369,4.4369,4.4243,4.3674,4.3377,4.3295,4.2995,4.3074,4.2963,4.2805,4.271,4.2426,4.2333,4.2247,4.2077,4.2318,4.28,4.3493,4.4285,4.3897,4.3186,4.2926,4.2789,4.271,4.2943,4.3251,4.3129,4.307,4.3115,4.3405,4.3284,4.3143,4.3174,4.3204,4.3143,4.3143,4.3052,4.2851,4.2774,4.3005,4.3052,4.2836,4.2912,4.2789,4.2539,4.2285,4.2061,4.1818,4.1621,4.1621,4.1588,4.1588,4.1588,4.1588,4.1588,4.1588,4.1588,4.1588,4.1588,4.1588,4.1588,4.1588,4.1588,4.1573,4.1272,4.0767,4.0214,3.9629,3.8997,3.8365,3.7986,3.7717,3.7652,3.7541,3.7399,3.7415,3.7194,3.6959,3.6611,3.6279,3.5799,3.5125,3.4582,3.4229,3.3829,3.3369,3.297,3.2641,3.2308,3.2285,3.2068,3.1879,3.1879,3.1794,3.1523,3.11,3.0631,3.0236,3.0045,3.0089,3.0176,4.1588,4.1588,4.1588,4.1588,4.1588,4.1588,4.1588,4.1636,4.1857,4.2363,4.3042,4.3513,4.4224,4.4859,4.5096,4.508,4.5001,4.4354,4.4038,4.399,4.3753,4.3592,4.3608,4.3718,4.3374,4.3155,4.3198,4.3161,4.3234,4.3218,4.3945,4.4885,4.5261,4.5293,4.4786,4.4344,4.395,4.4014,4.4342,4.4401,4.4163,4.392,4.3814,4.3822,4.366,4.3372,4.3462,4.3462,4.3372,4.3479,4.3419,4.3221,4.3298,4.3358,4.3419,4.3204,4.3066,4.2974,4.282,4.2585,4.2333,4.2093,4.1883,4.1785,4.172,4.1687,4.1621,4.1588,4.1588,4.1621,4.1621,4.1621,4.1654,4.1654,4.1621,4.1621,4.1588,4.1573,4.1558,4.1052,4.0404,3.985,3.9328,3.8807,3.8254,3.8002,3.7779,3.7636,3.751,3.751,3.751,3.7336,3.718,3.6896,3.6532,3.6064,3.5531,3.511,3.4691,3.4278,3.4019,3.3692,3.3218,3.277,3.2705,3.2585,3.2259,3.2076,3.1908,3.1667,3.1318,3.0969,3.0687,3.0642,3.0657,4.1573,4.1588,4.1588,4.1588,4.1588,4.1588,4.162,4.1699,4.2299,4.2979,4.3756,4.3737,4.4382,4.5555,4.576,4.5713,4.5618,4.5001,4.4828,4.4622,4.4318,4.4082,4.4003,4.4038,4.4009,4.4021,4.4068,4.4292,4.4723,4.4951,4.5666,4.6417,4.6615,4.6631,4.6303,4.5943,4.5449,4.5327,4.5258,4.5303,4.5142,4.4925,4.461,4.4409,4.4048,4.3704,4.3664,4.3568,4.3635,4.3698,4.3684,4.3534,4.3457,4.3498,4.3408,4.335,4.3371,4.3389,4.326,4.3061,4.2805,4.2634,4.2349,4.2206,4.2013,4.1818,4.172,4.1654,4.1654,4.1638,4.1638,4.172,4.1768,4.172,4.1687,4.1654,4.1621,4.1621,4.1654,4.1212,4.0468,3.9849,3.9294,3.8787,3.8597,3.8318,3.8047,3.7621,3.751,3.751,3.751,3.7494,3.7415,3.7462,3.713,3.669,3.6295,3.5774,3.5552,3.5212,3.4991,3.468,3.4262,3.3834,3.3554,3.3264,3.2816,3.2563,3.241,3.216,3.1851,3.1537,3.1204,3.0866,3.0807,4.1162,4.1573,4.1588,4.1588,4.1588,4.1588,4.1906,4.2331,4.2141,4.2758,4.4401,4.3876,4.4492,4.5744,4.5807,4.5807,4.5728,4.5634,4.5539,4.5333,4.5112,4.5175,4.5144,4.5085,4.5001,4.4925,4.4976,4.5204,4.5359,4.5927,4.645,4.6826,4.7371,4.7554,4.7505,4.7357,4.6662,4.6164,4.6013,4.6013,4.593,4.5649,4.5284,4.487,4.4589,4.4224,4.3896,4.378,4.3913,4.4324,4.4373,4.4431,4.5076,4.5107,4.5076,4.5076,4.4995,4.4863,4.4337,4.4144,4.3904,4.342,4.3057,4.2507,4.2254,4.2045,4.1899,4.1835,4.1867,4.1932,4.1997,4.2029,4.2045,4.1964,4.1932,4.1916,4.1851,4.1785,4.1786,4.1598,4.0847,4.0606,3.9906,3.9157,3.8968,3.8676,3.8301,3.7854,3.7539,3.7539,3.751,3.751,3.751,3.751,3.751,3.7194,3.6832,3.6456,3.6263,3.5979,3.5572,3.5303,3.5157,3.481,3.4336,3.3772,3.3208,3.3047,3.3026,3.2676,3.2342,3.202,3.1709,3.1364,3.1087,4.0943,4.1225,4.1494,4.1588,4.1588,4.1588,4.2015,4.2507,4.1889,4.2647,4.4164,4.3895,4.4461,4.5665,4.5807,4.5807,4.5807,4.5776,4.5744,4.5744,4.5807,4.5728,4.5792,4.5941,4.5833,4.5808,4.5975,4.6235,4.6291,4.6781,4.7355,4.7404,4.7885,4.7951,4.7951,4.7786,4.7471,4.7023,4.6742,4.6676,4.6543,4.6361,4.5914,4.5549,4.5317,4.4837,4.4522,4.4423,4.4705,4.5069,4.5119,4.5284,4.5765,4.5765,4.5748,4.5682,4.5649,4.5436,4.5154,4.5088,4.484,4.4478,4.3993,4.3557,4.3004,4.267,4.2366,4.2158,4.2254,4.2317,4.2381,4.2444,4.2381,4.2301,4.2254,4.2238,4.2126,4.2029,4.1965,4.19,4.1736,4.159,4.0995,4.0082,3.9363,3.9065,3.8683,3.8187,3.7817,3.7658,3.7569,3.751,3.751,3.751,3.751,3.7539,3.7241,3.6975,3.6943,3.6627,3.62,3.5913,3.5739,3.5407,3.4984,3.4482,3.4072,3.3772,3.3606,3.3318,3.3037,3.2734,3.2373,3.1879,3.1652,4.0801,4.072,4.1337,4.1588,4.1588,4.1588,4.1952,4.2489,4.189,4.2442,4.3624,4.3734,4.4496,4.5618,4.5807,4.5807,4.5807,4.5807,4.5807,4.5807,4.59,4.5936,4.5992,4.6159,4.6362,4.6604,4.6848,4.7026,4.7406,4.7671,4.7819,4.8001,4.7984,4.8001,4.8001,4.8001,4.7819,4.7686,4.7603,4.7636,4.7587,4.7338,4.6924,4.6676,4.6245,4.5781,4.5715,4.5732,4.5814,4.5847,4.5881,4.5914,4.6129,4.6195,4.6162,4.6162,4.6311,4.6238,4.6057,4.5974,4.5858,4.5559,4.5183,4.4655,4.4128,4.3317,4.2899,4.2725,4.2818,4.3047,4.3169,4.3125,4.308,4.2896,4.2741,4.2679,4.2617,4.2615,4.2657,4.2521,4.2248,4.2085,4.1657,4.0721,3.9822,3.9512,3.892,3.8375,3.8209,3.7937,3.7817,3.7671,3.7642,3.7642,3.7583,3.7612,3.7569,3.7445,3.7442,3.7496,3.7199,3.6794,3.6321,3.5973,3.5625,3.545,3.5106,3.4727,3.4367,3.4234,3.3927,3.3508,3.3067,3.2588,3.2173,4.0496,4.0928,4.1386,4.1588,4.1588,4.1588,4.1683,4.1841,4.1683,4.2663,4.4132,4.4034,4.4461,4.5665,4.5807,4.5807,4.5807,4.5807,4.5807,4.5936,4.6012,4.6156,4.6246,4.6547,4.6825,4.71,4.7387,4.7571,4.7787,4.7935,4.8001,4.8001,4.8001,4.8001,4.8001,4.8001,4.8001,4.8001,4.8001,4.8001,4.7918,4.7819,4.7537,4.7123,4.6626,4.6344,4.6179,4.5897,4.6195,4.646,4.6593,4.6924,4.7421,4.7421,4.7438,4.7454,4.7353,4.7261,4.7166,4.6937,4.6755,4.6369,4.5988,4.5628,4.5026,4.4065,4.3582,4.3505,4.3529,4.3748,4.3893,4.3839,4.371,4.3472,4.3246,4.3216,4.3169,4.327,4.337,4.3142,4.2822,4.2476,4.2114,4.1409,4.0505,3.9673,3.8906,3.8412,3.8485,3.8371,3.8335,3.8193,3.7902,3.7844,3.7772,3.7743,3.7759,3.7817,3.7783,3.7931,3.8107,3.7716,3.7217,3.6654,3.6267,3.6241,3.6003,3.5403,3.5122,3.5138,3.4745,3.4297,3.3995,3.3594,3.2983,4.0421,4.0856,4.1709,4.1964,4.1851,4.1818,4.1753,4.1621,4.1588,4.2584,4.4053,4.399,4.4496,4.5665,4.5807,4.5807,4.5807,4.5807,4.5936,4.6084,4.6246,4.6423,4.6652,4.6929,4.7134,4.7371,4.7638,4.782,4.7968,4.8001,4.8001,4.8001,4.8001,4.8001,4.8001,4.8001,4.8001,4.8001,4.8001,4.8001,4.8001,4.7934,4.7868,4.7438,4.7289,4.704,4.7007,4.6775,4.699,4.7384,4.7563,4.7807,4.8155,4.8206,4.8257,4.8257,4.8237,4.8346,4.8259,4.8084,4.781,4.7545,4.7153,4.7016,4.6937,4.6085,4.5231,4.5055,4.4372,4.4451,4.4462,4.4395,4.4202,4.3972,4.4054,4.4123,4.4095,4.4164,4.4232,4.4136,4.3831,4.3527,4.307,4.236,4.1548,4.1148,4.0152,3.9339,3.924,3.89,3.8858,3.8704,3.8408,3.8177,3.8119,3.8107,3.8049,3.8107,3.8119,3.8177,3.8278,3.8335,3.8101,3.7536,3.723,3.7343,3.6998,3.6354,3.6202,3.6289,3.5715,3.5036,3.4808,3.4596,3.416,4.061,4.0934,4.2083,4.2428,4.2174,4.2109,4.198,4.1801,4.1798,4.2592,4.3915,4.4071,4.4776,4.5444,4.5952,4.5916,4.5936,4.6116,4.6243,4.6369,4.6477,4.6722,4.6997,4.732,4.7454,4.7638,4.782,4.7902,4.8001,4.8001,4.8001,4.8001,4.8001,4.8001,4.8001,4.8001,4.8001,4.8001,4.8001,4.8001,4.8001,4.8001,4.7951,4.7968,4.8001,4.8001,4.7984,4.8065,4.8065,4.8242,4.8428,4.8649,4.8745,4.8779,4.8796,4.8796,4.8796,4.9023,4.921,4.9172,4.9219,4.9159,4.8726,4.8436,4.8323,4.7843,4.7011,4.6424,4.5744,4.5226,4.5209,4.4971,4.4769,4.4614,4.4773,4.491,4.492,4.492,4.4964,4.4937,4.4635,4.4344,4.382,4.311,4.2617,4.2278,4.1763,4.1095,4.0426,3.9853,3.9523,3.927,3.8957,3.8742,3.852,3.8363,3.8307,3.8403,3.8432,3.8448,3.8504,3.8628,3.86,3.8375,3.8173,3.8116,3.7923,3.7432,3.7383,3.73,3.6674,3.6038,3.5932,3.5712,3.5404,4.1355,4.2213,4.2488,4.2554,4.2459,4.2222,4.2206,4.243,4.2734,4.3536,4.4376,4.5134,4.5667,4.5844,4.649,4.6545,4.6262,4.6439,4.6666,4.6789,4.6929,4.7168,4.7387,4.7605,4.782,4.7902,4.7935,4.7968,4.8001,4.8001,4.8001,4.8001,4.8001,4.8001,4.8001,4.8001,4.8001,4.8001,4.8001,4.8001,4.8001,4.8001,4.8001,4.8001,4.8001,4.8001,4.8082,4.8371,4.8482,4.8702,4.8995,4.9209,4.9252,4.9252,4.9252,4.9252,4.9269,4.9568,4.9774,4.9744,4.9774,4.993,4.9493,4.9267,4.9143,4.8998,4.84,4.8166,4.7452,4.6621,4.6334,4.5797,4.5483,4.5327,4.5381,4.5407,4.5433,4.5433,4.5433,4.5196,4.4872,4.4597,4.4322,4.3658,4.3075,4.2695,4.2222,4.1643,4.1667,4.1009,4.0275,3.9939,3.9653,3.9117,3.8777,3.8588,3.8532,3.8628,3.8738,3.8738,3.8821,3.9029,3.8975,3.8727,3.8644,3.8574,3.8381,3.8188,3.8188,3.7984,3.7464,3.702,3.6972,3.6777,3.6434]}]]